     2              OBSERVATION DATA    GPS                 RINEX VERSION / TYPE
teqc 2000Feb29 Duncan Agnew 20000428 21:03:57UTC            PGM / RUN BY / DATE
                                                            COMMENT
L2: 1 -> 1; 150 -> 5; 250 -> 9                              COMMENT
L2: 1 -> 1; 150 -> 5; 250 -> 9                              COMMENT
L2: 1 -> 1; 150 -> 5; 250 -> 9                              COMMENT
L2: 1 -> 1; 150 -> 5; 250 -> 9                              COMMENT
L2: 1 -> 1; 150 -> 5; 250 -> 9                              COMMENT
Original Marker Name: XERO                                  COMMENT
Campaign Name: Hector Postseismic                           COMMENT
4-Character Station Name: XERO                              COMMENT
6-Character Antenna Code: DMRCHT                            COMMENT
Vertical Measurement Point: BCR                             COMMENT
Vertical Offset to Rinex Ref. Point: 0.0348                 COMMENT
Radial Measurement Point: ECF                               COMMENT
Radial Offset to Rinex Ref. Point: 0.1897                   COMMENT
Antenna Height from Field Measurement: 0.5140 m             COMMENT
Additional Antenna Identification Info.:                    COMMENT
Turborogue and Ashtech Choke Ring                           COMMENT
Original XYZ: -2315102.4944 -4742397.1925 3571311.3514      COMMENT
New XYZ position is based on association with SCEC monument COMMENT
E1F2G9V3+0011. Position of that monument is believed to be  COMMENT
valid to within 1 m horizontally; vertical accuracy         COMMENT
should be no worse than 3-times this value.                 COMMENT
                                                            COMMENT
Revised Rinex header created by UCSD GPS archive for        COMMENT
GSAC on 31-Jul-2000 (2000:213) 17:57:27 GMT                 COMMENT
For assistance contact dagnew@ucsd.edu                      COMMENT
or anderson@python.ucsd.edu                                 COMMENT
                                                            COMMENT
XEROX                                                       MARKER NAME
MLS UNIV SOUTHERN CALIFORNIA                                OBSERVER / AGENCY
192 ASHTECH Z-XII3 CD00                                     REC # / TYPE / VERS
374 DORNE-MARGOL. TYPE T                                    ANT # / TYPE
 -2315077.6785 -4742340.9461  3571242.3914                  APPROX POSITION XYZ
        0.4429        0.0000        0.0000                  ANTENNA: DELTA H/E/N
     1     1     0                                          WAVELENGTH FACT L1/2
     7    C1    L1    L2    P1    P2    S1    S2            # / TYPES OF OBSERV
     0                                                      INTERVAL
  2000     4    18     0     0   30.000000                  TIME OF FIRST OBS
  2000     4    18     6    47   30.000000                  TIME OF LAST OBS
                                                            END OF HEADER
 00  4 18  0  0 30.0000000  0  6G26G23G22G 6G17G21
  21684344.513    -6962079.70049  -5393151.19546  21684344.581    21684354.459
       230.000         184.000
  21023890.390   -11416880.19749  -8872533.90047  21023889.714    21023899.697
       244.000         211.000
  23750774.882    -6738285.21449  -5240564.41845  23750774.091    23750789.854
       213.000         153.000
  20793875.844     1502014.66249   1177796.02947  20793875.719    20793885.781
       241.000         206.000
  20812555.227    -4862185.62449  -3617630.12647  20812554.558    20812563.879
       244.000         212.000
  23988736.710    -5370703.42549  -3598322.99345  23988734.445    23988754.626
       214.000         152.000
 00  4 18  0  1  0.0000000  0  6G26G23G22G 6G17G21
  21686072.729    -6952997.76449  -5386074.32446  21686072.374    21686082.753
       229.000         184.000
  21017433.576   -11450810.85349  -8898973.29547  21017432.874    21017442.799
       244.000         212.000
  23751702.184    -6733411.55649  -5236766.76545  23751700.930    23751718.200
       212.000         152.000
  20804334.388     1556974.35849   1220621.70447  20804334.369    20804344.256
       241.000         206.000
  20810758.340    -4871628.21749  -3624987.96947  20810757.632    20810767.000
       244.000         212.000
  23973279.978    -5451926.89649  -3661613.57045  23973278.974    23973297.585
       213.000         152.000
 00  4 18  0  1 30.0000000  0  6G26G23G22G 6G17G21
  21687921.026    -6943284.50149  -5378505.52046  21687920.295    21687930.812
       231.000         185.000
  21011050.781   -11484352.49949  -8925109.56147  21011050.053    21011060.179
       244.000         212.000
  23752718.844    -6728067.65349  -5232602.71445  23752717.496    23752735.416
       212.000         152.000
  20814887.610     1612431.60149   1263835.07647  20814887.813    20814897.608
       240.000         206.000
  20808993.592    -4880901.98049  -3632214.24947  20808992.934    20809002.380
       244.000         212.000
  23957858.354    -5532966.28749  -3724760.71245  23957857.051    23957875.612
       213.000         152.000
 00  4 18  0  2  0.0000000  0  6G26G23G22G 6G17G21
  21689890.361    -6932935.28349  -5370441.17146  21689890.052    21689900.483
       231.000         185.000
  21004743.180   -11517498.76949  -8950937.74747  21004742.449    21004752.347
       244.000         212.000
  23753826.312    -6722248.03049  -5228067.95945  23753826.008    23753841.593
       210.000         152.000
  20825533.520     1668376.02249   1307428.06547  20825533.623    20825543.670
       240.000         205.000
  20807259.220    -4890015.97649  -3639316.03947  20807258.545    20807267.631
       243.000         212.000
  23942473.081    -5613814.75849  -3787759.07945  23942471.942    23942490.125
       213.000         153.000
 00  4 18  0  2 30.0000000  0  6G26G23G22G 6G17G21
  21691979.769    -6921955.22549  -5361885.25046  21691979.665    21691989.205
       231.000         185.000
  20998512.783   -11550239.54949  -8976449.96447  20998512.103    20998521.994
       244.000         212.000
  23755027.920    -6715933.19849  -5223147.31745  23755026.168    23755045.178
       209.000         151.000
  20836265.480     1724772.51249   1351373.31447  20836265.324    20836275.334
       240.000         205.000
  20805556.781    -4898962.19149  -3646287.09247  20805556.053    20805565.662
       243.000         212.000
  23927123.079    -5694477.71149  -3850612.87445  23927121.518    23927141.134
       214.000         153.000
 00  4 18  0  3  0.0000000  0  6G26G23G22G 6G17G21
  21694188.197    -6910349.80849  -5352842.03846  21694188.326    21694197.873
       230.000         185.000
  20992360.772   -11582568.38949  -9001641.19047  20992360.092    20992369.977
       245.000         212.000
  23756325.324    -6709114.41649  -5217834.00145  23756324.389    23756341.240
       208.000         151.000
  20847080.023     1781603.11449   1395656.83147  20847079.917    20847089.953
       241.000         205.000
  20803889.643    -4907723.12849  -3653113.77347  20803888.847    20803898.325
       243.000         212.000
  23911810.341    -5774944.77649  -3913314.02745  23911808.509    23911828.102
       213.000         153.000
 00  4 18  0  3 30.0000000  0  6G26G23G22G 6G17G21
  21696513.306    -6898131.19749  -5343321.01346  21696513.306    21696523.093
       231.000         185.000
  20986287.376   -11614483.86449  -9026510.31147  20986286.506    20986296.686
       244.000         212.000
  23757721.581    -6701777.28149  -5212116.76745  23757721.182    23757738.281
       208.000         150.000
  20857977.960     1838871.97149   1440281.84247  20857977.972    20857988.103
       240.000         205.000
  20802260.549    -4916283.87049  -3659784.45747  20802259.625    20802269.009
       243.000         212.000
  23896535.873    -5855210.71249  -3975858.45745  23896534.923    23896553.817
       214.000         154.000
 00  4 18  0  4  0.0000000  0  6G26G23G22G 6G17G21
  21698955.108    -6885299.38949  -5333322.17746  21698954.606    21698964.520
       231.000         185.000
  20980294.606   -11645975.55449  -9051049.21247  20980293.925    20980303.810
       244.000         212.000
  23759218.890    -6693909.74249  -5205986.23645  23759218.825    23759234.101
       210.000         150.000
  20868961.024     1896587.97749   1485255.27647  20868960.839    20868971.026
       240.000         205.000
  20800669.689    -4924643.72549  -3666298.60447  20800668.897    20800678.461
       243.000         212.000
  23881301.033    -5935268.49649  -4038240.69545  23881299.590    23881319.257
       214.000         154.000
 00  4 18  0  4 30.0000000  0  6G26G23G22G 6G17G21
  21701513.415    -6871855.38949  -5322846.30746  21701513.065    21701523.327
       231.000         185.000
  20974382.360   -11677044.34749  -9075258.58547  20974381.718    20974391.656
       244.000         212.000
  23760814.129    -6685527.63449  -5199454.74945  23760813.901    23760829.341
       211.000         149.000
  20880032.839     1954770.52049   1530592.24647  20880032.714    20880042.987
       241.000         205.000
  20799118.023    -4932797.80649  -3672652.40847  20799117.381    20799126.744
       243.000         212.000
  23866109.283    -6015099.82749  -4100446.46945  23866107.697    23866126.378
       213.000         155.000
 00  4 18  0  5  0.0000000  0  6G26G23G22G 6G17G21
  21704187.029    -6857805.12949  -5311898.02646  21704187.004    21704196.671
       231.000         186.000
  20968549.408   -11707696.22549  -9099143.08947  20968548.596    20968558.507
       244.000         212.000
  23762505.489    -6676639.50749  -5192528.95745  23762505.540    23762521.848
       210.000         150.000
  20891200.989     2013459.16849   1576323.58247  20891200.853    20891210.915
       241.000         205.000
  20797606.079    -4940743.00349  -3678843.44747  20797605.497    20797614.777
       243.000         212.000
  23850961.620    -6094699.42049  -4162471.65145  23850959.874    23850978.675
       215.000         155.000
 00  4 18  0  5 30.0000000  0  6G26G23G22G 6G17G21
  21706977.839    -6843139.24249  -5300470.02646  21706977.712    21706987.299
       231.000         186.000
  20962799.899   -11737909.58949  -9122685.89847  20962798.996    20962809.007
       244.000         212.000
  23764292.994    -6667245.97149  -5185209.32945  23764293.142    23764308.736
       212.000         150.000
  20902470.419     2072679.92049   1622469.54347  20902470.231    20902480.225
       241.000         205.000
  20796134.039    -4948478.49049  -3684871.08047  20796133.187    20796142.551
       243.000         212.000
  23835857.093    -6174072.87949  -4224320.65445  23835855.281    23835873.665
       212.000         156.000
 00  4 18  0  6  0.0000000  0  6G26G23G22G 6G17G21
  21709892.267    -6827823.70749  -5288535.81646  21709892.144    21709901.999
       231.000         186.000
  20957136.904   -11767668.75949  -9145874.79148  20957136.097    20957146.031
       244.000         213.000
  23766174.290    -6657361.16049  -5177506.91845  23766173.890    23766189.451
       212.000         150.000
  20913842.317     2132439.55249   1669035.41347  20913842.408    20913852.755
       241.000         204.000
  20794701.557    -4956006.06649  -3690736.70447  20794700.688    20794710.023
       243.000         212.000
  23820797.483    -6253209.52249  -4285985.11145  23820795.596    23820813.403
       214.000         156.000
 00  4 18  0  6 30.0000000  0  6G26G23G22G 6G17G21
  21712935.093    -6811833.37249  -5276075.79346  21712934.918    21712944.543
       231.000         186.000
  20951560.981   -11796970.16049  -9168706.98348  20951560.257    20951570.249
       244.000         213.000
  23768151.401    -6646971.62249  -5169411.19745  23768151.771    23768167.812
       216.000         152.000
  20925315.937     2192733.48049   1716017.61547  20925315.915    20925326.124
       241.000         204.000
  20793314.026    -4963297.59149  -3696418.39247  20793313.339    20793322.704
       243.000         212.000
  23805784.089    -6332103.78549  -4347460.72745  23805782.110    23805801.173
       214.000         156.000
 00  4 18  0  7  0.0000000  0  6G26G23G22G 6G17G21
  21716104.443    -6795178.14949  -5263097.67146  21716104.204    21716114.575
       231.000         186.000
  20946068.723   -11825831.90849  -9191196.58948  20946067.999    20946077.760
       244.000         213.000
  23770226.818    -6636067.36449  -5160914.37645  23770226.575    23770241.871
       214.000         154.000
  20936883.680     2253522.06149   1763385.26147  20936883.617    20936893.614
       240.000         204.000
  20791968.132    -4970370.26049  -3701929.55047  20791967.271    20791976.798
       243.000         212.000
  23790810.820    -6410786.84949  -4408771.75145  23790809.275    23790828.421
       216.000         157.000
 00  4 18  0  7 30.0000000  0  6G26G23G22G 6G17G21
  21719400.041    -6777859.68649  -5249602.74546  21719400.062    21719409.838
       232.000         187.000
  20940652.740   -11854292.78449  -9213373.82748  20940652.158    20940661.951
       244.000         213.000
  23772395.561    -6624670.94049  -5152034.07145  23772394.943    23772411.192
       214.000         155.000
  20948534.032     2314744.60149   1811091.05847  20948533.882    20948544.138
       241.000         204.000
  20790658.862    -4977250.39049  -3707290.67247  20790658.197    20790667.342
       243.000         212.000
  23775875.104    -6489272.86949  -4469929.26645  23775872.746    23775892.665
       213.000         157.000
 00  4 18  0  8  0.0000000  0  6G26G23G22G 6G17G21
  21722821.448    -6759880.16149  -5235592.70546  21722821.683    21722830.734
       232.000         187.000
  20935304.563   -11882397.31349  -9235273.39648  20935303.801    20935313.643
       244.000         213.000
  23774658.812    -6612777.38349  -5142766.37645  23774657.357    23774675.334
       212.000         155.000
  20960263.366     2376382.47649   1859120.48747  20960263.232    20960273.567
       239.000         203.000
  20789385.689    -4983940.88449  -3712504.02847  20789384.948    20789394.062
       243.000         212.000
  23760979.309    -6567548.89449  -4530923.14645  23760978.097    23760996.343
       215.000         157.000
 00  4 18  0  8 30.0000000  0  6G26G23G22G 6G17G21
  21726358.218    -6741294.25149  -5221110.15046  21726358.185    21726367.867
       233.000         187.000
  20930015.956   -11910188.70549  -9256928.96248  20930015.192    20930025.073
       244.000         213.000
  23777015.076    -6600394.72549  -5133117.57445  23777013.426    23777030.697
       213.000         155.000
  20972065.298     2438401.76349   1907447.12147  20972065.461    20972075.501
       240.000         203.000
  20788141.559    -4990478.63649  -3717598.36147  20788140.810    20788150.153
       243.000         212.000
  23746118.009    -6645643.35149  -4591775.58145  23746116.216    23746135.492
       214.000         157.000
 00  4 18  0  9  0.0000000  0  6G26G23G22G 6G17G21
  21730003.666    -6722137.18949  -5206182.54347  21730003.751    21730013.105
       232.000         188.000
  20924782.503   -11937690.40749  -9278358.79548  20924781.835    20924791.461
       244.000         213.000
  23779458.857    -6587552.34649  -5123110.55645  23779458.354    23779476.048
       213.000         155.000
  20983939.207     2500799.26349   1956068.47047  20983939.281    20983949.285
       240.000         203.000
  20786920.446    -4996895.59749  -3722598.57747  20786919.755    20786929.112
       243.000         212.000
  23731289.001    -6723568.74349  -4652496.27645  23731287.222    23731306.461
       214.000         157.000
 00  4 18  0  9 30.0000000  0  6G26G23G22G 6G17G21
  21733755.612    -6702420.39549  -5190818.78547  21733755.924    21733764.756
       233.000         188.000
  20919603.937   -11964903.68549  -9299563.88548  20919603.370    20919613.081
       244.000         213.000
  23781984.324    -6574281.56549  -5112769.72745  23781983.745    23781999.822
       215.000         155.000
  20995887.158     2563585.89449   2004993.03647  20995887.090    20995897.200
       239.000         203.000
  20785719.411    -5003207.13249  -3727516.64147  20785718.546    20785728.055
       243.000         212.000
  23716491.129    -6801330.61349  -4713089.55645  23716490.156    23716507.635
       214.000         157.000
 00  4 18  0 10  0.0000000  0  6G26G23G22G 6G17G21
  21737612.399    -6682152.67749  -5175025.73447  21737612.394    21737621.982
       233.000         188.000
  20914486.283   -11991796.88249  -9320519.55948  20914485.673    20914495.551
       244.000         213.000
  23784590.445    -6560586.73249  -5102098.46345  23784590.141    23784606.069
       215.000         155.000
  21007913.946     2626786.71849   2054240.34947  21007913.954    21007924.255
       240.000         202.000
  20784538.914    -5009410.59349  -3732350.49047  20784538.324    20784547.581
       242.000         212.000
  23701723.017    -6878936.08149  -4773560.98045  23701721.060    23701739.558
       215.000         157.000
 00  4 18  0 10 30.0000000  0  6G26G23G22G 6G17G21
  21741578.372    -6661311.39149  -5158785.75247  21741578.349    21741587.457
       233.000         188.000
  20909438.730   -12018321.83649  -9341188.29148  20909438.067    20909447.620
       244.000         213.000
  23787279.153    -6546457.45549  -5091088.68345  23787277.990    23787294.802
       213.000         155.000
  21020024.761     2690429.08649   2103831.72147  21020024.880    21020035.037
       239.000         202.000
  20783384.400    -5015477.49149  -3737077.92647  20783383.673    20783392.933
       243.000         212.000
  23686988.094    -6956366.86549  -4833896.29645  23686986.740    23687003.667
       216.000         158.000
 00  4 18  0 11  0.0000000  0  6G26G23G22G 6G17G21
  21745659.372    -6639865.49649  -5142074.63647  21745659.243    21745669.038
       233.000         188.000
  20904467.854   -12044443.90249  -9361543.08648  20904467.208    20904476.714
       245.000         213.000
  23790050.264    -6531895.07649  -5079741.41445  23790050.681    23790066.663
       214.000         155.000
  21032223.625     2754534.20549   2153783.68247  21032223.645    21032233.860
       240.000         202.000
  20782263.394    -5021368.27949  -3741668.13247  20782262.629    20782272.114
       243.000         212.000
  23672292.014    -7033593.53349  -4894072.55645  23672289.985    23672308.702
       216.000         159.000
 00  4 18  0 11 30.0000000  0  6G26G23G22G 6G17G21
  21749860.830    -6617786.73249  -5124870.38547  21749860.685    21749870.042
       233.000         188.000
  20899579.203   -12070133.79249  -9381561.11848  20899578.433    20899588.124
       244.000         213.000
  23792907.687    -6516879.88249  -5068041.28645  23792906.893    23792923.811
       214.000         155.000
  21044511.807     2819108.80849   2204101.47347  21044511.868    21044522.105
       239.000         202.000
  20781182.902    -5027046.23049  -3746092.49147  20781182.297    20781191.432
       243.000         212.000
  23657639.070    -7110593.99549  -4954072.55945  23657637.718    23657655.210
       218.000         160.000
 00  4 18  0 12  0.0000000  0  6G26G23G22G 6G17G21
  21754183.846    -6595069.18749  -5107168.37947  21754183.962    21754193.208
       233.000         188.000
  20894774.205   -12095383.94649  -9401236.49748  20894773.539    20894783.156
       245.000         213.000
  23795854.743    -6501392.99549  -5055973.62045  23795853.823    23795870.178
       212.000         154.000
  21056891.543     2884164.33249   2254794.00947  21056891.617    21056901.949
       239.000         202.000
  20780149.106    -5032478.82449  -3750325.66947  20780148.433    20780157.698
       243.000         212.000
  23643032.569    -7187350.38149  -5013882.37845  23643031.530    23643047.898
       217.000         160.000
 00  4 18  0 12 30.0000000  0  6G26G23G22G 6G17G21
  21758629.792    -6571705.66549  -5088963.01147  21758629.464    21758639.156
       233.000         189.000
  20890051.957   -12120199.25049  -9420573.02948  20890051.208    20890060.800
       245.000         213.000
  23798893.700    -6485423.01749  -5043529.51145  23798892.879    23798909.750
       213.000         154.000
  21069363.133     2949702.77849   2305862.84947  21069363.193    21069373.480
       239.000         201.000
  20779165.339    -5037648.60649  -3754354.05447  20779164.544    20779173.775
       243.000         212.000
  23628474.796    -7263850.72649  -5073492.68545  23628473.518    23628489.708
       217.000         160.000
 00  4 18  0 13  0.0000000  0  6G26G23G22G 6G17G21
  21763198.707    -6547695.75749  -5070253.97247  21763198.721    21763207.909
       234.000         189.000
  20885411.288   -12144585.84049  -9439575.49748  20885410.421    20885420.305
       244.000         213.000
  23802025.246    -6468966.65249  -5030706.42245  23802025.351    23802040.282
       216.000         155.000
  21081925.971     3015720.55849   2357305.19347  21081925.846    21081936.328
       239.000         201.000
  20778231.103    -5042558.04049  -3758179.57647  20778230.181    20778239.622
       243.000         212.000
  23613964.749    -7340100.29849  -5132907.58045  23613962.904    23613980.285
       217.000         160.000
 00  4 18  0 13 30.0000000  0  6G26G23G22G 6G17G21
  21767889.453    -6523045.47749  -5051045.93947  21767889.484    21767898.789
       234.000         189.000
  20880850.666   -12168551.72349  -9458250.14148  20880849.798    20880859.590
       245.000         213.000
  23805252.622    -6452008.06449  -5017491.99145  23805252.527    23805266.886
       215.000         155.000
  21094580.107     3082218.36649   2409121.58547  21094579.816    21094590.184
       239.000         201.000
  20777344.630    -5047216.36149  -3761809.42147  20777343.904    20777353.205
       243.000         212.000
  23599498.928    -7416117.15249  -5192141.12745  23599498.067    23599515.467
       219.000         161.000
 00  4 18  0 14  0.0000000  0  6G26G23G22G 6G17G21
  21772701.042    -6497760.32449  -5031343.20747  21772700.853    21772710.272
       234.000         189.000
  20876369.870   -12192098.12349  -9476597.91548  20876369.190    20876378.908
       245.000         213.000
  23808575.569    -6434546.30949  -5003885.47045  23808574.857    23808591.732
       214.000         154.000
  21107324.752     3149191.73549   2461308.54047  21107324.743    21107334.984
       240.000         201.000
  20776503.003    -5051639.11049  -3765255.70847  20776502.327    20776511.561
       243.000         212.000
  23585076.521    -7491905.91449  -5251196.96045  23585075.442    23585092.042
       217.000         161.000
 00  4 18  0 14 30.0000000  0  6G26G23G22G 6G17G21
  21777634.218    -6471836.30249  -5011142.65547  21777634.297    21777643.493
       233.000         189.000
  20871968.068   -12215229.51049  -9494622.30148  20871967.368    20871976.879
       244.000         214.000
  23811993.251    -6416586.13249  -4989890.58145  23811992.670    23812009.109
       215.000         154.000
  21120156.763     3216624.01049   2513853.08647  21120156.700    21120166.930
       238.000         201.000
  20775703.390    -5055841.02649  -3768529.91447  20775702.570    20775711.801
       243.000         212.000
  23570697.091    -7567468.98949  -5310076.92745  23570696.107    23570712.757
       217.000         161.000
 00  4 18  0 15  0.0000000  0  6G26G23G22G 6G17G21
  21782687.718    -6445279.86949  -4990449.32447  21782687.689    21782697.022
       234.000         189.000
  20867644.246   -12237951.01949  -9512327.30248  20867643.611    20867653.123
       244.000         214.000
  23815504.516    -6398135.12049  -4975513.21845  23815503.090    23815520.728
       213.000         154.000
  21133074.131     3284505.02649   2566747.29947  21133073.827    21133084.538
       239.000         201.000
  20774942.444    -5059839.75549  -3771645.79447  20774941.727    20774950.955
       243.000         212.000
  23556358.431    -7642817.64849  -5368789.82745  23556357.033    23556373.304
       218.000         162.000
 00  4 18  0 15 30.0000000  0  6G26G23G22G 6G17G21
  21787861.663    -6418090.64049  -4969262.90047  21787862.047    21787871.189
       233.000         189.000
  20863398.987   -12260259.74349  -9529710.65148  20863398.190    20863407.797
       245.000         214.000
  23819108.149    -6379196.63249  -4960756.03745  23819108.454    23819122.940
       216.000         153.000
  21146076.588     3352832.92249   2619989.73047  21146076.456    21146086.999
       239.000         201.000
  20774219.063    -5063641.10049  -3774607.87247  20774218.208    20774227.474
       244.000         212.000
  23542060.209    -7717953.82349  -5427337.14945  23542058.372    23542075.176
       217.000         162.000
 00  4 18  0 16  0.0000000  0  6G26G23G22G 6G17G21
  21793156.567    -6390265.71049  -4947581.12847  21793156.712    21793166.031
       234.000         189.000
  20859230.743   -12282163.90149  -9546778.75548  20859229.966    20859239.638
       244.000         214.000
  23822802.157    -6359785.19849  -4945630.28745  23822801.478    23822817.595
       215.000         153.000
  21159162.961     3421601.95749   2673575.90347  21159162.666    21159173.779
       239.000         201.000
  20773530.163    -5067261.35749  -3777428.84348  20773529.435    20773538.958
       244.000         213.000
  23527803.753    -7792870.67349  -5485713.57945  23527801.802    23527819.626
       218.000         162.000
 00  4 18  0 16 30.0000000  0  6G26G23G22G 6G17G21
  21798571.288    -6361811.05249  -4925408.66047  21798571.233    21798580.823
       233.000         189.000
  20855136.783   -12303677.45149  -9563542.49248  20855136.000    20855145.749
       244.000         214.000
  23826583.289    -6339915.52949  -4930147.49545  23826582.820    23826599.378
       215.000         153.000
  21172333.452     3490812.95649   2727506.46047  21172333.568    21172344.161
       239.000         200.000
  20772872.549    -5070717.20649  -3780121.70548  20772872.020    20772881.334
       244.000         213.000
  23513588.006    -7867573.42549  -5543923.18546  23513586.843    23513603.542
       218.000         163.000
 00  4 18  0 17  0.0000000  0  7G26G23G22G 3G 6G17G21
  21804100.461    -6332754.80749  -4902767.42747  21804100.275    21804109.625
       233.000         189.000
  20851113.043   -12324822.11849  -9580018.78948  20851112.245    20851121.879
       244.000         214.000
  23830448.751    -6319602.53649  -4914319.22045  23830447.175    23830464.370
       210.000         153.000
  24627145.160    -5467251.40149  -3275029.54045  24627143.893    24627161.701
       209.000         141.000
  21185585.604     3560453.08749   2781771.40547  21185585.684    21185596.300
       239.000         200.000
  20772244.596    -5074017.08349  -3782693.02948  20772243.895    20772253.194
       243.000         213.000
  23499409.735    -7942079.32949  -5601979.41846  23499408.398    23499425.899
       220.000         164.000
 00  4 18  0 17 30.0000000  0  7G26G23G22G 3G 6G17G21
  21809742.072    -6303108.03449  -4879666.04047  21809742.100    21809751.018
       234.000         189.000
  20847156.841   -12345611.82749  -9596218.49948  20847156.094    20847165.642
       244.000         214.000
  23834396.798    -6298855.42649  -4898152.72345  23834396.880    23834412.507
       216.000         153.000
  24607623.077    -5569839.82449  -3354968.38145  24607622.667    24607638.251
       207.000         142.000
  21198919.213     3630521.10849   2836369.76847  21198919.403    21198929.912
       239.000         200.000
  20771646.757    -5077158.65449  -3785140.99748  20771646.049    20771655.227
       244.000         213.000
  23485270.448    -8016380.55949  -5659876.16546  23485268.597    23485285.569
       219.000         164.000
 00  4 18  0 18  0.0000000  0  7G26G23G22G 3G 6G17G21
  21815494.960    -6272876.07949  -4856108.66247  21815494.997    21815504.303
       234.000         189.000
  20843268.995   -12366042.00349  -9612138.05348  20843268.296    20843277.874
       244.000         214.000
  23838429.296    -6277665.25549  -4881640.93845  23838428.399    23838445.085
       212.000         152.000
  24588119.191    -5672332.48949  -3434832.59045  24588118.680    24588135.086
       206.000         140.000
  21212337.295     3701033.20349   2891314.15547  21212337.454    21212347.872
       239.000         200.000
  20771082.958    -5080121.39349  -3787449.61848  20771082.289    20771091.536
       243.000         213.000
  23471174.336    -8090454.70049  -5717595.99546  23471173.045    23471189.412
       219.000         165.000
 00  4 18  0 18 30.0000000  0  7G26G23G22G 3G 6G17G21
  21821356.226    -6242074.87949  -4832107.72147  21821356.149    21821365.762
       234.000         189.000
  20839448.520   -12386118.58749  -9627782.08448  20839447.860    20839457.251
       244.000         214.000
  23842546.180    -6256029.98549  -4864782.35845  23842545.359    23842561.413
       214.000         151.000
  24568633.893    -5774728.22949  -3514621.24445  24568632.709    24568650.837
       207.000         144.000
  21225838.146     3771980.25349   2946597.46947  21225838.188    21225848.752
       239.000         199.000
  20770557.780    -5082881.12149  -3789600.04748  20770557.172    20770566.443
       244.000         213.000
  23457122.433    -8164296.66049  -5775134.89646  23457120.693    23457137.865
       219.000         165.000
 00  4 18  0 19  0.0000000  0  7G26G23G22G 3G 6G17G21
  21827326.137    -6210702.75549  -4807661.90047  21827326.276    21827335.151
       234.000         189.000
  20835695.198   -12405842.13049  -9643151.02548  20835694.639    20835703.984
       244.000         214.000
  23846749.739    -6233941.13849  -4847570.33245  23846750.158    23846765.563
       215.000         153.000
  24549169.902    -5877011.00949  -3594321.93145  24549167.905    24549185.526
       205.000         139.000
  21239420.522     3843355.84449   3002214.71047  21239420.405    21239431.240
       238.000         199.000
  20770074.916    -5085418.49649  -3791577.21348  20770074.237    20770083.763
       244.000         213.000
  23443114.510    -8237907.35349  -5832493.60746  23443113.490    23443129.400
       220.000         166.000
 00  4 18  0 19 30.0000000  0  7G26G23G22G 3G 6G17G21
  21833408.157    -6178741.52349  -4782757.03547  21833408.136    21833417.633
       234.000         189.000
  20832010.713   -12425204.01849  -9658238.15948  20832009.920    20832019.361
       244.000         214.000
  23851038.422    -6211405.58849  -4830010.23145  23851037.970    23851053.865
       213.000         153.000
  24529729.884    -5979168.14949  -3673924.70745  24529729.272    24529745.838
       205.000         143.000
  21253082.476     3915149.64349   3058157.82847  21253082.517    21253093.434
       239.000         199.000
  20769633.223    -5087739.69949  -3793385.93548  20769632.553    20769641.641
       244.000         213.000
  23429150.878    -8311285.88649  -5889671.41246  23429149.517    23429166.275
       219.000         166.000
 00  4 18  0 20  0.0000000  0  7G26G23G22G 3G 6G17G21
  21839604.632    -6146178.47849  -4757383.22647  21839604.516    21839614.349
       234.000         189.000
  20828395.304   -12444202.83249  -9673042.37848  20828394.632    20828404.136
       244.000         213.000
  23855410.870    -6188426.76349  -4812104.72245  23855411.133    23855426.161
       216.000         153.000
  24510313.661    -6081200.50449  -3753430.22045  24510311.055    24510329.285
       205.000         142.000
  21266821.818     3987349.69949   3114417.50347  21266821.706    21266832.977
       238.000         199.000
  20769232.519    -5089845.48349  -3795026.79848  20769231.610    20769241.019
       244.000         213.000
  23415230.652    -8384435.88649  -5946671.14946  23415229.344    23415245.835
       219.000         166.000
 00  4 18  0 20 30.0000000  0  7G26G23G22G 3G 6G17G21
  21845919.415    -6112994.16349  -4731525.31247  21845919.435    21845928.712
       234.000         189.000
  20824849.154   -12462837.70349  -9687563.00848  20824848.447    20824857.971
       244.000         213.000
  23859869.789    -6164996.96349  -4793847.81145  23859869.886    23859886.561
       215.000         154.000
  24490920.419    -6183111.35049  -3832841.06545  24490919.669    24490936.553
       210.000         140.000
  21280637.130     4059949.28849   3170988.50747  21280637.221    21280648.074
       238.000         198.000
  20768870.090    -5091750.11749  -3796510.92048  20768869.401    20768878.592
       244.000         213.000
  23401349.934    -8457378.56949  -6003509.35446  23401348.923    23401365.308
       219.000         167.000
 00  4 18  0 21  0.0000000  0  7G26G23G22G 3G 6G17G21
  21852353.831    -6079180.94349  -4705177.33747  21852354.180    21852363.689
       234.000         189.000
  20821372.279   -12481108.51649  -9701799.95748  20821371.514    20821381.189
       244.000         213.000
  23864412.126    -6141127.29449  -4775248.13545  23864410.153    23864428.590
       213.000         154.000
  24471551.950    -6284892.50549  -3912150.91045  24471551.637    24471568.275
       200.000         141.000
  21294528.178     4132946.76849   3227869.55847  21294528.075    21294539.032
       238.000         198.000
  20768541.791    -5093475.41049  -3797855.29548  20768541.038    20768550.302
       244.000         213.000
  23387504.162    -8530137.67249  -6060204.51046  23387502.259    23387519.056
       222.000         167.000
 00  4 18  0 21 30.0000000  0  7G26G23G22G 3G 6G17G21
  21858906.455    -6044746.52749  -4678345.31647  21858905.934    21858915.714
       235.000         189.000
  20817964.770   -12499014.99649  -9715753.01348  20817964.193    20817973.553
       244.000         214.000
  23869035.486    -6116829.53349  -4756314.90345  23869034.032    23869051.695
       214.000         154.000
  24452207.133    -6386549.36549  -3991363.79445  24452207.439    24452223.846
       212.000         144.000
  21308495.551     4206345.38149   3285063.18047  21308495.765    21308506.390
       238.000         198.000
  20768245.338    -5095033.06649  -3799069.04648  20768244.753    20768254.095
       244.000         213.000
  23373694.086    -8602709.20849  -6116753.50046  23373693.669    23373709.879
       222.000         168.000
 00  4 18  0 22  0.0000000  0  7G26G23G22G 3G 6G17G21
  21865572.727    -6009715.06249  -4651048.06047  21865573.079    21865582.594
       235.000         189.000
  20814625.660   -12516561.95849  -9729425.92648  20814624.715    20814634.264
       244.000         214.000
  23873740.413    -6092106.46049  -4737050.23545  23873740.683    23873754.375
       215.000         155.000
  24432886.839    -6488078.14949  -4070476.97445  24432885.395    24432902.200
       205.000         141.000
  21322541.606     4280157.55149   3342579.05047  21322541.762    21322552.624
       238.000         197.000
  20767979.391    -5096430.63049  -3800158.05348  20767978.658    20767987.983
       244.000         213.000
  23359920.004    -8675091.31049  -6173154.87646  23359919.075    23359935.016
       220.000         168.000
 00  4 18  0 22 30.0000000  0  7G26G23G22G 3G 6G17G21
  21872348.004    -5974110.90149  -4623304.55247  21872348.178    21872357.531
       235.000         190.000
  20811356.731   -12533740.06449  -9742811.41948  20811356.258    20811365.517
       244.000         214.000
  23878527.079    -6066952.40049  -4717449.73445  23878525.641    23878542.935
       211.000         153.000
  24413591.256    -6589475.56849  -4149487.77045  24413589.793    24413606.067
       205.000         140.000
  21336666.778     4354385.27949   3400418.73747  21336666.843    21336677.817
       237.000         197.000
  20767746.556    -5097654.12149  -3801111.41548  20767745.899    20767755.214
       244.000         213.000
  23346183.849    -8747274.31349  -6229401.10046  23346182.794    23346198.873
       221.000         169.000
 00  4 18  0 23  0.0000000  0  7G26G23G22G 3G 6G17G21
  21879232.582    -5937932.21949  -4595113.36247  21879232.433    21879242.238
       235.000         189.000
  20808160.245   -12550537.71049  -9755900.44848  20808159.631    20808168.959
       245.000         214.000
  23883393.803    -6041376.64949  -4697520.67845  23883393.161    23883411.376
       215.000         154.000
  24394322.900    -6690730.76949  -4228387.69145  24394323.181    24394339.507
       211.000         145.000
  21350870.474     4429025.68949   3458579.98447  21350870.470    21350881.335
       237.000         197.000
  20767552.990    -5098671.25849  -3801903.98548  20767552.203    20767561.756
       244.000         213.000
  23332492.997    -8819219.20849  -6285461.77546  23332491.063    23332507.728
       222.000         169.000
 00  4 18  0 23 30.0000000  0  7G26G23G22G 3G 6G17G21
  21886225.982    -5901181.72649  -4566476.60547  21886225.901    21886235.563
       235.000         189.000
  20805037.328   -12566948.57249  -9768688.08748  20805036.753    20805046.089
       245.000         214.000
  23888342.947    -6015369.40449  -4677255.37845  23888343.364    23888359.019
       212.000         154.000
  24375081.745    -6791843.02049  -4307176.26145  24375079.384    24375096.750
       203.000         142.000
  21365154.736     4504089.56749   3517071.20947  21365154.621    21365165.650
       237.000         196.000
  20767402.010    -5099464.60849  -3802522.17448  20767401.317    20767410.641
       244.000         213.000
  23318852.862    -8890897.77949  -6341314.93046  23318850.985    23318868.072
       222.000         170.000
 00  4 18  0 24  0.0000000  0  7G26G23G22G 3G 6G17G21
  21893329.903    -5863850.32249  -4537387.19547  21893329.963    21893339.257
       235.000         189.000
  20801990.187   -12582961.37849  -9781165.55048  20801989.512    20801998.819
       245.000         214.000
  23893375.674    -5988923.57249  -4656648.32645  23893375.380    23893393.105
       214.000         154.000
  24355867.335    -6892813.94849  -4385854.70245  24355866.674    24355883.139
       210.000         141.000
  21379520.031     4579579.57349   3575894.48147  21379520.196    21379530.965
       237.000         196.000
  20767297.951    -5100011.49349  -3802948.31348  20767297.229    20767306.582
       244.000         213.000
  23305263.215    -8962310.68349  -6396961.07246  23305261.933    23305277.759
       221.000         170.000
 00  4 18  0 24 30.0000000  0  7G26G23G22G 3G 6G17G21
  21900550.303    -5825906.64449  -4507820.69947  21900550.404    21900559.770
       235.000         189.000
  20799020.740   -12598565.77249  -9793324.76948  20799019.948    20799029.344
       245.000         214.000
  23898491.645    -5962038.52449  -4635699.02945  23898490.559    23898507.451
       212.000         154.000
  24336679.275    -6993647.73449  -4464426.26645  24336678.878    24336694.255
       208.000         144.000
  21393967.547     4655501.48449   3635054.30347  21393967.764    21393978.522
       236.000         195.000
  20767243.541    -5100297.35849  -3803171.06048  20767242.907    20767252.239
       244.000         213.000
  23291725.226    -9033452.00749  -6452395.57746  23291724.415    23291739.241
       222.000         170.000
 00  4 18  0 25  0.0000000  0  7G26G23G22G 3G 6G17G21
  21907892.376    -5787323.94849  -4477756.26447  21907892.681    21907902.220
       235.000         189.000
  20796127.126   -12613771.49549  -9805173.33748  20796126.321    20796135.809
       245.000         214.000
  23903689.388    -5934724.05149  -4614415.13545  23903688.901    23903705.428
       213.000         153.000
  24317517.997    -7094339.41549  -4542887.06345  24317517.013    24317534.254
       210.000         141.000
  21408499.048     4731864.66049   3694557.96247  21408499.244    21408509.943
       237.000         195.000
  20767235.034    -5100342.13549  -3803205.94648  20767234.393    20767243.404
       244.000         213.000
  23278236.309    -9104335.75349  -6507629.38846  23278234.743    23278250.483
       222.000         170.000
 00  4 18  0 25 30.0000000  0  7G26G23G22G 3G 6G17G21
  21915352.663    -5748119.70749  -4447207.50547  21915352.867    21915362.152
       235.000         189.000
  20793307.002   -12628591.24149  -9816721.14448  20793306.533    20793315.824
       245.000         214.000
  23908969.255    -5906979.73749  -4592796.26845  23908969.655    23908985.862
       216.000         154.000
  24298383.150    -7194894.47149  -4621241.46345  24298382.130    24298399.382
       205.000         145.000
  21423114.782     4808670.31449   3754406.41547  21423114.846    21423126.083
       237.000         195.000
  20767267.689    -5100170.38749  -3803072.11348  20767266.920    20767276.282
       244.000         213.000
  23264792.695    -9174981.47449  -6562677.72746  23264791.720    23264806.789
       222.000         171.000
 00  4 18  0 26  0.0000000  0  7G26G23G22G 3G 6G17G21
  21922931.452    -5708292.64349  -4416173.43047  21922931.051    21922940.716
       235.000         189.000
  20790559.056   -12643031.55149  -9827973.28848  20790558.246    20790567.718
       245.000         215.000
  23914329.834    -5878810.84849  -4570846.57245  23914328.265    23914344.959
       213.000         152.000
  24279275.622    -7295303.12849  -4699481.67545  24279274.138    24279290.705
       207.000         142.000
  21437810.600     4885896.96749   3814582.91647  21437810.523    21437821.791
       236.000         195.000
  20767338.192    -5099799.94249  -3802783.45348  20767337.671    20767346.732
       244.000         213.000
  23251391.463    -9245404.21749  -6617552.31546  23251390.487    23251405.555
       222.000         171.000
 00  4 18  0 26 30.0000000  0  7G26G23G22G 3G 6G17G21
  21930626.183    -5667856.43049  -4384664.69947  21930625.974    21930635.276
       235.000         189.000
  20787879.367   -12657113.29849  -9838946.03248  20787878.521    20787888.044
       245.000         214.000
  23919770.281    -5850220.70349  -4548568.65045  23919770.188    23919786.392
       214.000         152.000
  24260198.336    -7395554.32549  -4777599.26445  24260198.194    24260213.810
       211.000         142.000
  21452582.429     4963522.93149   3875070.57447  21452582.316    21452593.454
       236.000         194.000
  20767445.188    -5099237.63649  -3802345.29148  20767444.517    20767453.767
       244.000         213.000
  23238032.738    -9315604.02349  -6672253.19546  23238031.526    23238046.629
       223.000         171.000
 00  4 18  0 27  0.0000000  0  7G26G23G22G 3G 6G17G21
  21938432.017    -5626836.47149  -4352701.10047  21938432.060    21938441.485
       236.000         189.000
  20785265.720   -12670847.84549  -9849648.23448  20785265.020    20785274.245
       245.000         215.000
  23925292.072    -5821204.70349  -4525958.87245  23925291.435    23925307.345
       214.000         153.000
  24241151.753    -7495644.16549  -4855591.12045  24241148.752    24241166.802
       203.000         142.000
  21467426.509     5041528.80749   3935854.26647  21467426.480    21467437.534
       236.000         194.000
  20767589.414    -5098479.66649  -3801754.66348  20767588.717    20767597.896
       244.000         213.000
  23224714.576    -9385590.37949  -6726787.76646  23224713.875    23224728.680
       223.000         171.000
 00  4 18  0 27 30.0000000  0  7G26G23G22G 3G 6G17G21
  21946346.077    -5585247.88949  -4320294.41547  21946346.281    21946355.813
       235.000         189.000
  20782718.617   -12684232.84449  -9860078.06648  20782718.074    20782727.401
       245.000         215.000
  23930895.867    -5791757.68349  -4503013.22545  23930894.437    23930911.216
       208.000         152.000
  24222135.986    -7595571.47549  -4933456.26745  24222136.664    24222152.612
       207.000         144.000
  21482340.674     5119902.96949   3996924.93047  21482341.005    21482351.770
       235.000         194.000
  20767773.086    -5097514.44649  -3801002.53748  20767772.220    20767781.657
       244.000         213.000
  23211438.492    -9455355.79249  -6781150.17246  23211436.877    23211452.365
       224.000         170.000
 00  4 18  0 28  0.0000000  0  7G26G23G22G 3G 6G17G21
  21954371.264    -5543075.33249  -4287432.69647  21954371.365    21954380.832
       235.000         189.000
  20780240.883   -12697253.17149  -9870223.73648  20780240.229    20780249.491
       245.000         215.000
  23936581.501    -5761877.92649  -4479730.42045  23936580.120    23936596.922
       211.000         152.000
  24203152.566    -7695328.83449  -5011189.04645  24203150.957    24203166.650
       209.000         141.000
  21497325.146     5198646.41749   4058283.35447  21497325.112    21497336.389
       235.000         193.000
  20767998.340    -5096330.73849  -3800080.16247  20767997.634    20768006.882
       244.000         212.000
  23198202.338    -9524911.12649  -6835348.90146  23198201.489    23198216.644
       224.000         170.000
 00  4 18  0 28 30.0000000  0  7G26G23G22G 3G 6G17G21
  21962508.246    -5500315.04849  -4254113.00547  21962508.482    21962518.054
       235.000         189.000
  20777834.128   -12709900.69849  -9880078.91748  20777833.555    20777842.872
       245.000         215.000
  23942349.088    -5731568.75549  -4456113.00145  23942348.667    23942365.441
       211.000         152.000
  24184201.387    -7794916.80649  -5088789.80745  24184200.956    24184216.911
       212.000         144.000
  21512383.536     5277778.46649   4119944.57747  21512383.417    21512394.628
       235.000         193.000
  20768267.047    -5094918.54049  -3798979.74747  20768266.338    20768275.600
       244.000         212.000
  23185007.353    -9594250.25349  -6889379.14446  23185005.794    23185021.309
       224.000         170.000
 00  4 18  0 29  0.0000000  0  7G26G23G22G 3G 6G17G21
  21970759.330    -5456955.60349  -4220326.44047  21970759.640    21970768.307
       235.000         189.000
  20775500.105   -12722166.05549  -9889636.30348  20775499.581    20775508.835
       245.000         215.000
  23948196.878    -5700839.98349  -4432168.59545  23948196.299    23948212.746
       214.000         154.000
  24165283.202    -7894331.91749  -5166255.88345  24165281.144    24165296.526
       204.000         143.000
  21527520.326     5357322.54549   4181926.86247  21527520.418    21527531.541
       234.000         193.000
  20768575.727    -5093296.42449  -3797715.75647  20768575.005    20768584.356
       244.000         212.000
  23171853.425    -9663373.46649  -6943241.15946  23171852.430    23171867.387
       221.000         170.000
 00  4 18  0 29 30.0000000  0  7G26G23G22G 3G 6G17G21
  21979123.249    -5413002.81749  -4186077.51547  21979122.830    21979132.817
       235.000         189.000
  20773239.132   -12734047.49849  -9898894.53548  20773238.516    20773247.711
       245.000         215.000
  23954121.641    -5669705.77849  -4407908.30245  23954119.988    23954139.042
       210.000         153.000
  24146400.036    -7993562.05749  -5243577.84245  24146399.316    24146416.075
       211.000         144.000
  21542735.864     5437280.25649   4244231.46047  21542735.754    21542747.194
       235.000         192.000
  20768921.959    -5091476.95749  -3796297.98647  20768921.385    20768930.536
       244.000         212.000
  23158741.288    -9732277.23649  -6996932.16946  23158740.258    23158754.988
       221.000         170.000
 00  4 18  0 30  0.0000000  0  7G26G23G22G 3G 6G17G21
  21987598.444    -5368465.47749  -4151373.09747  21987598.652    21987608.030
       235.000         188.000
  20771052.123   -12745540.07149  -9907849.75248  20771051.320    20771060.600
       245.000         215.000
  23960121.447    -5638175.35449  -4383339.25345  23960121.473    23960137.882
       212.000         152.000
  24127552.818    -8092604.76049  -5320753.73445  24127552.683    24127568.063
       207.000         145.000
  21558031.516     5517659.22349   4306864.30647  21558031.435    21558042.235
       235.000         192.000
  20769306.683    -5089455.17449  -3794722.57047  20769306.019    20769315.142
       244.000         212.000
  23145672.229    -9800954.45949  -7050446.66646  23145671.585    23145685.654
       223.000         170.000
 00  4 18  0 30 30.0000000  0  7G26G23G22G 3G 6G17G21
  21996181.242    -5323362.47949  -4116227.91547  21996181.500    21996190.992
       235.000         188.000
  20768937.395   -12756652.86149  -9916509.03448  20768936.824    20768945.879
       245.000         215.000
  23966196.907    -5606250.48249  -4358462.84045  23966197.277    23966212.544
       213.000         153.000
  24108741.986    -8191455.01049  -5397779.65445  24108741.126    24108756.125
       213.000         145.000
  21573407.300     5598458.87149   4369824.95247  21573407.191    21573418.583
       234.000         192.000
  20769731.873    -5087220.81349  -3792981.50947  20769731.244    20769740.382
       244.000         212.000
  23132651.528    -9869377.71949  -7103763.25746  23132650.639    23132664.990
       222.000         170.000
 00  4 18  0 31  0.0000000  0  7G26G23G22G 3G 6G17G21
  22004870.004    -5277702.89649  -4080649.03947  22004869.966    22004879.581
       234.000         188.000
  20766894.352   -12767389.10749  -9924874.90648  20766893.649    20766902.848
       245.000         215.000
  23972349.770    -5573918.25749  -4333269.00245  23972348.419    23972365.359
       209.000         152.000
  24089968.957    -8290106.88849  -5474651.00045  24089967.612    24089984.052
       210.000         146.000
  21588861.027     5679668.19849   4433104.82647  21588860.833    21588872.246
       235.000         191.000
  20770200.859    -5084756.35349  -3791061.14947  20770200.240    20770209.380
       244.000         212.000
  23119679.110    -9937547.36449  -7156882.21946  23119677.960    23119692.615
       223.000         170.000
 00  4 18  0 31 30.0000000  0  7G26G23G22G 3G 6G17G21
  22013665.339    -5231483.25749  -4044633.74247  22013665.337    22013674.765
       234.000         188.000
  20764925.546   -12777735.09049  -9932936.67548  20764924.822    20764934.049
       245.000         215.000
  23978584.684    -5541151.74549  -4307736.79445  23978583.712    23978601.836
       210.000         151.000
  24071232.651    -8388566.25849  -5551372.35645  24071231.783    24071247.504
       212.000         146.000
  21604389.765     5761271.78449   4496691.91647  21604389.662    21604400.994
       234.000         191.000
  20770718.111    -5082038.34649  -3788943.22447  20770717.382    20770726.743
       244.000         212.000
  23106755.694   -10005459.33849  -7209800.39646  23106754.207    23106769.030
       223.000         170.000
 00  4 18  0 32  0.0000000  0  7G26G23G22G 3G 6G17G21
  22022570.941    -5184683.91849  -4008166.74047  22022571.031    22022580.829
       234.000         188.000
  20763030.196   -12787694.89449  -9940697.52248  20763029.534    20763038.741
       245.000         215.000
  23984904.996    -5507939.32449  -4281857.12645  23984904.566    23984923.319
       212.000         154.000
  24052531.078    -8486842.87149  -5627951.30745  24052530.370    24052545.688
       209.000         147.000
  21619995.186     5843278.28749   4560592.96347  21619995.089    21620006.649
       235.000         191.000
  20771286.285    -5079052.57949  -3786616.65047  20771285.548    20771294.799
       244.000         212.000
  23093881.376   -10073113.80249  -7262517.91546  23093880.129    23093894.498
       223.000         170.000
 00  4 18  0 32 30.0000000  0  7G26G23G22G 3G 6G17G21
  22031589.885    -5137289.05149  -3971235.68746  22031589.838    22031599.613
       233.000         187.000
  20761205.995   -12797281.00249  -9948167.18248  20761205.387    20761214.526
       245.000         215.000
  23991312.421    -5474270.71049  -4255621.95945  23991310.771    23991328.387
       210.000         153.000
  24033865.169    -8584931.35849  -5704383.64245  24033864.422    24033878.832
       215.000         147.000
  21635675.290     5925677.24449   4624799.82147  21635675.643    21635687.047
       234.000         190.000
  20771903.519    -5075809.09149  -3784089.25647  20771902.821    20771912.107
       244.000         212.000
  23081051.822   -10140532.70249  -7315051.87646  23081050.901    23081064.534
       224.000         171.000
 00  4 18  0 33  0.0000000  0  7G26G23G22G 3G 6G17G21
  22040723.049    -5089293.93649  -3933836.90346  22040723.255    22040732.585
       233.000         187.000
  20759450.861   -12806504.16549  -9955354.02448  20759450.132    20759459.278
       245.000         215.000
  23997806.061    -5440147.05449  -4229032.23845  23997805.265    23997822.221
       211.000         154.000
  24015232.735    -8682844.74749  -5780679.56745  24015231.541    24015247.632
       215.000         147.000
  21651428.757     6008461.76949   4689307.11547  21651429.197    21651440.233
       234.000         190.000
  20772564.919    -5072333.27849  -3781380.82947  20772564.253    20772573.258
       244.000         212.000
  23068261.720   -10207744.20249  -7367424.22346  23068259.926    23068275.082
       224.000         171.000
 00  4 18  0 33 30.0000000  0  7G26G23G22G 3G 6G17G21
  22049969.430    -5040704.18949  -3895974.77546  22049969.514    22049978.682
       233.000         187.000
  20757762.357   -12815377.06749  -9962267.93948  20757761.581    20757770.968
       245.000         215.000
  24004381.068    -5405596.25449  -4202109.67945  24004381.063    24004398.170
       214.000         154.000
  23996631.927    -8780592.49049  -5856846.39745  23996631.038    23996646.824
       209.000         150.000
  21667256.438     6091636.22949   4754118.25847  21667256.620    21667267.980
       234.000         190.000
  20773265.623    -5068650.98249  -3778511.50347  20773264.928    20773274.015
       244.000         212.000
  23055510.500   -10274751.36049  -7419637.35246  23055509.153    23055523.590
       224.000         172.000
 00  4 18  0 34  0.0000000  0  7G26G23G22G 3G 6G17G21
  22059324.627    -4991542.33449  -3857666.85446  22059324.927    22059333.892
       233.000         187.000
  20756135.681   -12823925.26349  -9968928.83748  20756134.967    20756144.322
       245.000         215.000
  24011029.593    -5370659.47949  -4174886.37045  24011029.380    24011046.764
       212.000         154.000
  23978063.241    -8878169.66149  -5932880.32745  23978062.643    23978075.905
       212.000         146.000
  21683158.671     6175202.50849   4819234.71247  21683158.991    21683170.206
       234.000         190.000
  20774003.212    -5064774.94149  -3775491.21147  20774002.238    20774011.704
       244.000         212.000
  23042796.025   -10341565.37849  -7471699.97546  23042794.415    23042809.386
       225.000         172.000
 00  4 18  0 34 30.0000000  0  7G26G23G22G 3G 6G17G21
  22068784.519    -4941830.14049  -3818930.09946  22068784.458    22068794.364
       232.000         187.000
  20754570.599   -12832149.80749  -9975337.54248  20754569.900    20754579.205
       245.000         215.000
  24017748.418    -5335350.53549  -4147373.02945  24017746.740    24017765.030
       210.000         152.000
  23959528.675    -8975569.41349  -6008776.00545  23959527.374    23959544.149
       214.000         151.000
  21699133.923     6259152.24749   4884649.95947  21699134.002    21699145.313
       234.000         190.000
  20774775.415    -5060716.78449  -3772329.00847  20774774.593    20774783.971
       243.000         212.000
  23030118.942   -10408182.44949  -7523609.14646  23030117.511    23030132.263
       224.000         173.000
 00  4 18  0 35  0.0000000  0  7G26G23G22G 3G 6G17G21
  22078346.112    -4891583.63549  -3779776.98846  22078346.039    22078355.068
       232.000         186.000
  20753067.866   -12840046.63649  -9981490.88648  20753067.280    20753076.373
       245.000         215.000
  24024533.853    -5299692.51049  -4119587.69645  24024534.191    24024550.282
       213.000         152.000
  23941026.709    -9072795.51349  -6084536.30145  23941025.413    23941040.060
       214.000         149.000
  21715181.182     6343480.76449   4950360.35247  21715181.353    21715192.445
       233.000         189.000
  20775582.222    -5056476.78649  -3769025.10947  20775581.484    20775590.577
       244.000         212.000
  23017484.843   -10474573.93749  -7575342.52446  23017483.148    23017498.176
       226.000         173.000
 00  4 18  0 35 30.0000000  0  7G26G23G22G 3G 6G17G21
  22088008.704    -4840806.44149  -3740210.35946  22088008.560    22088017.993
       232.000         186.000
  20751627.762   -12847614.18349  -9987387.64748  20751627.137    20751636.071
       245.000         214.000
  24031383.839    -5263697.15349  -4091539.49745  24031383.489    24031400.676
       213.000         153.000
  23922561.590    -9169830.13349  -6160147.52145  23922560.326    23922576.407
       214.000         149.000
  21731299.466     6428182.32649   5016361.43447  21731299.335    21731310.866
       233.000         189.000
  20776427.317    -5052035.73649  -3765564.54647  20776426.779    20776435.879
       244.000         212.000
  23004898.492   -10540714.61549  -7626880.46946  23004897.951    23004911.642
       225.000         173.000
 00  4 18  0 36  0.0000000  0  8G26G23G22G 3G29G 6G17G21
  22097764.559    -4789539.16149  -3700261.84946  22097765.096    22097774.304
       232.000         185.000
  20750243.772   -12854886.84449  -9993054.62848  20750243.146    20750252.187
       245.000         214.000
  24038293.046    -5227388.98649  -4063247.57945  24038291.457    24038309.783
       211.000         152.000
  23904130.613    -9266684.43449  -6235618.10945  23904130.465    23904144.611
       215.000         151.000
  24445283.711    -1975074.97049  -1197937.65345  24445282.623    24445307.070
       203.000         134.000
  21747478.068     6513201.03749   5082609.63447  21747478.294    21747490.060
       232.000         189.000
  20777306.323    -5047416.60749  -3761965.21947  20777305.471    20777314.796
       243.000         212.000
  22992356.782   -10606620.84049  -7678235.73746  22992356.343    22992369.467
       226.000         174.000
 00  4 18  0 36 30.0000000  0  8G26G23G22G 3G29G 6G17G21
  22107624.354    -4737725.78849  -3659887.81146  22107624.310    22107633.553
       232.000         185.000
  20748925.065   -12861816.75749  -9998454.53448  20748924.449    20748933.508
       245.000         214.000
  24045272.506    -5190712.32149  -4034668.51645  24045271.795    24045288.252
       213.000         152.000
  23885744.043    -9363305.83649  -6310907.29745  23885743.324    23885758.458
       210.000         152.000
  24424641.246    -2083549.76849  -1282462.85145  24424639.274    24424662.854
       196.000         134.000
  21763724.516     6598576.23849   5149135.62347  21763724.977    21763736.342
       233.000         189.000
  20778226.782    -5042579.55449  -3758196.08347  20778226.043    20778235.133
       244.000         212.000
  22979871.179   -10672232.12749  -7729361.16946  22979870.137    22979883.896
       226.000         174.000
 00  4 18  0 37  0.0000000  0  8G26G23G22G 3G29G 6G17G21
  22117590.025    -4685355.87949  -3619080.11346  22117590.311    22117599.848
       232.000         185.000
  20747672.916   -12868396.70849 -10003581.74048  20747672.275    20747681.499
       245.000         214.000
  24052321.500    -5153671.24149  -4005805.45145  24052320.725    24052337.298
       213.000         152.000
  23867401.089    -9459697.59749  -6386017.51845  23867400.672    23867415.350
       212.000         151.000
  24403997.614    -2192030.52249  -1366992.71045  24403995.416    24404021.128
       204.000         132.000
  21780040.112     6684314.62449   5215944.60947  21780039.802    21780052.089
       233.000         189.000
  20779191.854    -5037507.97349  -3754244.19647  20779191.165    20779200.381
       244.000         212.000
  22967441.514   -10737549.62849  -7780257.68146  22967440.112    22967454.020
       225.000         175.000
 00  4 18  0 37 30.0000000  0  8G26G23G22G 3G29G 6G17G21
  22127662.031    -4632427.34849  -3577837.13046  22127662.168    22127671.586
       231.000         185.000
  20746486.108   -12874633.26749 -10008441.36848  20746485.367    20746494.534
       244.000         214.000
  24059440.121    -5116260.96349  -3976654.74945  24059438.847    24059457.541
       212.000         151.000
  23849102.435    -9555856.88749  -6460946.57145  23849100.801    23849115.662
       214.000         152.000
  24383353.063    -2300516.41449  -1451526.55945  24383353.326    24383375.645
       197.000         134.000
  21796424.768     6770416.00849   5283036.44047  21796424.869    21796436.634
       233.000         189.000
  20780205.212    -5032182.83549  -3750094.73047  20780204.464    20780213.636
       244.000         212.000
  22955061.687   -10802604.93249  -7830949.88446  22955059.913    22955074.694
       224.000         175.000
 00  4 18  0 38  0.0000000  0  8G26G23G22G 3G29G 6G17G21
  22137840.931    -4578936.74149  -3536156.15746  22137840.872    22137850.386
       231.000         184.000
  20745364.745   -12880525.73649 -10013032.87148  20745364.143    20745373.260
       245.000         214.000
  24066628.639    -5078485.46049  -3947219.45445  24066628.860    24066646.061
       214.000         152.000
  23830843.982    -9651804.64049  -6535710.80945  23830843.320    23830856.966
       217.000         153.000
  24362705.241    -2409018.68549  -1536073.16845  24362703.351    24362728.021
       206.000         135.000
  21812877.207     6856873.53749   5350405.79547  21812877.209    21812889.372
       233.000         188.000
  20781264.448    -5026616.46549  -3745757.29447  20781263.691    20781273.183
       243.000         212.000
  22942724.940   -10867434.03449  -7881465.82846  22942724.592    22942737.553
       226.000         175.000
 00  4 18  0 38 30.0000000  0  8G26G23G22G 3G29G 6G17G21
  22148127.742    -4524879.30149  -3494033.49446  22148127.650    22148136.730
       231.000         184.000
  20744308.971   -12886073.88449 -10017356.07348  20744308.334    20744317.353
       245.000         214.000
  24073886.341    -5040348.30549  -3917502.31145  24073884.646    24073901.516
       212.000         151.000
  23812618.840    -9747577.66649  -6610338.92345  23812617.828    23812632.627
       216.000         153.000
  24342055.503    -2517531.45549  -1620627.97245  24342054.067    24342077.405
       204.000         137.000
  21829397.859     6943689.64249   5418054.56347  21829397.992    21829409.382
       233.000         188.000
  20782369.077    -5020811.63949  -3741234.05047  20782368.426    20782377.661
       244.000         211.000
  22930423.394   -10932078.36349  -7931837.79146  22930421.979    22930435.971
       226.000         175.000
 00  4 18  0 39  0.0000000  0  8G26G23G22G 3G29G 6G17G21
  22158525.079    -4470241.03249  -3451458.23546  22158525.112    22158534.820
       231.000         184.000
  20743324.248   -12891248.53749 -10021388.23548  20743323.486    20743332.412
       245.000         214.000
  24081217.191    -5001824.23149  -3887483.70645  24081216.641    24081234.155
       215.000         151.000
  23794430.418    -9843157.26249  -6684816.25645  23794429.359    23794444.384
       217.000         154.000
  24321410.377    -2626020.27549  -1705164.13045  24321410.268    24321432.703
       206.000         139.000
  21845988.272     7030872.35949   5485989.00746  21845988.327    21845999.978
       233.000         187.000
  20783525.392    -5014735.18449  -3736499.14447  20783524.605    20783533.868
       243.000         211.000
  22918159.444   -10996524.75849  -7982055.51246  22918157.650    22918172.649
       226.000         175.000
 00  4 18  0 39 30.0000000  0  8G26G23G22G 3G29G 6G17G21
  22169034.512    -4415013.61349  -3408423.90346  22169034.487    22169044.209
       231.000         184.000
  20742409.642   -12896054.61749 -10025133.19848  20742408.999    20742417.872
       245.000         214.000
  24088625.790    -4962893.54149  -3857148.23645  24088625.711    24088643.754
       213.000         151.000
  23776282.600    -9938523.69249  -6759127.54845  23776281.213    23776296.698
       216.000         154.000
  24300771.913    -2734474.03549  -1789672.95645  24300769.947    24300793.914
       210.000         139.000
  21862647.316     7118415.63149   5554204.39746  21862647.344    21862659.413
       232.000         187.000
  20784730.310    -5008403.22049  -3731565.14247  20784729.471    20784738.636
       243.000         211.000
  22905933.727   -11060770.44049  -8032116.83546  22905932.413    22905946.503
       225.000         176.000
 00  4 18  0 40  0.0000000  0  8G26G23G22G 3G29G 6G17G21
  22179653.757    -4359209.44949  -3364940.15946  22179654.035    22179663.920
       230.000         184.000
  20741563.424   -12900501.27449 -10028598.09248  20741562.835    20741571.907
       244.000         214.000
  24096111.350    -4923555.54049  -3826495.39945  24096110.360    24096125.817
       210.000         150.000
  23758175.097   -10033678.42649  -6833273.86845  23758173.839    23758189.439
       212.000         155.000
  24280139.441    -2842896.42449  -1874157.34145  24280136.911    24280161.564
       207.000         141.000
  21879374.619     7206317.75349   5622699.40646  21879374.744    21879386.470
       232.000         186.000
  20785977.250    -5001850.40249  -3726459.04347  20785976.578    20785985.885
       243.000         211.000
  22893748.709   -11124802.10449  -8082011.40346  22893747.378    22893761.054
       227.000         176.000
 00  4 18  0 40 30.0000000  0  8G26G23G22G 3G29G 6G17G21
  22190377.466    -4302855.84649  -3321028.27346  22190377.461    22190387.273
       230.000         183.000
  20740781.987   -12904607.70049 -10031797.87648  20740781.336    20740790.510
       245.000         214.000
  24103673.050    -4883818.80849  -3795531.85845  24103672.685    24103690.347
       211.000         151.000
  23740109.303   -10128613.36249  -6907248.90045  23740108.105    23740122.852
       217.000         155.000
  24259512.478    -2951289.45749  -1958618.84745  24259511.939    24259535.005
       201.000         142.000
  21896169.355     7294574.06049   5691470.40946  21896169.477    21896181.473
       232.000         186.000
  20787264.566    -4995085.42949  -3721187.63547  20787263.827    20787273.185
       244.000         211.000
  22881605.454   -11188614.50549  -8131735.12346  22881604.855    22881618.341
       226.000         176.000
 00  4 18  0 41  0.0000000  0  8G26G23G22G 3G29G 6G17G21
  22201201.740    -4245973.71349  -3276704.55446  22201202.038    22201211.407
       230.000         183.000
  20740065.093   -12908374.92649 -10034733.34548  20740064.382    20740073.411
       245.000         214.000
  24111307.637    -4843700.58349  -3764271.07745  24111306.960    24111326.223
       212.000         153.000
  23722088.843   -10223310.74749  -6981038.84045  23722087.940    23722103.503
       216.000         156.000
  24238888.591    -3059665.99449  -2043067.47245  24238886.638    24238910.685
       209.000         142.000
  21913030.315     7383178.50849   5760512.68546  21913030.165    21913041.781
       231.000         185.000
  20788590.042    -4988120.02249  -3715760.04447  20788589.329    20788598.719
       243.000         211.000
  22869505.894   -11252197.08749  -8181279.75246  22869505.321    22869518.695
       227.000         176.000
 00  4 18  0 41 30.0000000  0  8G26G23G22G 3G29G 6G17G21
  22212125.030    -4188571.57149  -3231975.63446  22212124.976    22212134.558
       231.000         183.000
  20739411.410   -12911809.90749 -10037409.92548  20739410.745    20739419.724
       245.000         214.000
  24119013.801    -4803204.76849  -3732716.05545  24119013.005    24119030.019
       215.000         152.000
  23704114.850   -10317764.10849  -7054638.62845  23704113.074    23704129.688
       214.000         157.000
  24218264.668    -3168042.83849  -2127516.34645  24218262.836    24218287.654
       210.000         142.000
  21929958.664     7472137.07749   5829830.89746  21929958.965    21929970.446
       231.000         184.000
  20789954.227    -4980951.39149  -3710174.09947  20789953.505    20789962.882
       244.000         211.000
  22857448.785   -11315556.71749  -8230650.67446  22857447.878    22857461.039
       226.000         177.000
 00  4 18  0 42  0.0000000  0  8G26G23G22G 3G29G 6G17G21
  22223144.724    -4130662.88649  -3186852.00946  22223145.017    22223154.505
       230.000         182.000
  20738822.120   -12914906.52149 -10039822.84648  20738821.563    20738830.486
       245.000         214.000
  24126789.058    -4762346.06649  -3700878.25545  24126789.291    24126806.044
       215.000         152.000
  23686188.688   -10411965.46749  -7128042.10745  23686187.733    23686201.688
       216.000         156.000
  24197640.812    -3276420.01949  -2211965.48245  24197638.433    24197662.498
       204.000         142.000
  21946953.764     7561446.31149   5899422.35646  21946953.960    21946965.875
       231.000         184.000
  20791361.639    -4973555.36849  -3704410.96747  20791361.240    20791370.167
       243.000         211.000
  22845434.978   -11378688.62849  -8279844.15246  22845433.785    22845447.538
       227.000         177.000
 00  4 18  0 42 30.0000000  0  8G26G23G22G 3G29G 6G17G21
  22234262.461    -4072239.06649  -3141326.96946  22234262.580    22234271.815
       229.000         182.000
  20738300.453   -12917647.70549 -10041958.80748  20738299.624    20738308.577
       245.000         214.000
  24134631.598    -4721134.22449  -3668765.28045  24134630.003    24134648.608
       214.000         152.000
  23668312.878   -10505902.75649  -7201239.75045  23668312.428    23668326.115
       219.000         157.000
  24177017.995    -3384790.82649  -2296409.62645  24177016.130    24177038.757
       211.000         142.000
  21964012.975     7651092.33449   5969276.24746  21964013.170    21964025.206
       230.000         183.000
  20792816.507    -4965910.01349  -3698453.55347  20792816.013    20792825.335
       243.000         211.000
  22833466.419   -11441582.98449  -8328852.53146  22833464.961    22833478.888
       228.000         177.000
 00  4 18  0 43  0.0000000  0  8G26G23G22G 3G29G 6G17G21
  22245481.125    -4013284.54149  -3095388.40246  22245480.754    22245490.651
       229.000         181.000
  20737848.781   -12920021.08649 -10043808.17048  20737848.106    20737857.173
       245.000         214.000
  24142542.505    -4679561.96149  -3636371.48845  24142542.246    24142560.461
       213.000         152.000
  23650489.276   -10599565.52449  -7274223.51845  23650488.448    23650501.505
       215.000         157.000
  24156397.259    -3493151.55849  -2380845.93045  24156395.955    24156418.490
       207.000         142.000
  21981137.296     7741080.76049   6039396.94646  21981137.435    21981149.338
       231.000         183.000
  20794320.567    -4958006.28149  -3692294.80647  20794319.682    20794328.936
       243.000         211.000
  22821549.173   -11504207.93249  -8377650.99046  22821548.301    22821561.461
       227.000         177.000
 00  4 18  0 43 30.0000000  0  8G26G23G22G 3G29G 6G17G21
  22256803.551    -3953784.64049  -3049024.87046  22256804.185    22256812.744
       229.000         181.000
  20737462.189   -12922052.75749 -10045391.26848  20737461.674    20737470.536
       245.000         215.000
  24150521.347    -4637635.28149  -3603701.50445  24150520.802    24150539.793
       215.000         154.000
  23632716.817   -10692959.33349  -7346997.70545  23632716.571    23632731.894
       219.000         159.000
  24135780.953    -3601488.36049  -2465263.57445  24135779.558    24135800.813
       211.000         142.000
  21998326.426     7831409.65349   6109782.94146  21998326.995    21998338.452
       230.000         183.000
  20795874.199    -4949841.82949  -3685932.90447  20795873.536    20795882.650
       243.000         211.000
  22809685.196   -11566552.75649  -8426231.18446  22809684.044    22809697.216
       227.000         178.000
 00  4 18  0 44  0.0000000  0  8G26G23G22G 3G29G 6G17G21
  22268230.752    -3893733.99449  -3002232.19146  22268230.655    22268240.307
       228.000         180.000
  20737138.883   -12923751.67749 -10046715.08148  20737138.228    20737147.225
       245.000         215.000
  24158562.603    -4595378.53149  -3570774.34245  24158560.966    24158580.203
       211.000         155.000
  23614991.444   -10786106.26349  -7419579.53745  23614991.282    23615006.318
       219.000         159.000
  24115173.096    -3709780.83549  -2549646.66845  24115171.134    24115192.865
       207.000         143.000
  22015577.855     7922065.97449   6180424.07746  22015578.132    22015590.542
       230.000         183.000
  20797472.143    -4941444.51549  -3679389.55147  20797471.460    20797480.837
       243.000         211.000
  22797875.336   -11628613.55649  -8474590.06746  22797874.890    22797887.196
       228.000         178.000
 00  4 18  0 44 30.0000000  0  8G26G23G22G 3G29G 6G17G21
  22279763.092    -3833130.96349  -2955009.08446  22279762.981    22279772.858
       228.000         180.000
  20736878.895   -12925117.87349 -10047779.62548  20736878.278    20736887.271
       245.000         215.000
  24166665.303    -4552798.00349  -3537594.92245  24166665.376    24166683.234
       217.000         154.000
  23597308.837   -10879028.21349  -7491986.04845  23597307.754    23597320.984
       220.000         159.000
  24094574.124    -3818027.10049  -2633993.73445  24094572.724    24094595.016
       211.000         144.000
  22032892.352     8013053.61849   6251323.38746  22032892.646    22032905.140
       230.000         182.000
  20799110.667    -4932834.04849  -3672680.10447  20799109.916    20799118.951
       243.000         211.000
  22786117.043   -11690402.91749  -8522737.44846  22786116.190    22786129.515
       228.000         178.000
 00  4 18  0 45  0.0000000  0  8G26G23G22G 3G29G 6G17G21
  22291399.496    -3771981.31249  -2907360.04746  22291399.335    22291409.077
       229.000         180.000
  20736679.238   -12926167.05649 -10048597.14848  20736678.646    20736687.527
       245.000         215.000
  24174831.833    -4509883.52549  -3504155.24045  24174831.183    24174847.933
       216.000         153.000
  23579666.919   -10971736.41649  -7564226.00945  23579665.897    23579680.658
       220.000         159.000
  24073984.621    -3926223.04049  -2718301.62045  24073983.608    24074004.344
       208.000         145.000
  22050271.965     8104383.65149   6322489.50046  22050272.094    22050284.112
       230.000         182.000
  20800788.912    -4924014.67649  -3665807.87547  20800788.184    20800797.377
       243.000         210.000
  22774407.245   -11751937.50149  -8570686.30146  22774406.267    22774419.725
       228.000         178.000
 00  4 18  0 45 30.0000000  0  8G26G23G22G 3G29G 6G17G21
  22303138.340    -3710293.54549  -2859291.68846  22303138.848    22303148.315
       229.000         179.000
  20736539.248   -12926902.60849 -10049170.28348  20736538.613    20736547.605
       245.000         215.000
  24183061.702    -4466635.11449  -3470455.36045  24183059.676    24183079.108
       212.000         152.000
  23562065.194   -11064232.86249  -7636300.95245  23562064.482    23562077.386
       220.000         160.000
  24053405.456    -4034364.69449  -2802567.17845  24053403.215    24053426.381
       207.000         146.000
  22067714.367     8196043.64249   6393912.71446  22067714.439    22067726.981
       229.000         182.000
  20802506.271    -4914989.91949  -3658775.60847  20802505.545    20802514.840
       243.000         210.000
  22762739.211   -11813252.84649  -8618464.33146  22762738.374    22762751.522
       228.000         178.000
 00  4 18  0 46  0.0000000  0  8G26G23G22G 3G29G 6G17G21
  22314974.518    -3648094.49349  -2810824.93246  22314975.074    22314984.719
       229.000         179.000
  20736462.593   -12927305.32549 -10049484.06248  20736461.896    20736471.097
       245.000         215.000
  24191357.810    -4423039.94849  -3436485.28045  24191357.961    24191373.939
       215.000         152.000
  23544507.249   -11156500.33549  -7708197.48845  23544506.687    23544519.872
       221.000         160.000
  24032835.427    -4142458.20749  -2886795.23345  24032833.166    24032855.404
       206.000         146.000
  22085219.295     8288031.74349   6465591.58846  22085219.531    22085232.115
       230.000         183.000
  20804264.680    -4905749.31249  -3651575.14347  20804263.798    20804273.326
       243.000         210.000
  22751111.124   -11874358.09849  -8666078.65246  22751110.054    22751123.491
       227.000         178.000
 00  4 18  0 46 30.0000000  0  8G26G23G22G 3G29G 6G17G21
  22326904.769    -3585400.69349  -2761972.65846  22326904.925    22326914.864
       229.000         179.000
  20736449.303   -12927375.10849 -10049538.41048  20736448.615    20736457.705
       245.000         215.000
  24199722.498    -4379085.46749  -3402235.23045  24199721.391    24199740.826
       212.000         153.000
  23526997.921   -11248511.18949  -7779894.06445  23526997.848    23527011.445
       220.000         160.000
  24012272.386    -4250515.11149  -2970994.74545  24012270.911    24012292.258
       206.000         147.000
  22102789.146     8380361.30849   6537536.53646  22102789.857    22102801.664
       230.000         182.000
  20806070.148    -4896261.56049  -3644182.10047  20806069.568    20806079.053
       243.000         210.000
  22739522.959   -11935253.43149  -8713529.40546  22739521.787    22739535.194
       228.000         179.000
 00  4 18  0 47  0.0000000  0  8G26G23G22G 3G29G 6G17G21
  22338928.421    -3522216.20149  -2712738.02946  22338928.432    22338938.252
       228.000         178.000
  20736498.670   -12927115.42649 -10049336.03048  20736497.901    20736506.839
       245.000         215.000
  24208155.951    -4334767.63649  -3367702.04245  24208154.913    24208173.238
       213.000         151.000
  23509540.856   -11340247.93849  -7851377.02645  23509540.754    23509553.041
       221.000         161.000
  23991716.499    -4358534.40349  -3055164.94545  23991715.101    23991735.466
       208.000         146.000
  22120422.876     8473026.54449   6609743.05146  22120423.410    22120435.361
       229.000         182.000
  20807926.694    -4886505.41949  -3636579.91647  20807925.913    20807935.224
       243.000         210.000
  22727976.552   -11995929.55749  -8760809.34546  22727975.850    22727988.598
       228.000         179.000
 00  4 18  0 47 30.0000000  0  8G26G23G22G 3G29G 6G17G21
  22351045.444    -3458541.06649  -2663121.07646  22351045.323    22351055.541
       228.000         178.000
  20736611.779   -12926520.83949 -10048872.68348  20736611.013    20736620.004
       245.000         215.000
  24216653.711    -4290110.35549  -3332904.37045  24216652.710    24216671.394
       210.000         149.000
  23492139.049   -11431694.21049  -7922633.66845  23492139.061    23492151.550
       218.000         161.000
  23971169.476    -4466506.92549  -3139298.69345  23971167.626    23971188.843
       206.000         147.000
  22138119.702     8566023.23849   6682207.84446  22138119.769    22138132.213
       229.000         181.000
  20809836.426    -4876469.69249  -3628759.87747  20809835.501    20809844.923
       242.000         210.000
  22716471.863   -12056386.26749  -8807918.32146  22716470.475    22716483.806
       228.000         179.000
 00  4 18  0 48  0.0000000  0  8G26G23G22G 3G29G 6G17G21
  22363257.669    -3394365.55649  -2613114.21546  22363257.879    22363267.625
       227.000         178.000
  20736789.851   -12925584.90749 -10048143.35748  20736789.120    20736798.167
       245.000         215.000
  24225215.716    -4245117.51049  -3297845.19945  24225214.693    24225233.919
       213.000         151.000
  23474792.475   -11522850.32449  -7993664.19145  23474791.360    23474805.267
       219.000         161.000
  23950632.437    -4574426.77749  -3223391.40345  23950630.973    23950652.768
       210.000         147.000
  22155879.763     8659352.65049   6754931.89946  22155880.013    22155892.271
       228.000         181.000
  20811801.014    -4866145.74349  -3620715.24847  20811800.131    20811809.572
       243.000         210.000
  22705010.839   -12116613.83449  -8854848.73546  22705009.889    22705022.938
       229.000         180.000
 00  4 18  0 48 30.0000000  0  8G26G23G22G 3G29G 6G17G21
  22375569.921    -3329664.27449  -2562697.66346  22375570.055    22375579.875
       227.000         177.000
  20737032.539   -12924309.51549 -10047149.51848  20737031.892    20737040.583
       245.000         215.000
  24233841.282    -4199791.15749  -3262526.16845  24233840.831    24233858.623
       214.000         151.000
  23457499.815   -11613723.01649  -8064473.89445  23457499.451    23457512.057
       217.000         161.000
  23930108.701    -4682277.06849  -3307429.90645  23930106.522    23930127.725
       210.000         146.000
  22173701.408     8753005.50049   6827907.97346  22173701.716    22173713.578
       228.000         180.000
  20813817.569    -4855548.69549  -3612457.80847  20813816.774    20813826.009
       243.000         210.000
  22693592.855   -12176615.11449  -8901602.83146  22693592.053    22693604.779
       228.000         180.000
 00  4 18  0 49  0.0000000  0  8G26G23G22G 3G29G 6G17G21
  22387983.530    -3264430.51849  -2511866.19346  22387983.022    22387993.264
       227.000         177.000
  20737337.685   -12922705.69749 -10045899.76448  20737336.990    20737345.869
       245.000         215.000
  24242528.963    -4154138.96249  -3226953.20245  24242529.776    24242546.215
       214.000         152.000
  23440260.019   -11704318.04149  -8135067.19145  23440259.316    23440273.166
       218.000         162.000
  23909601.292    -4790041.69449  -3391401.66845  23909599.489    23909619.926
       207.000         146.000
  22191581.279     8846964.01849   6901122.22946  22191581.578    22191594.744
       227.000         180.000
  20815883.043    -4844694.63449  -3604000.10247  20815882.374    20815891.450
       243.000         210.000
  22682217.200   -12236393.98049  -8948183.60646  22682216.069    22682228.960
       228.000         181.000
 00  4 18  0 49 30.0000000  0  8G26G23G22G 3G29G 6G17G21
  22400496.788    -3198672.78749  -2460626.42946  22400497.139    22400506.664
       226.000         176.000
  20737701.573   -12920793.12749 -10044409.42948  20737700.968    20737710.019
       245.000         215.000
  24251277.725    -4108163.82949  -3191128.60145  24251276.161    24251294.365
       209.000         149.000
  23423072.872   -11794636.09049  -8205444.67945  23423071.765    23423084.901
       220.000         162.000
  23889109.392    -4897724.72649  -3475309.84045  23889107.205    23889128.778
       210.000         147.000
  22209516.592     8941214.21249   6974563.76146  22209517.381    22209529.647
       229.000         180.000
  20817993.747    -4833602.76849  -3595357.09347  20817993.093    20818002.502
       243.000         210.000
  22670882.846   -12295955.58149  -8994595.09446  22670882.055    22670894.592
       228.000         181.000
 00  4 18  0 50  0.0000000  0  8G26G23G22G 3G29G 6G17G21
  22413106.574    -3132407.86549  -2408991.44546  22413106.829    22413116.484
       227.000         176.000
  20738120.751   -12918590.29949 -10042692.91948  20738120.228    20738129.146
       245.000         215.000
  24260089.337    -4061857.67549  -3155046.07245  24260089.340    24260108.796
       211.000         150.000
  23405935.084   -11884694.84549  -8275620.11245  23405933.709    23405947.024
       217.000         160.000
  23868630.180    -5005341.30949  -3559166.25845  23868627.693    23868649.484
       211.000         147.000
  22227505.507     9035745.64749   7048224.45146  22227505.828    22227517.838
       227.000         179.000
  20820146.514    -4822289.90449  -3586541.87847  20820145.903    20820154.913
       243.000         210.000
  22659592.092   -12355288.25449  -9040828.18346  22659591.541    22659603.776
       228.000         181.000
 00  4 18  0 50 30.0000000  0  8G26G23G22G 3G29G 6G17G21
  22425809.807    -3065652.05249  -2356973.97046  22425809.635    22425819.681
       226.000         175.000
  20738591.640   -12916115.71149 -10040764.65348  20738590.962    20738600.031
       245.000         215.000
  24268959.013    -4015250.09849  -3118728.64645  24268958.640    24268977.689
       215.000         151.000
  23388845.993   -11974498.38849  -8345596.70746  23388844.610    23388858.952
       217.000         163.000
  23848161.904    -5112900.16749  -3642977.69445  23848159.603    23848180.415
       207.000         147.000
  22245547.692     9130557.09149   7122103.32146  22245547.248    22245559.704
       227.000         178.000
  20822339.676    -4810764.97149  -3577561.40947  20822339.065    20822348.344
       243.000         209.000
  22648345.617   -12414388.14449  -9086879.88946  22648344.887    22648357.814
       229.000         181.000
 00  4 18  0 51  0.0000000  0  8G26G23G22G 3G29G 6G17G21
  22438603.101    -2998423.25749  -2304587.92146  22438603.428    22438613.237
       226.000         175.000
  20739113.998   -12913370.64849 -10038625.62848  20739113.321    20739122.326
       245.000         215.000
  24277883.859    -3968349.87049  -3082183.18745  24277883.641    24277900.823
       213.000         149.000
  23371805.114   -12064047.26649  -8415374.83046  23371803.627    23371817.432
       214.000         163.000
  23827701.236    -5220418.63649  -3726757.66145  23827699.517    23827719.252
       210.000         148.000
  22263643.992     9225653.11449   7196203.93346  22263643.740    22263656.971
       227.000         178.000
  20824573.374    -4799026.84349  -3568414.81847  20824572.818    20824581.832
       243.000         210.000
  22637145.808   -12473242.99549  -9132740.64846  22637144.851    22637157.658
       229.000         182.000
 00  4 18  0 51 30.0000000  0  8G26G23G22G 3G29G 6G17G21
  22451486.846    -2930718.85249  -2251831.26746  22451487.039    22451496.416
       227.000         174.000
  20739691.310   -12910336.67949 -10036261.48248  20739690.691    20739699.704
       245.000         214.000
  24286863.889    -3921159.45049  -3045411.60145  24286863.474    24286880.568
       210.000         147.000
  23354813.227   -12153339.18949  -8484952.74345  23354812.050    23354826.142
       220.000         162.000
  23807247.506    -5327901.03749  -3810509.54545  23807245.787    23807266.249
       209.000         148.000
  22281795.699     9321040.42949   7270531.53246  22281795.634    22281808.413
       227.000         178.000
  20826847.364    -4787076.84349  -3559103.12847  20826846.444    20826855.831
       243.000         209.000
  22625994.449   -12531842.91949  -9178402.77246  22625993.651    22626006.667
       229.000         182.000
 00  4 18  0 52  0.0000000  0  8G26G23G22G 3G29G 6G17G21
  22464463.316    -2862527.31949  -2198695.03046  22464463.466    22464473.339
       226.000         174.000
  20740328.204   -12906989.90249 -10033653.59048  20740327.570    20740336.455
       247.000         214.000
  24295898.360    -3873683.29849  -3008417.37245  24295896.971    24295915.798
       209.000         147.000
  23337872.125   -12242364.96649  -8554323.27246  23337870.478    23337884.451
       217.000         163.000
  23786803.832    -5435330.59149  -3894220.25545  23786801.950    23786821.636
       208.000         148.000
  22300005.072     9416730.50849   7345095.05046  22300005.687    22300018.003
       228.000         178.000
  20829163.134    -4774907.23649  -3549620.31647  20829162.221    20829171.669
       242.000         209.000
  22614892.741   -12590182.29749  -9223861.86546  22614891.916    22614904.656
       229.000         182.000
 00  4 18  0 52 30.0000000  0  8G26G23G22G 3G29G 6G17G21
  22477534.662    -2793836.95349  -2145170.10446  22477534.417    22477543.497
       226.000         174.000
  20741029.190   -12903306.15349 -10030783.12348  20741028.695    20741037.472
       246.000         214.000
  24304988.868    -3825912.85549  -2971193.84345  24304988.686    24305008.028
       210.000         148.000
  23320986.061   -12331100.66849  -8623467.77246  23320984.998    23320999.545
       217.000         164.000
  23766371.462    -5542700.81349  -3977884.73945  23766369.595    23766390.005
       213.000         149.000
  22318272.200     9512724.37549   7419895.28946  22318272.911    22318284.846
       226.000         177.000
  20831521.918    -4762511.89049  -3539961.60347  20831521.348    20831530.480
       243.000         209.000
  22603839.062   -12648269.12849  -9269124.16946  22603838.298    22603851.077
       229.000         182.000
 00  4 18  0 53  0.0000000  0  8G26G23G22G 3G29G 6G17G21
  22490701.191    -2724646.45649  -2091255.45646  22490701.272    22490711.047
       224.000         173.000
  20741795.938   -12899276.84049 -10027643.38848  20741795.204    20741804.206
       247.000         214.000
  24314141.329    -3777816.95249  -2933716.71345  24314140.841    24314160.312
       206.000         146.000
  23304158.190   -12419531.25349  -8692374.54046  23304157.258    23304170.769
       216.000         164.000
  23745953.090    -5649997.64649  -4061492.03845  23745951.210    23745970.110
       212.000         148.000
  22336597.336     9609022.97349   7494932.97446  22336597.875    22336610.887
       226.000         177.000
  20833925.549    -4749880.69849  -3530119.11647  20833924.724    20833934.078
       243.000         210.000
  22592833.958   -12706100.46149  -9314187.38446  22592833.037    22592845.768
       229.000         182.000
 00  4 18  0 53 30.0000000  0  8G26G23G22G 3G29G 6G17G21
  22503963.687    -2654951.94949  -2036948.08546  22503963.910    22503973.609
       225.000         173.000
  20742626.963   -12894909.70849 -10024240.42048  20742626.409    20742635.202
       246.000         214.000
  24323353.072    -3729408.50149  -2895996.04645  24323352.503    24323372.471
       209.000         144.000
  23287388.539   -12507654.91549  -8761042.13546  23287388.486    23287402.607
       221.000         163.000
  23725551.776    -5757204.72449  -4145029.41745  23725549.284    23725570.439
       211.000         148.000
  22354981.301     9705630.58749   7570211.46046  22354981.568    22354993.852
       225.000         176.000
  20836376.417    -4737001.28449  -3520083.21747  20836375.857    20836385.214
       242.000         210.000
  22581874.829   -12763690.65749  -9359062.70346  22581874.064    22581886.530
       229.000         183.000
 00  4 18  0 54  0.0000000  0  8G26G23G22G 3G29G 6G17G21
  22517320.477    -2584761.61549  -1982254.34946  22517320.953    22517331.270
       224.000         172.000
  20743520.251   -12890215.39749 -10020582.50848  20743519.550    20743528.558
       246.000         214.000
  24332624.327    -3680688.63749  -2858032.70145  24332624.994    24332642.285
       208.000         145.000
  23270677.959   -12595469.40149  -8829468.81446  23270676.466    23270690.556
       219.000         165.000
  23705168.271    -5864318.22849  -4228493.88245  23705166.785    23705185.562
       210.000         148.000
  22373422.833     9802540.62849   7645725.59746  22373423.241    22373435.694
       225.000         175.000
  20838876.597    -4723862.90649  -3509845.52447  20838875.916    20838885.221
       243.000         210.000
  22570959.301   -12821051.37749  -9403759.21346  22570957.991    22570971.041
       229.000         183.000
 00  4 18  0 54 30.0000000  0  8G26G23G22G 3G29G 6G17G21
  22530769.096    -2514088.76149  -1927184.62546  22530768.683    22530778.565
       224.000         172.000
  20744472.812   -12885209.71749 -10016681.96848  20744472.351    20744481.210
       246.000         214.000
  24341954.554    -3631659.56949  -2819828.43045  24341953.906    24341975.182
       208.000         146.000
  23254025.155   -12682979.38249  -8897658.24046  23254024.464    23254036.221
       217.000         165.000
  23684802.861    -5971336.77649  -4311884.37045  23684801.043    23684819.825
       212.000         148.000
  22391921.523     9899751.22549   7721473.92946  22391921.245    22391934.834
       224.000         175.000
  20841428.867    -4710450.53749  -3499394.33547  20841428.199    20841437.452
       243.000         210.000
  22560084.823   -12878196.29949  -9448287.56346  22560083.919    22560096.651
       229.000         183.000
 00  4 18  0 55  0.0000000  0  8G26G23G22G 3G29G 6G17G21
  22544308.471    -2442938.81249  -1871743.13946  22544308.660    22544318.293
       225.000         172.000
  20745480.255   -12879915.47349 -10012556.56948  20745479.653    20745488.494
       246.000         214.000
  24351340.557    -3582337.59549  -2781395.94345  24351340.498    24351358.640
       210.000         146.000
  23237426.650   -12770204.11949  -8965625.38946  23237425.645    23237438.748
       219.000         164.000
  23664456.139    -6078257.03649  -4395198.27245  23664454.309    23664472.478
       211.000         148.000
  22410478.887     9997270.13849   7797462.51146  22410479.088    22410492.358
       224.000         175.000
  20844034.979    -4696755.30949  -3488722.73447  20844034.325    20844043.621
       243.000         210.000
  22549250.912   -12935128.00049  -9492649.77746  22549249.509    22549262.982
       228.000         183.000
 00  4 18  0 55 30.0000000  0  8G26G23G22G 3G29G 6G17G21
  22557937.399    -2371318.44449  -1815935.10546  22557937.675    22557948.405
       223.000         171.000
  20746542.683   -12874332.28349 -10008206.01448  20746542.058    20746551.045
       246.000         214.000
  24360780.102    -3532732.39649  -2742742.77045  24360779.553    24360799.094
       209.000         145.000
  23220881.266   -12857150.18849  -9033375.40046  23220881.898    23220893.322
       222.000         167.000
  23644126.176    -6185089.36749  -4478443.67045  23644124.453    23644142.038
       209.000         148.000
  22429093.232    10095088.44249   7873684.37446  22429093.801    22429106.320
       224.000         175.000
  20846695.276    -4682775.48149  -3477829.37047  20846694.564    20846703.599
       243.000         210.000
  22538456.285   -12991853.23349  -9536851.10146  22538455.362    22538467.941
       228.000         183.000
 00  4 18  0 56  0.0000000  0  8G26G23G22G 3G29G 6G17G21
  22571655.070    -2299231.82149  -1759763.74846  22571655.428    22571664.758
       223.000         170.000
  20747662.404   -12868448.17949 -10003620.97948  20747661.543    20747670.487
       247.000         214.000
  24370277.508    -3482825.20749  -2703854.25845  24370277.128    24370295.103
       207.000         145.000
  23204389.775   -12943812.71549  -9100904.47246  23204388.306    23204401.775
       219.000         165.000
  23623812.287    -6291837.05349  -4561623.10945  23623810.127    23623829.816
       209.000         149.000
  22447762.929    10193197.89249   7950133.10746  22447763.167    22447775.984
       224.000         174.000
  20849409.787    -4668510.62849  -3466713.91247  20849409.004    20849418.419
       243.000         210.000
  22527702.312   -13048364.90749  -9580886.01446  22527701.327    22527713.647
       230.000         183.000
 00  4 18  0 56 30.0000000  0  8G26G23G22G 3G29G 6G17G21
  22585462.327    -2226674.23249  -1703225.41146  22585462.610    22585472.336
       224.000         170.000
  20748841.354   -12862252.69249  -9998793.31248  20748840.806    20748849.615
       246.000         214.000
  24379830.992    -3432621.02349  -2664734.32045  24379828.846    24379850.470
       202.000         143.000
  23187952.212   -13030191.66149  -9168212.55046  23187950.926    23187964.323
       220.000         166.000
  23603516.218    -6398490.91449  -4644729.46145  23603515.017    23603533.819
       211.000         149.000
  22466489.060    10291603.77349   8026812.83046  22466488.564    22466501.957
       222.000         174.000
  20852178.823    -4653959.32849  -3455375.25447  20852177.888    20852187.304
       243.000         210.000
  22516991.993   -13104647.26849  -9624742.25446  22516990.882    22517003.281
       229.000         183.000
 00  4 18  0 57  0.0000000  0  8G26G23G22G 3G29G 6G17G21
  22599360.056    -2153641.43649  -1646316.77146  22599359.639    22599370.317
       223.000         170.000
  20750082.445   -12855730.71649  -9993711.23448  20750081.767    20750090.713
       246.000         214.000
  24389442.327    -3382112.62049  -2625377.38045  24389444.029    24389462.071
       211.000         145.000
  23171571.197   -13116274.61249  -9235290.02946  23171569.666    23171583.456
       219.000         166.000
  23583239.101    -6505045.93649  -4727758.78945  23583237.325    23583257.119
       208.000         150.000
  22485270.666    10390301.18649   8103719.70246  22485270.831    22485284.454
       224.000         174.000
  20854999.567    -4639136.26049  -3443824.82747  20854998.935    20855008.097
       243.000         210.000
  22506330.707   -13160672.16249  -9668397.85546  22506330.022    22506342.559
       230.000         184.000
 00  4 18  0 57 30.0000000  0  8G26G23G22G 3G29G 6G17G21
  22613347.892    -2080134.81349  -1589038.92446  22613347.805    22613358.394
       223.000         169.000
  20751388.163   -12848868.77949  -9988364.25348  20751387.423    20751396.268
       246.000         214.000
  24399113.481    -3331293.86149  -2585778.51945  24399111.287    24399130.887
       207.000         144.000
  23155252.090   -13202030.69349  -9302112.77246  23155250.793    23155264.233
       221.000         168.000
  23562984.596    -6611481.43449  -4810695.00245  23562983.166    23563001.830
       210.000         151.000
  22504105.139    10489276.27849   8180842.96146  22504105.112    22504118.461
       223.000         174.000
  20857870.959    -4624046.98549  -3432066.96447  20857870.107    20857879.744
       243.000         210.000
  22495720.161   -13216430.75749  -9711845.95846  22495719.258    22495731.468
       230.000         184.000
 00  4 18  0 58  0.0000000  0  8G26G23G22G 3G29G 6G17G21
  22627426.344    -2006152.50649  -1531390.41046  22627426.688    22627436.412
       223.000         169.000
  20752756.906   -12841675.95049  -9982759.43848  20752756.456    20752765.109
       246.000         214.000
  24408841.016    -3280175.54849  -2545946.27645  24408841.381    24408859.780
       210.000         144.000
  23138997.785   -13287447.14449  -9368670.89746  23138998.325    23139009.714
       221.000         167.000
  23542755.839    -6717781.67149  -4893525.81645  23542754.340    23542772.077
       211.000         151.000
  22522992.476    10588529.40249   8258182.85746  22522992.547    22523005.689
       224.000         173.000
  20860791.282    -4608700.71649  -3420108.85047  20860790.565    20860799.599
       243.000         210.000
  22485162.848   -13271909.59849  -9755076.07446  22485161.377    22485173.854
       231.000         185.000
 00  4 18  0 58 30.0000000  0  8G26G23G22G 3G29G 6G17G21
  22641593.246    -1931705.17649  -1473379.54946  22641593.501    22641603.406
       223.000         169.000
  20754184.457   -12834174.28549  -9976913.96548  20754183.917    20754192.727
       246.000         214.000
  24418622.554    -3228774.46649  -2505893.71945  24418622.020    24418642.332
       206.000         145.000
  23122811.632   -13372506.17449  -9434950.51346  23122811.631    23122824.258
       219.000         168.000
  23522552.918    -6823946.45149  -4976251.08345  23522551.357    23522569.537
       210.000         150.000
  22541932.877    10688061.30949   8335739.99546  22541932.505    22541946.714
       223.000         173.000
  20863757.323    -4593114.10449  -3407963.45347  20863756.712    20863765.875
       243.000         210.000
  22474658.581   -13327109.47949  -9798088.81346  22474657.698    22474670.067
       230.000         185.000
 00  4 18  0 59  0.0000000  0  8G26G23G22G 3G29G 6G17G21
  22655845.401    -1856809.69449  -1415019.46746  22655845.425    22655855.542
       223.000         168.000
  20755664.867   -12826394.58949  -9970851.84648  20755664.383    20755673.059
       247.000         214.000
  24428456.677    -3177096.18549  -2465625.11645  24428457.491    24428476.041
       212.000         144.000
  23106694.132   -13457203.20049  -9500948.00046  23106691.670    23106707.016
       219.000         168.000
  23502372.487    -6929992.89149  -5058884.15045  23502370.887    23502388.978
       208.000         151.000
  22560925.707    10787868.67049   8413511.75646  22560926.965    22560940.180
       224.000         174.000
  20866765.572    -4577305.81949  -3395645.32547  20866764.949    20866774.388
       243.000         210.000
  22464204.010   -13382047.93649  -9840897.84746  22464203.216    22464215.067
       232.000         185.000
 00  4 18  0 59 30.0000000  0  8G26G23G22G 3G29G 6G17G21
  22670180.964    -1781475.96849  -1356317.90246  22670180.690    22670190.167
       222.000         168.000
  20757194.451   -12818356.55749  -9964588.42348  20757193.924    20757202.659
       246.000         214.000
  24438337.937    -3125170.94549  -2425164.10545  24438337.391    24438357.813
       207.000         145.000
  23090643.115   -13541551.34249  -9566673.66546  23090641.322    23090655.100
       220.000         169.000
  23482211.155    -7035939.19449  -5141439.18445  23482209.545    23482227.508
       212.000         150.000
  22579969.577    10887943.89849   8491492.24346  22579969.572    22579984.077
       224.000         174.000
  20869815.242    -4561279.79449  -3383157.53047  20869814.738    20869823.982
       243.000         210.000
  22453793.862   -13436752.99849  -9883525.01746  22453792.323    22453805.604
       231.000         186.000
 00  4 18  1  0  0.0000000  0  8G26G23G22G 3G29G 6G17G21
  22684597.693    -1705715.40049  -1297283.72446  22684598.070    22684608.059
       222.000         167.000
  20758772.265   -12810065.05949  -9958127.49648  20758771.791    20758780.377
       246.000         214.000
  24448264.921    -3073005.33749  -2384515.82245  24448265.498    24448283.184
       209.000         146.000
  23074654.341   -13625572.18749  -9632144.29446  23074653.150    23074666.501
       221.000         169.000
  23462066.388    -7141798.47049  -5223926.41545  23462065.560    23462082.806
       211.000         151.000
  22599064.355    10988286.64949   8569681.19846  22599064.643    22599078.532
       224.000         173.000
  20872906.006    -4545037.68249  -3370501.35747  20872905.268    20872914.535
       243.000         210.000
  22443427.011   -13491230.81549  -9925975.11046  22443426.069    22443438.237
       232.000         186.000
 00  4 18  1  0 30.0000000  0  8G26G23G22G 3G29G 6G17G21
  22699095.515    -1629529.25949  -1237917.93646  22699096.063    22699104.930
       223.000         167.000
  20760399.905   -12801511.69049  -9951462.51548  20760399.245    20760408.062
       246.000         214.000
  24458239.603    -3020588.88049  -2343671.99745  24458239.593    24458259.100
       209.000         144.000
  23058726.159   -13709274.14249  -9697366.42946  23058725.956    23058738.935
       222.000         169.000
  23441937.751    -7247573.60649  -5306348.09545  23441936.865    23441954.101
       212.000         152.000
  22618209.045    11088891.88449   8648074.68446  22618209.389    22618223.172
       225.000         173.000
  20876040.554    -4528565.73849  -3357666.09347  20876039.928    20876049.162
       244.000         210.000
  22433100.014   -13545499.11249  -9968261.94946  22433099.089    22433111.470
       232.000         186.000
 00  4 18  1  1  0.0000000  0  8G26G23G22G 3G29G 6G17G21
  22713676.258    -1552906.96049  -1178212.29146  22713676.799    22713685.846
       222.000         167.000
  20762081.044   -12792676.97749  -9944578.30448  20762080.331    20762089.109
       246.000         214.000
  24468262.410    -2967919.92549  -2302631.47745  24468260.636    24468282.987
       205.000         145.000
  23042854.498   -13792680.20349  -9762358.00646  23042854.314    23042865.928
       222.000         170.000
  23421826.362    -7353257.52849  -5388698.69445  23421824.868    23421841.721
       214.000         153.000
  22637402.286    11189752.15049   8726666.89346  22637401.923    22637415.548
       224.000         173.000
  20879224.627    -4511833.22149  -3344627.78547  20879223.994    20879233.194
       243.000         210.000
  22422812.709   -13599558.70149 -10010386.16046  22422811.800    22422823.873
       232.000         187.000
 00  4 18  1  1 30.0000000  0  8G26G23G22G 3G29G 6G17G21
  22728342.190    -1475837.29349  -1118158.04446  22728342.706    22728351.564
       222.000         166.000
  20763822.630   -12783524.78749  -9937446.70948  20763821.975    20763830.776
       246.000         214.000
  24478333.931    -2914992.88449  -2261389.88445  24478334.951    24478352.212
       206.000         142.000
  23027041.757   -13875775.55849  -9827107.46046  23027041.191    23027053.650
       221.000         169.000
  23401738.302    -7458819.04049  -5470953.91145  23401736.765    23401754.857
       213.000         154.000
  22656642.380    11290858.58049   8805450.91746  22656642.333    22656656.094
       223.000         173.000
  20882463.468    -4494813.03749  -3331365.31747  20882462.652    20882471.946
       243.000         210.000
  22412566.886   -13653400.17449 -10052340.41546  22412565.674    22412577.829
       232.000         187.000
 00  4 18  1  2  0.0000000  0  8G26G23G22G 3G29G 6G17G21
  22743095.839    -1398306.74549  -1057744.66946  22743095.373    22743105.549
       221.000         166.000
  20765626.307   -12774046.23549  -9930060.80248  20765625.676    20765634.462
       246.000         213.000
  24488461.302    -2861774.71849  -2219921.34445  24488460.322    24488480.527
       205.000         142.000
  23011290.801   -13958546.63249  -9891604.24346  23011289.646    23011303.344
       222.000         170.000
  23381679.269    -7564227.95049  -5553090.21445  23381677.981    23381695.337
       213.000         154.000
  22675930.632    11392218.26849   8884432.26446  22675931.459    22675945.374
       223.000         172.000
  20885759.557    -4477492.15949  -3317868.54347  20885758.780    20885768.109
       244.000         210.000
  22402363.881   -13707016.56549 -10094119.28146  22402362.837    22402374.549
       232.000         187.000
 00  4 18  1  2 30.0000000  0  8G26G23G22G 3G29G 6G17G21
  22757939.618    -1320301.94449   -996961.75346  22757939.806    22757949.703
       220.000         166.000
  20767490.300   -12764250.88049  -9922428.03348  20767489.486    20767498.364
       246.000         213.000
  24498641.803    -2808276.15749  -2178234.44545  24498642.832    24498663.303
       208.000         144.000
  22995602.649   -14040987.70849  -9955843.89046  22995601.866    22995614.970
       222.000         170.000
  23361649.115    -7669484.77949  -5635108.01445  23361647.288    23361664.849
       212.000         154.000
  22695267.760    11493834.95749   8963613.88346  22695267.863    22695282.084
       222.000         171.000
  20889113.555    -4459866.80749  -3304134.51347  20889112.888    20889122.167
       244.000         210.000
  22392203.086   -13760411.42049 -10135725.52746  22392202.301    22392213.856
       232.000         187.000
 00  4 18  1  3  0.0000000  0  8G26G23G22G 3G29G 6G17G21
  22772873.743    -1241822.93549   -935809.31146  22772874.177    22772883.314
       221.000         165.000
  20769411.403   -12754155.16149  -9914561.21748  20769410.736    20769419.481
       246.000         213.000
  24508871.652    -2754519.50049  -2136346.35045  24508870.432    24508890.813
       204.000         143.000
  22979978.269   -14123094.22449 -10019822.83746  22979978.122    22979989.862
       224.000         171.000
  23341648.423    -7774587.14449  -5717005.44845  23341646.754    23341663.895
       211.000         154.000
  22714652.598    11595702.07549   9042990.63746  22714652.953    22714667.457
       223.000         171.000
  20892523.790    -4441946.01049  -3290170.26847  20892523.117    20892532.405
       243.000         210.000
  22382083.926   -13813587.30449 -10177161.14646  22382082.896    22382094.970
       232.000         187.000
 00  4 18  1  3 30.0000000  0  8G26G23G22G 3G29G 6G17G21
  22787896.840    -1162876.12549   -874292.36146  22787895.938    22787906.929
       219.000         164.000
  20771385.367   -12743781.79549  -9906478.05548  20771384.720    20771393.446
       246.000         213.000
  24519149.075    -2700511.45649  -2094262.42745  24519149.386    24519169.073
       206.000         143.000
  22964420.304   -14204851.05649 -10083529.29746  22964419.853    22964431.479
       222.000         171.000
  23321675.543    -7879543.09149  -5798788.78245  23321673.531    23321691.832
       213.000         154.000
  22734083.023    11697808.41849   9122553.79846  22734083.282    22734097.189
       222.000         171.000
  20895985.609    -4423754.11149  -3275994.77447  20895985.001    20895994.256
       243.000         210.000
  22372005.286   -13866550.38749 -10218430.95846  22372004.653    22372016.103
       232.000         187.000
 00  4 18  1  4  0.0000000  0  8G26G23G22G 3G29G 6G17G21
  22803005.139    -1083481.43249   -812426.41046  22803004.968    22803015.187
       218.000         164.000
  20773405.448   -12733166.06149  -9898206.03448  20773404.841    20773413.512
       246.000         213.000
  24529472.447    -2646264.20849  -2051992.07445  24529471.690    24529491.365
       202.000         143.000
  22948924.534   -14286281.57049 -10146981.49946  22948923.611    22948936.701
       221.000         172.000
  23301725.460    -7984379.42849  -5880478.92445  23301724.262    23301741.409
       213.000         154.000
  22753559.787    11800158.61449   9202306.97246  22753559.359    22753573.976
       223.000         170.000
  20899495.468    -4405309.63549  -3261622.46447  20899494.701    20899504.257
       243.000         210.000
  22361966.604   -13919303.67549 -10259537.27946  22361965.833    22361977.644
       233.000         187.000
 00  4 18  1  4 30.0000000  0  8G26G23G22G 3G29G 6G17G21
  22818194.295    -1003662.07849   -750229.56446  22818194.133    22818204.472
       220.000         163.000
  20775470.241   -12722315.52449  -9889751.04948  20775469.512    20775478.095
       246.000         213.000
  24539835.005    -2591808.95549  -2009559.69145  24539836.085    24539854.304
       207.000         144.000
  22933490.739   -14367385.92249 -10210179.56346  22933490.715    22933502.245
       224.000         172.000
  23281795.190    -8089111.81949  -5962088.07345  23281793.250    23281810.868
       216.000         155.000
  22773080.337    11902739.19449   9282239.65446  22773080.554    22773095.296
       222.000         170.000
  20903052.210    -4386618.85349  -3247058.22547  20903051.529    20903060.816
       243.000         209.000
  22351967.088   -13971851.11649 -10300483.21146  22351966.136    22351977.911
       234.000         187.000
 00  4 18  1  5  0.0000000  0  8G26G23G22G 3G29G 6G17G21
  22833461.592     -923432.09349   -687712.73246  22833461.633    22833471.533
       220.000         163.000
  20777580.298   -12711227.00549  -9881110.62548  20777579.691    20777588.444
       246.000         213.000
  24550239.626    -2537133.02349  -1966955.30145  24550238.344    24550260.396
       205.000         143.000
  22918121.505   -14448151.38649 -10273113.53646  22918121.854    22918133.184
       224.000         172.000
  23261885.461    -8193736.53349  -6043613.33445  23261884.393    23261899.964
       217.000         156.000
  22792643.552    12005543.86649   9362346.95546  22792643.541    22792657.577
       223.000         169.000
  20906655.151    -4367685.40549  -3232304.89547  20906654.524    20906663.883
       243.000         209.000
  22342008.865   -14024181.50149 -10341260.00447  22342007.510    22342019.207
       233.000         188.000
 00  4 18  1  5 30.0000000  0  8G26G23G22G 3G29G 6G17G21
  22848804.482     -842804.85049   -624886.35445  22848804.532    22848814.773
       218.000         162.000
  20779737.624   -12699890.10449  -9872276.65648  20779736.937    20779745.778
       246.000         213.000
  24560688.739    -2482222.56349  -1924168.20745  24560687.370    24560709.603
       203.000         144.000
  22902816.356   -14528580.31049 -10335785.27346  22902815.081    22902828.025
       224.000         173.000
  23241996.701    -8298251.05249  -6125052.73745  23241995.082    23242011.021
       216.000         157.000
  22812250.413    12108577.64449   9442632.78446  22812251.137    22812264.912
       223.000         169.000
  20910303.822    -4348511.48449  -3217364.18647  20910303.118    20910312.338
       243.000         209.000
  22332095.529   -14076275.88549 -10381852.90247  22332094.423    22332106.593
       234.000         188.000
 00  4 18  1  6  0.0000000  0  8G26G23G22G 3G29G 6G17G21
  22864222.916     -761780.39449   -561750.47245  22864223.008    22864233.489
       219.000         162.000
  20781945.123   -12688289.61449  -9863237.29948  20781944.549    20781953.353
       246.000         213.000
  24571182.548    -2427078.90549  -1881199.39045  24571183.104    24571201.775
       207.000         142.000
  22887575.867   -14608668.80049 -10398191.77246  22887575.042    22887586.642
       224.000         172.000
  23222130.682    -8402645.65949  -6206398.69645  23222129.364    23222145.447
       214.000         157.000
  22831899.908    12211835.16049   9523092.97146  22831900.344    22831914.671
       223.000         169.000
  20914000.124    -4329087.31949  -3202228.48147  20913999.469    20914008.711
       243.000         209.000
  22322228.775   -14128125.42349 -10422255.01747  22322227.713    22322239.902
       233.000         188.000
 00  4 18  1  6 30.0000000  0  8G26G23G22G 3G29G 6G17G21
  22879719.398     -680346.23149   -498295.32645  22879719.010    22879729.539
       218.000         161.000
  20784203.914   -12676419.45149  -9853987.80748  20784203.186    20784212.055
       246.000         214.000
  24581720.145    -2371704.56849  -1838050.80345  24581720.419    24581740.914
       205.000         143.000
  22872406.374   -14688384.21949 -10460307.54446  22872405.903    22872417.516
       223.000         173.000
  23202290.540    -8506904.53449  -6287638.90645  23202288.710    23202305.495
       216.000         158.000
  22851587.801    12315294.45549   9603710.38146  22851588.734    22851602.530
       225.000         169.000
  20917746.894    -4309397.74549  -3186885.96647  20917746.306    20917755.579
       243.000         209.000
  22312409.888   -14179723.43949 -10462461.14047  22312408.941    22312421.082
       234.000         188.000
 00  4 18  1  7  0.0000000  0  8G26G23G22G 3G29G 6G17G21
  22895292.651     -598508.30649   -434525.55945  22895292.269    22895303.737
       216.000         161.000
  20786514.782   -12664275.61549  -9844525.06448  20786514.136    20786523.007
       246.000         214.000
  24592302.884    -2316093.20049  -1794717.55245  24592302.163    24592322.251
       205.000         144.000
  22857308.137   -14767725.14749 -10522131.51646  22857308.385    22857319.493
       225.000         174.000
  23182478.156    -8611017.14649  -6368765.14145  23182476.535    23182493.008
       215.000         158.000
  22871313.206    12418951.34649   9684481.76846  22871313.639    22871327.403
       223.000         169.000
  20921544.289    -4289442.28949  -3171336.26347  20921543.717    20921552.799
       243.000         209.000
  22302640.038   -14231063.67149 -10502466.40047  22302638.914    22302651.008
       234.000         189.000
 00  4 18  1  7 30.0000000  0  8G26G23G22G 3G29G 6G17G21
  22910941.952     -516270.85749   -370444.48245  22910942.664    22910952.111
       217.000         161.000
  20788880.338   -12651844.56349  -9834838.52048  20788879.648    20788888.475
       246.000         214.000
  24602930.487    -2260245.32149  -1751199.96845  24602930.346    24602950.966
       203.000         141.000
  22842283.744   -14846678.50749 -10583653.47846  22842284.016    22842295.114
       227.000         174.000
  23162697.578    -8714962.88749  -6449761.37045  23162696.589    23162712.464
       215.000         159.000
  22891076.195    12522805.52749   9765406.87046  22891076.497    22891089.798
       223.000         169.000
  20925394.629    -4269208.72949  -3155569.86247  20925393.921    20925403.183
       243.000         209.000
  22292918.656   -14282149.60349 -10542273.50947  22292918.144    22292929.287
       234.000         189.000
 00  4 18  1  8  0.0000000  0  8G26G23G22G 3G29G 6G17G21
  22926666.303     -433639.25949   -306056.27945  22926666.479    22926676.455
       216.000         160.000
  20791299.660   -12639131.02849  -9824931.86248  20791299.033    20791307.869
       246.000         214.000
  24613602.749    -2204163.18549  -1707499.88145  24613601.458    24613624.151
       201.000         143.000
  22827336.569   -14925225.97049 -10644859.15246  22827336.214    22827347.625
       226.000         174.000
  23142952.018    -8818724.73049  -6530614.30745  23142950.579    23142966.610
       217.000         160.000
  22910878.637    12626867.21349   9846493.68246  22910878.779    22910893.679
       221.000         169.000
  20929299.227    -4248689.84649  -3139581.13447  20929298.658    20929307.830
       243.000         209.000
  22283242.592   -14332997.12749 -10581894.85147  22283241.803    22283253.051
       234.000         189.000
 00  4 18  1  8 30.0000000  0  8G26G23G22G 3G29G 6G17G21
  22942463.171     -350626.50249   -241371.06245  22942463.893    22942473.431
       217.000         160.000
  20793772.201   -12626137.57849  -9814807.08848  20793771.601    20793780.349
       246.000         214.000
  24624319.169    -2147849.28849  -1663619.20345  24624319.578    24624339.342
       206.000         142.000
  22812465.017   -15003376.32249 -10705755.40446  22812463.750    22812476.905
       223.000         175.000
  23123242.760    -8922295.67149  -6611318.50245  23123241.503    23123257.287
       215.000         161.000
  22930724.424    12731156.77949   9927758.05746  22930725.249    22930739.646
       221.000         168.000
  20933257.598    -4227888.45449  -3123372.27147  20933256.998    20933266.277
       243.000         209.000
  22273609.952   -14383616.22949 -10621338.19747  22273608.931    22273620.765
       234.000         189.000
 00  4 18  1  9  0.0000000  0  8G26G23G22G 3G29G 6G17G21
  22958333.023     -267229.79049   -176386.65545  22958332.777    22958343.348
       215.000         159.000
  20796301.924   -12612843.84549  -9804448.33048  20796301.190    20796310.028
       246.000         214.000
  24635081.451    -2091293.93149  -1619550.33445  24635081.918    24635102.401
       206.000         143.000
  22797665.389   -15081148.05549 -10766356.64346  22797664.885    22797675.976
       225.000         175.000
  23103569.927    -9025675.40349  -6691873.70845  23103568.582    23103583.698
       218.000         161.000
  22950619.294    12835704.12849  10009223.30546  22950619.777    22950633.636
       223.000         168.000
  20937268.466    -4206811.37949  -3106948.58447  20937268.011    20937277.148
       243.000         209.000
  22264019.684   -14434013.31949 -10660608.55547  22264018.900    22264030.429
       235.000         190.000
 00  4 18  1  9 30.0000000  0  8G26G23G22G 3G29G 6G17G21
  22974280.165     -183426.86949   -111085.72945  22974280.986    22974291.039
       217.000         159.000
  20798888.781   -12599249.78449  -9793855.54848  20798888.069    20798896.972
       246.000         214.000
  24645889.499    -2034498.48649  -1575294.43345  24645887.097    24645910.648
       199.000         143.000
  22782937.209   -15158544.98949 -10826665.79646  22782935.842    22782949.604
       224.000         176.000
  23083932.732    -9128868.04449  -6772283.12645  23083931.187    23083947.730
       215.000         161.000
  22970564.372    12940515.22749  10090894.07246  22970564.279    22970578.998
       222.000         167.000
  20941333.852    -4185447.77449  -3090301.63047  20941333.137    20941342.640
       243.000         209.000
  22254470.113   -14484196.29649 -10699712.07647  22254469.222    22254480.879
       234.000         190.000
 00  4 18  1 10  0.0000000  0  8G26G23G22G 3G29G 6G17G21
  22990308.238      -99199.02349    -45453.69645  22990308.431    22990318.925
       217.000         158.000
  20801532.535   -12585356.58149  -9783029.67248  20801531.819    20801540.746
       246.000         214.000
  24656742.625    -1977465.44049  -1530853.35645  24656742.492    24656761.462
       206.000         141.000
  22768277.145   -15235583.23049 -10886695.47646  22768277.489    22768288.752
       226.000         175.000
  23064327.728    -9231891.43749  -6852560.66545  23064325.570    23064340.674
       216.000         160.000
  22990558.113    13045582.05849  10172764.11546  22990558.637    22990572.644
       221.000         167.000
  20945453.794    -4163797.36749  -3073431.19947  20945453.125    20945462.540
       242.000         208.000
  22244961.179   -14534165.60749 -10738649.10547  22244960.494    22244971.958
       234.000         190.000
 00  4 18  1 10 30.0000000  0  8G26G23G22G 3G29G 6G17G21
  23006419.068      -14536.03949     20517.41245  23006419.067    23006429.626
       216.000         158.000
  20804235.543   -12571152.28549  -9771961.38648  20804234.988    20804243.816
       246.000         214.000
  24667640.028    -1920200.72649  -1486231.75645  24667639.469    24667662.384
       204.000         143.000
  22753685.166   -15312264.13149 -10946446.68846  22753684.672    22753696.503
       224.000         175.000
  23044752.386    -9334758.80649  -6932716.62945  23044751.281    23044766.516
       215.000         161.000
  23010597.730    13150890.05549  10254822.06246  23010598.024    23010611.545
       222.000         166.000
  20949628.425    -4141859.55749  -3056336.81747  20949627.675    20949636.906
       242.000         208.000
  22235495.732   -14583906.56849 -10777408.20047  22235495.027    22235506.295
       235.000         190.000
 00  4 18  1 11  0.0000000  0  8G26G23G22G 3G29G 6G17G21
  23022611.904       70557.74349     86824.20645  23022611.997    23022621.973
       216.000         157.000
  20806997.451   -12556638.41749  -9760651.87348  20806996.856    20807005.661
       245.000         214.000
  24678581.524    -1862702.58749  -1441428.34245  24678583.482    24678603.342
       210.000         142.000
  22739165.042   -15388567.09549 -11005903.42046  22739164.104    22739176.527
       225.000         176.000
  23025208.592    -9437460.37449  -7012743.39645  23025207.541    23025222.704
       217.000         162.000
  23030680.379    13256424.21749  10337056.25446  23030680.432    23030695.820
       220.000         166.000
  20953858.337    -4119631.23849  -3039016.06247  20953857.776    20953866.866
       243.000         208.000
  22226077.331   -14633400.11249 -10815974.50347  22226076.447    22226087.799
       234.000         190.000
 00  4 18  1 11 30.0000000  0  8G26G23G22G 3G29G 6G17G21
  23038884.823      156072.69549    153459.17045  23038884.312    23038895.088
       216.000         157.000
  20809814.359   -12541835.31249  -9749116.98448  20809814.006    20809822.673
       246.000         214.000
  24689566.004    -1804980.93349  -1396450.65945  24689565.659    24689584.556
       202.000         142.000
  22724719.119   -15464480.47149 -11065056.56346  22724718.215    22724731.250
       225.000         176.000
  23005698.008    -9539987.46449  -7092634.21246  23005696.987    23005712.281
       219.000         164.000
  23050803.168    13362169.20549  10419454.70546  23050803.131    23050818.843
       219.000         166.000
  20958145.633    -4097101.32249  -3021460.29747  20958144.958    20958154.379
       243.000         208.000
  22216708.368   -14682633.76749 -10854338.30347  22216707.184    22216719.070
       235.000         190.000
 00  4 18  1 12  0.0000000  0  8G26G23G22G 3G29G 6G17G21
  23055233.595      241985.72649    220404.34745  23055234.633    23055244.011
       216.000         156.000
  20812683.616   -12526757.30849  -9737367.88448  20812682.929    20812691.811
       246.000         214.000
  24700590.534    -1747046.72949  -1351307.41345  24700590.617    24700612.052
       208.000         143.000
  22710349.565   -15539992.78149 -11123897.21346  22710349.582    22710360.289
       225.000         176.000
  22986223.891    -9642322.89949  -7172375.70346  22986222.499    22986237.299
       219.000         164.000
  23070965.938    13468124.20849  10502016.78446  23070966.003    23070980.486
       222.000         167.000
  20962487.549    -4074284.47849  -3003680.95647  20962487.002    20962496.222
       244.000         208.000
  22207391.489   -14731593.92349 -10892488.97847  22207390.563    22207402.332
       235.000         190.000
 00  4 18  1 12 30.0000000  0  8G26G23G22G 3G29G 6G17G21
  23071653.183      328270.84749    287639.45545  23071652.767    23071663.509
       214.000         155.000
  20815600.670   -12511427.82849  -9725422.82548  20815600.240    20815608.756
       246.000         214.000
  24711652.371    -1688918.22549  -1306012.75345  24711651.849    24711671.260
       204.000         141.000
  22696058.152   -15615093.67449 -11182417.26446  22696057.666    22696069.706
       225.000         176.000
  22966789.161    -9744451.57849  -7251956.07546  22966787.914    22966802.913
       219.000         165.000
  23091168.799    13574290.00349  10584743.14346  23091169.346    23091184.051
       221.000         167.000
  20966883.195    -4051185.20749  -2985681.53947  20966882.469    20966891.911
       244.000         208.000
  22198128.771   -14780269.51649 -10930417.92447  22198127.786    22198139.153
       234.000         191.000
 00  4 18  1 13  0.0000000  0  8G26G23G22G 3G29G 6G17G21
  23088143.523      414927.76649    355164.27945  23088143.541    23088154.105
       214.000         155.000
  20818560.273   -12495875.17849  -9713303.86648  20818559.731    20818568.435
       246.000         214.000
  24722750.308    -1630599.37349  -1260569.78245  24722750.616    24722771.892
       208.000         144.000
  22681844.736   -15689785.50049 -11240618.56146  22681844.326    22681856.181
       226.000         177.000
  22947393.013    -9846377.32549  -7331378.33146  22947390.922    22947406.487
       219.000         164.000
  23111409.275    13680653.66049  10667623.68346  23111410.733    23111424.988
       221.000         165.000
  20971333.010    -4027801.26349  -2967460.29347  20971332.289    20971341.619
       244.000         208.000
  22188917.150   -14828676.48249 -10968137.55047  22188916.363    22188927.243
       235.000         191.000
 00  4 18  1 13 30.0000000  0  8G26G23G22G 3G29G 6G17G21
  23104705.405      501961.00049    422982.33645  23104705.725    23104716.825
       214.000         155.000
  20821559.895   -12480112.01649  -9701020.87048  20821559.364    20821568.062
       246.000         214.000
  24733881.258    -1572107.27149  -1214991.83145  24733881.250    24733902.341
       205.000         144.000
  22667705.233   -15764088.93349 -11298517.22446  22667705.454    22667716.337
       227.000         177.000
  22928032.519    -9948115.82249  -7410654.67846  22928031.044    22928045.858
       219.000         164.000
  23131683.789    13787196.11549  10750643.52946  23131683.719    23131698.606
       221.000         164.000
  20975836.102    -4004137.32349  -2949020.87247  20975835.531    20975844.776
       244.000         208.000
  22179750.834   -14876845.48049 -11005671.74347  22179749.819    22179761.440
       235.000         191.000
 00  4 18  1 14  0.0000000  0  8G26G23G22G 3G29G 6G17G21
  23121337.788      589364.79849    491089.13745  23121337.311    23121348.217
       214.000         155.000
  20824599.891   -12464136.78849  -9688572.63248  20824599.200    20824608.037
       246.000         214.000
  24745043.614    -1513450.19449  -1169285.30445  24745043.243    24745064.249
       207.000         142.000
  22653641.065   -15837995.72449 -11356106.81046  22653640.331    22653652.046
       226.000         177.000
  22908706.486   -10049673.22349  -7489789.91346  22908704.804    22908719.745
       220.000         165.000
  23151990.101    13893905.40549  10833793.38046  23151990.341    23152005.619
       219.000         164.000
  20980389.756    -3980207.75949  -2930374.46947  20980389.049    20980398.420
       244.000         208.000
  22170625.496   -14924798.91849 -11043037.97147  22170624.766    22170636.310
       234.000         191.000
 00  4 18  1 14 30.0000000  0  8G26G23G22G 3G29G 6G17G21
  23138041.733      677144.24049    559488.64845  23138042.496    23138051.426
       213.000         154.000
  20827680.924   -12447945.94349  -9675956.38148  20827680.377    20827689.024
       245.000         213.000
  24756238.449    -1454622.24849  -1123445.64245  24756238.093    24756261.614
       206.000         143.000
  22639651.464   -15911511.20249 -11413391.48046  22639651.266    22639662.498
       226.000         178.000
  22889409.704   -10151076.76449  -7568805.27746  22889408.482    22889423.167
       219.000         166.000
  23172325.347    14000766.87549  10917061.79346  23172325.443    23172340.743
       218.000         163.000
  20984995.716    -3956003.57849  -2911514.07547  20984995.030    20985004.393
       244.000         208.000
  22161535.834   -14972565.14449 -11080258.31347  22161534.909    22161546.277
       235.000         191.000
 00  4 18  1 15  0.0000000  0  8G26G23G22G 3G29G 6G17G21
  23154818.924      765308.85349    628188.28345  23154819.392    23154828.660
       214.000         153.000
  20830805.333   -12431527.15249  -9663162.50648  20830804.664    20830813.336
       245.000         213.000
  24767468.402    -1395609.49049  -1077461.97545  24767468.708    24767489.063
       205.000         141.000
  22625733.611   -15984649.61549 -11470382.34146  22625733.611    22625744.171
       225.000         178.000
  22870140.751   -10252334.42349  -7647706.97546  22870139.832    22870153.327
       221.000         167.000
  23192690.580    14107786.12549  11000453.14146  23192691.244    23192705.865
       221.000         164.000
  20989653.215    -3931528.48949  -2892442.58647  20989652.396    20989661.555
       244.000         208.000
  22152476.554   -15020171.90049 -11117354.39947  22152475.840    22152487.003
       235.000         192.000
 00  4 18  1 15 30.0000000  0  8G26G23G22G 3G29G 6G17G21
  23171666.836      853845.18549    697177.57545  23171667.039    23171677.161
       214.000         153.000
  20833977.120   -12414859.01249  -9650174.33648  20833976.558    20833985.147
       245.000         213.000
  24778731.014    -1336424.55649  -1031344.12945  24778729.632    24778753.539
       199.000         139.000
  22611886.988   -16057413.33549 -11527081.21546  22611885.717    22611898.922
       227.000         178.000
  22850901.073   -10353438.06349  -7726488.66946  22850899.152    22850913.783
       220.000         168.000
  23213088.497    14214976.83249  11083978.08246  23213089.273    23213103.610
       221.000         163.000
  20994362.698    -3906779.86849  -2873157.95247  20994362.046    20994371.230
       244.000         207.000
  22143448.061   -15067616.65849 -11154324.24947  22143447.350    22143458.181
       235.000         192.000
 00  4 18  1 16  0.0000000  0  8G26G23G22G 3G29G 6G17G21
  23188584.626      942748.05449    766452.49045  23188584.267    23188594.254
       213.000         152.000
  20837198.146   -12397932.35449  -9636984.72748  20837197.528    20837206.271
       245.000         213.000
  24790028.606    -1277056.07649   -985083.29245  24790027.311    24790051.040
       203.000         140.000
  22598115.181   -16129784.59649 -11583474.32546  22598114.301    22598125.930
       225.000         179.000
  22831692.197   -10454379.77249  -7805144.19146  22831690.609    22831705.284
       221.000         168.000
  23233524.321    14322366.88649  11167658.36146  23233523.906    23233539.837
       218.000         163.000
  20999124.350    -3881757.16149  -2853659.74847  20999123.559    20999132.888
       244.000         207.000
  22134453.600   -15114882.32749 -11191154.55247  22134452.497    22134463.559
       235.000         192.000
 00  4 18  1 16 30.0000000  0  8G26G23G22G 3G29G 6G17G21
  23205571.696     1032015.47149    836011.44945  23205571.287    23205582.541
       213.000         151.000
  20840470.267   -12380737.15949  -9623585.86848  20840469.613    20840478.314
       245.000         213.000
  24801362.805    -1217495.48449   -938672.74045  24801363.004    24801384.825
       210.000         140.000
  22584415.114   -16201778.17049 -11639573.09246  22584414.115    22584425.572
       228.000         179.000
  22812517.335   -10555142.78949  -7883660.47646  22812516.274    22812529.912
       220.000         168.000
  23253998.782    14429960.03549  11251496.90146  23254000.091    23254014.700
       219.000         163.000
  21003939.419    -3856453.81249  -2833942.86447  21003938.736    21003947.879
       244.000         207.000
  22125496.293   -15161953.05149 -11227832.94447  22125495.598    22125506.658
       235.000         193.000
 00  4 18  1 17  0.0000000  0  8G26G23G22G 3G29G 6G17G21
  23222627.539     1121644.43849    905852.15845  23222626.870    23222637.770
       213.000         150.000
  20843793.788   -12363271.96049  -9609976.61948  20843793.322    20843801.881
       245.000         213.000
  24812731.285    -1157755.38749   -892122.32145  24812732.093    24812753.040
       208.000         139.000
  22570790.136   -16273377.81149 -11695364.91546  22570789.568    22570801.432
       228.000         180.000
  22793382.724   -10655694.19949  -7962011.87346  22793381.540    22793395.923
       221.000         168.000
  23274513.204    14537763.09249  11335499.01245  23274513.480    23274528.496
       219.000         161.000
  21008807.013    -3830874.47849  -2814010.92347  21008806.136    21008815.261
       244.000         207.000
  22116581.334   -15208800.99549 -11264337.74447  22116580.430    22116591.565
       236.000         193.000
 00  4 18  1 17 30.0000000  0  8G26G23G22G 3G29G 6G17G21
  23239750.637     1211626.85049    975968.26145  23239750.865    23239759.938
       212.000         150.000
  20847167.836   -12345541.32749  -9596160.53748  20847166.977    20847175.920
       245.000         213.000
  24824132.367    -1097843.03849   -845437.71245  24824133.800    24824154.699
       207.000         141.000
  22557243.365   -16344566.03149 -11750836.15046  22557242.576    22557253.861
       226.000         180.000
  22774291.347   -10756018.70349  -8040186.48146  22774290.457    22774303.815
       220.000         169.000
  23295066.063    14645768.08249  11419658.47645  23295066.741    23295081.896
       220.000         160.000
  21013728.913    -3805009.52049  -2793856.41847  21013728.279    21013737.758
       244.000         207.000
  22107713.825   -15255399.68549 -11300648.31347  22107713.169    22107724.278
       235.000         193.000
 00  4 18  1 18  0.0000000  0  8G26G23G22G 3G29G 6G17G21
  23256941.307     1301964.00849   1046360.79245  23256941.624    23256952.685
       211.000         149.000
  20850588.382   -12327566.01449  -9582153.79748  20850587.549    20850596.455
       245.000         213.000
  24835569.358    -1037743.63949   -798607.31445  24835570.223    24835590.821
       207.000         140.000
  22543776.300   -16415335.29549 -11805980.92646  22543775.899    22543787.790
       227.000         180.000
  22755244.451   -10856109.43449  -8118178.92646  22755243.443    22755257.447
       222.000         170.000
  23315656.083    14753968.54549  11503970.24145  23315655.947    23315672.644
       218.000         159.000
  21018703.205    -3778869.59549  -2773487.66047  21018702.525    21018711.746
       243.000         207.000
  22098894.931   -15301742.91949 -11336759.82047  22098893.754    22098905.108
       235.000         193.000
 00  4 18  1 18 30.0000000  0  8G26G23G22G 3G29G 6G17G21
  23274198.678     1392651.74349   1117026.51245  23274198.727    23274209.660
       212.000         148.000
  20854051.343   -12309367.86649  -9567973.41748  20854050.661    20854059.405
       245.000         213.000
  24847037.218     -977480.59449   -751649.41845  24847036.385    24847059.387
       203.000         139.000
  22530388.097   -16485690.15949 -11860802.76746  22530387.557    22530398.675
       229.000         180.000
  22736243.264   -10955960.22549  -8195984.42446  22736242.657    22736256.232
       221.000         170.000
  23336278.706    14862340.15249  11588415.36745  23336279.810    23336294.372
       218.000         160.000
  21023731.147    -3752447.72349  -2752899.20747  21023730.524    21023739.774
       243.000         207.000
  22090122.878   -15347839.87349 -11372679.41647  22090122.097    22090133.534
       235.000         193.000
 00  4 18  1 19  0.0000000  0  8G26G23G22G 3G29G 6G17G21
  23291520.666     1483679.33949   1187957.04745  23291521.275    23291531.917
       212.000         148.000
  20857553.547   -12290963.36049  -9553632.24048  20857552.957    20857561.700
       245.000         213.000
  24858530.891     -917081.88449   -704585.82545  24858530.967    24858555.015
       201.000         139.000
  22517079.853   -16555624.87949 -11915297.25146  22517079.051    22517091.686
       228.000         180.000
  22717284.776   -11055586.37549  -8273614.86446  22717284.111    22717297.088
       222.000         170.000
  23356932.964    14970877.95249  11672989.99645  23356933.172    23356950.052
       218.000         160.000
  21028813.067    -3725741.98549  -2732089.56047  21028812.666    21028821.673
       244.000         207.000
  22081395.081   -15393704.22349 -11408417.76047  22081394.119    22081405.116
       235.000         193.000
 00  4 18  1 19 30.0000000  0  8G26G23G22G 3G29G 6G17G21
  23308905.464     1575036.79849   1259144.62845  23308905.461    23308915.388
       210.000         147.000
  20861096.793   -12272343.53549  -9539123.28448  20861096.144    20861104.998
       245.000         213.000
  24870052.220     -856538.63449   -657409.59445  24870051.332    24870074.043
       206.000         138.000
  22503850.773   -16625143.44849 -11969467.44646  22503849.629    22503861.438
       228.000         181.000
  22698367.024   -11154998.45149  -8351078.49446  22698365.978    22698379.470
       222.000         170.000
  23377616.518    15079569.57649  11757684.48545  23377616.033    23377632.587
       217.000         161.000
  21033950.583    -3698744.08849  -2711052.24747  21033950.059    21033959.131
       243.000         206.000
  22072709.287   -15439348.05149 -11443984.27347  22072708.892    22072719.909
       235.000         194.000
 00  4 18  1 20  0.0000000  0  7G26G23G 3G29G 6G17G21
  23326352.510     1666721.55149   1330587.24245  23326353.082    23326363.400
       211.000         146.000
  20864683.604   -12253494.74249  -9524435.90847  20864683.040    20864691.836
       244.000         212.000
  22490702.776   -16694236.17149 -12023305.81346  22490703.340    22490713.922
       231.000         182.000
  22679491.292   -11254189.77549  -8428370.11546  22679490.775    22679504.065
       223.000         170.000
  23398327.501    15188405.36149  11842491.30045  23398327.915    23398344.017
       218.000         161.000
  21039143.651    -3671454.57449  -2689787.70947  21039142.944    21039152.184
       243.000         206.000
  22064064.162   -15484778.01449 -11479384.13547  22064063.417    22064074.320
       236.000         194.000
 00  4 18  1 20 30.0000000  0  7G26G23G 3G29G 6G17G21
  23343861.589     1758732.03249   1402283.67045  23343860.781    23343871.435
       211.000         146.000
  20868316.840   -12234402.01349  -9509558.45147  20868316.315    20868325.060
       244.000         212.000
  22477634.738   -16762909.37949 -12076817.28646  22477633.888    22477645.844
       229.000         182.000
  22660656.476   -11353166.01949  -8505494.15246  22660655.415    22660668.758
       222.000         170.000
  23419062.925    15297369.55749  11927398.18545  23419064.109    23419079.763
       218.000         160.000
  21044393.106    -3643868.53949  -2668292.12547  21044392.340    21044401.768
       243.000         206.000
  22055460.091   -15529992.17649 -11514615.85147  22055459.283    22055470.370
       235.000         194.000
 00  4 18  1 21  0.0000000  0  7G26G23G 3G29G 6G17G21
  23361434.586     1851078.58149   1474241.95645  23361435.245    23361444.899
       209.000         144.000
  20872003.640   -12215027.77749  -9494461.63447  20872003.043    20872011.595
       244.000         212.000
  22464648.946   -16831149.36749 -12129991.18046  22464648.108    22464659.412
       229.000         182.000
  22641863.536   -11451922.31249  -8582446.79446  22641862.025    22641875.488
       222.000         170.000
  23439825.269    15406475.09949  12012415.20545  23439825.846    23439842.091
       216.000         160.000
  21049699.567    -3615982.98849  -2646563.15247  21049698.817    21049708.194
       243.000         206.000
  22046901.642   -15574966.87449 -11549660.96747  22046900.418    22046911.854
       236.000         194.000
 00  4 18  1 21 30.0000000  0  7G26G23G 3G29G 6G17G21
  23379075.930     1943784.12849   1546479.98245  23379076.712    23379086.320
       209.000         144.000
  20875746.548   -12195358.43849  -9479134.86547  20875745.832    20875754.901
       244.000         212.000
  22451749.314   -16898937.00049 -12182812.58246  22451749.207    22451760.812
       230.000         182.000
  22623116.082   -11550439.58449  -8659213.17346  22623114.893    22623128.283
       222.000         170.000
  23460619.038    15515745.65349  12097560.79445  23460619.691    23460635.878
       217.000         159.000
  21055065.545    -3587784.77549  -2624590.53447  21055064.832    21055074.259
       243.000         206.000
  22038393.413   -15619677.57049 -11584500.37147  22038392.668    22038403.523
       235.000         194.000
 00  4 18  1 22  0.0000000  0  7G26G23G 3G29G 6G17G21
  23396787.226     2036857.29849   1619004.47245  23396785.512    23396798.916
       209.000         143.000
  20879541.226   -12175417.30149  -9463596.30547  20879540.515    20879549.435
       244.000         212.000
  22438934.875   -16966276.73749 -12235284.98246  22438934.039    22438945.437
       230.000         182.000
  22604414.804   -11648713.91849  -8735790.24946  22604414.080    22604426.861
       222.000         170.000
  23481447.135    15625196.82149  12182847.13545  23481447.742    23481463.701
       217.000         159.000
  21060491.246    -3559272.50049  -2602373.20147  21060490.236    21060499.988
       243.000         206.000
  22029936.455   -15664118.57649 -11619129.63547  22029935.793    22029946.595
       235.000         194.000
 00  4 18  1 22 30.0000000  0  7G26G23G 3G29G 6G17G21
  23414567.890     2130294.91149   1691812.94445  23414567.672    23414578.547
       209.000         143.000
  20883383.233   -12155227.50049  -9447863.98347  20883382.625    20883391.368
       244.000         212.000
  22426203.412   -17033180.53749 -12287417.68046  22426202.753    22426213.940
       230.000         183.000
  22585756.822   -11746760.94049  -8812190.19246  22585755.417    22585768.810
       222.000         170.000
  23502310.729    15734834.59149  12268278.86445  23502311.528    23502326.584
       218.000         159.000
  21065975.331    -3530453.60849  -2579916.94947  21065974.639    21065984.236
       243.000         206.000
  22021528.738   -15708301.12849 -11653557.50347  22021528.203    22021539.052
       236.000         194.000
 00  4 18  1 23  0.0000000  0  7G26G23G 3G29G 6G17G21
  23432411.777     2224065.00649   1764880.48645  23432412.368    23432422.119
       208.000         142.000
  20887268.669   -12134809.13449  -9431953.55747  20887268.085    20887276.671
       244.000         212.000
  22413555.617   -17099645.10649 -12339208.12946  22413554.779    22413566.388
       230.000         182.000
  22567142.053   -11844580.76849  -8888413.11746  22567141.543    22567153.280
       223.000         171.000
  23523208.404    15844651.50349  12353850.19045  23523208.292    23523225.029
       218.000         159.000
  21071515.888    -3501337.55249  -2557229.13847  21071515.254    21071524.433
       242.000         206.000
  22013165.170   -15752251.64449 -11687804.57047  22013164.353    22013175.064
       236.000         194.000
 00  4 18  1 23 30.0000000  0  7G26G23G 3G29G 6G17G21
  23450315.658     2318150.26449   1838193.61945  23450316.424    23450325.426
       209.000         141.000
  20891192.545   -12114189.01549  -9415885.91847  20891191.919    20891200.557
       244.000         212.000
  22400991.199   -17165671.12149 -12390656.85746  22400990.237    22401001.681
       230.000         183.000
  22548571.674   -11942167.67649  -8964454.54646  22548570.779    22548583.495
       224.000         172.000
  23544137.202    15954631.72749  12439548.77345  23544137.763    23544153.937
       218.000         159.000
  21077113.715    -3471920.97749  -2534307.15847  21077113.338    21077122.417
       243.000         205.000
  22004841.806   -15795990.99949 -11721887.10047  22004841.066    22004851.684
       235.000         194.000
 00  4 18  1 24  0.0000000  0  7G26G23G 3G29G 6G17G21
  23468277.642     2412540.85949   1911744.67545  23468277.110    23468287.552
       208.000         141.000
  20895155.202   -12093364.98849  -9399659.39147  20895154.635    20895163.516
       244.000         212.000
  22388509.141   -17231264.25049 -12441768.26846  22388508.048    22388519.684
       230.000         183.000
  22530045.659   -12039521.38949  -9040314.27646  22530045.044    22530057.881
       225.000         172.000
  23565091.468    16064746.14849  12525351.90945  23565093.615    23565107.874
       220.000         159.000
  21082767.918    -3442208.07649  -2511154.27347  21082767.184    21082776.690
       242.000         205.000
  21996555.286   -15839536.36749 -11755818.46247  21996554.472    21996565.460
       236.000         194.000
 00  4 18  1 24 30.0000000  0  7G26G23G 3G29G 6G17G21
  23486297.170     2507234.08049   1985531.53945  23486297.724    23486308.346
       208.000         141.000
  20899160.790   -12072315.68249  -9383257.32147  20899160.162    20899168.968
       244.000         212.000
  22376112.063   -17296410.85249 -12492531.73346  22376111.151    22376122.407
       231.000         183.000
  22511564.476   -12136639.41149  -9115990.35846  22511563.469    22511576.558
       225.000         173.000
  23586068.285    16174979.01649  12611247.34745  23586068.535    23586084.541
       218.000         160.000
  21088479.510    -3412193.56649  -2487766.36447  21088479.040    21088488.517
       242.000         205.000
  21988305.694   -15882887.93349 -11789598.81347  21988305.113    21988315.725
       236.000         195.000
 00  4 18  1 25  0.0000000  0  7G26G23G 3G29G 6G17G21
  23504375.306     2602234.72249   2059557.96945  23504375.989    23504386.219
       208.000         140.000
  20903212.579   -12051023.16649  -9366665.73747  20903211.947    20903220.754
       244.000         212.000
  22363801.989   -17361100.59949 -12542939.23946  22363801.163    22363812.207
       230.000         183.000
  22493131.256   -12233505.36749  -9191470.03046  22493130.130    22493142.444
       224.000         173.000
  23607068.795    16285336.20449  12697239.66945  23607068.996    23607086.468
       217.000         160.000
  21094250.842    -3381865.11049  -2464133.81847  21094250.194    21094259.478
       242.000         205.000
  21980093.921   -15926040.51349 -11823224.11147  21980092.988    21980104.023
       235.000         195.000
 00  4 18  1 25 30.0000000  0  7G26G23G 3G29G 6G17G21
  23522516.044     2697564.93849   2133841.19545  23522516.191    23522526.306
       207.000         140.000
  20907310.269   -12029489.62349  -9349886.33847  20907309.721    20907318.454
       244.000         212.000
  22351578.054   -17425336.90749 -12592993.39946  22351576.825    22351588.682
       230.000         183.000
  22474745.179   -12330123.58849  -9266756.66346  22474743.709    22474757.373
       225.000         174.000
  23628095.537    16395831.30849  12783339.42845  23628094.670    23628111.861
       217.000         159.000
  21100082.684    -3351218.72349  -2440253.53347  21100081.757    21100091.505
       242.000         205.000
  21971924.020   -15968973.06549 -11856677.95547  21971923.374    21971934.368
       236.000         195.000
 00  4 18  1 26  0.0000000  0  7G26G23G 3G29G 6G17G21
  23540719.316     2793223.78249   2208380.50645  23540719.019    23540730.115
       207.000         139.000
  20911453.506   -12007716.82349  -9332920.50547  20911452.852    20911461.596
       244.000         212.000
  22339440.837   -17489117.80549 -12642692.70246  22339439.848    22339450.836
       232.000         184.000
  22456404.687   -12426502.45949  -9341856.79746  22456403.425    22456416.745
       226.000         175.000
  23649149.500    16506469.47849  12869550.67545  23649150.894    23649165.208
       218.000         158.000
  21105972.880    -3320265.62049  -2416134.24147  21105971.960    21105981.586
       242.000         205.000
  21963796.024   -16011685.75149 -11889960.47747  21963795.281    21963806.077
       236.000         195.000
 00  4 18  1 26 30.0000000  0  7G26G23G 3G29G 6G17G21
  23558981.637     2889192.69049   2283161.39945  23558982.016    23558991.721
       206.000         139.000
  20915639.757   -11985717.75749  -9315778.36747  20915639.124    20915647.724
       244.000         212.000
  22327390.042   -17552444.69149 -12692038.22546  22327389.960    22327401.043
       232.000         184.000
  22438111.026   -12522635.07949  -9416765.05646  22438110.240    22438123.376
       226.000         175.000
  23670232.783    16617261.89049  12955882.10545  23670231.849    23670251.596
       214.000         158.000
  21111919.917    -3289013.68549  -2391782.09547  21111919.212    21111928.533
       242.000         205.000
  21955710.843   -16054173.32249 -11923067.58347  21955709.968    21955721.043
       236.000         195.000
 00  4 18  1 27  0.0000000  0  7G26G23G 3G29G 6G17G21
  23577300.833     2985460.19549   2358174.99245  23577301.194    23577312.091
       205.000         139.000
  20919866.000   -11963508.63949  -9298472.54947  20919865.389    20919874.292
       244.000         212.000
  22315425.040   -17615320.64049 -12741032.38346  22315423.953    22315435.369
       230.000         184.000
  22419864.929   -12618517.76549  -9491478.56146  22419864.061    22419875.999
       226.000         176.000
  23691345.684    16728209.48249  13042334.46145  23691346.592    23691362.707
       216.000         157.000
  21117921.587    -3257474.76249  -2367206.32447  21117920.758    21117930.236
       242.000         205.000
  21947667.082   -16096443.26049 -11956005.10947  21947666.537    21947677.026
       236.000         195.000
 00  4 18  1 27 30.0000000  0  7G26G23G 3G29G 6G17G21
  23595675.133     3082017.74149   2433414.57945  23595674.245    23595685.716
       204.000         137.000
  20924128.710   -11941107.88749  -9281017.40947  20924128.048    20924137.067
       244.000         212.000
  22303546.124   -17677744.51749 -12789674.27046  22303545.427    22303556.858
       231.000         184.000
  22401665.089   -12714157.36149  -9566002.65546  22401663.961    22401676.967
       225.000         176.000
  23712482.999    16839285.31749  13128886.74845  23712482.410    23712501.932
       215.000         157.000
  21123977.134    -3225652.54949  -2342409.80747  21123976.445    21123985.655
       242.000         205.000
  21939663.729   -16138500.73449 -11988777.07747  21939662.708    21939673.548
       236.000         195.000
 00  4 18  1 28  0.0000000  0  7G26G23G 3G29G 6G17G21
  23614101.771     3178850.09749   2508868.30045  23614102.247    23614112.989
       205.000         137.000
  20928428.760   -11918511.04349  -9263409.46747  20928428.121    20928437.057
       244.000         212.000
  22291753.877   -17739713.10149 -12837961.39146  22291753.660    22291764.320
       230.000         185.000
  22383512.742   -12809547.75149  -9640332.55846  22383511.288    22383524.341
       226.000         176.000
  23733640.812    16950469.33249  13215523.31545  23733640.982    23733658.964
       219.000         157.000
  21130086.671    -3193546.82849  -2317392.38847  21130085.916    21130095.246
       242.000         205.000
  21931697.605   -16180362.67749 -12021396.68747  21931696.832    21931707.382
       236.000         195.000
 00  4 18  1 28 30.0000000  0  7G26G23G 3G29G 6G17G21
  23632582.120     3275964.85049   2584542.06445  23632581.484    23632593.072
       204.000         136.000
  20932766.592   -11895715.46249  -9245646.67047  20932766.178    20932774.661
       244.000         211.000
  22280048.945   -17801222.27549 -12885890.53246  22280048.234    22280059.499
       230.000         185.000
  22365409.362   -12904680.29049  -9714461.54846  22365408.800    22365421.177
       226.000         176.000
  23754817.159    17061750.33549  13302235.44045  23754818.172    23754834.417
       215.000         157.000
  21136250.866    -3161153.95049  -2292151.19847  21136250.158    21136259.452
       243.000         205.000
  21923770.465   -16222019.55349 -12053856.50647  21923769.660    21923780.272
       236.000         195.000
 00  4 18  1 29  0.0000000  0  7G26G23G 3G29G 6G17G21
  23651119.444     3373378.79449   2660448.96945  23651119.121    23651129.769
       205.000         135.000
  20937142.751   -11872718.55049  -9227726.99347  20937142.158    20937150.990
       244.000         211.000
  22268433.514   -17862261.63249 -12933453.58946  22268433.284    22268444.754
       232.000         185.000
  22347353.301   -12999564.46249  -9788397.00446  22347353.019    22347364.286
       225.000         176.000
  23776008.024    17173107.59849  13389006.97545  23776007.682    23776025.349
       213.000         157.000
  21142469.571    -3128474.56249  -2266686.74947  21142468.783    21142478.274
       243.000         205.000
  21915880.521   -16263481.19049 -12086164.19747  21915879.752    21915890.611
       236.000         195.000
 00  4 18  1 29 30.0000000  0  7G26G23G 3G29G 6G17G21
  23669714.529     3471096.35849   2736592.47445  23669714.378    23669726.110
       204.000         135.000
  20941555.801   -11849527.82649  -9209656.28947  20941555.103    20941563.892
       244.000         211.000
  22256906.224   -17922837.99049 -12980655.87046  22256905.935    22256916.869
       231.000         186.000
  22329343.313   -13094206.45049  -9862143.75346  22329342.778    22329354.173
       225.000         177.000
  23797210.819    17284527.85249  13475827.59845  23797211.943    23797228.508
       216.000         156.000
  21148742.680    -3095509.18049  -2240999.46847  21148742.031    21148751.374
       242.000         205.000
  21908028.372   -16304744.24849 -12118317.15047  21908027.408    21908038.304
       236.000         196.000
 00  4 18  1 30  0.0000000  0  7G26G23G 3G29G 6G17G21
  23688366.082     3569110.56049   2812967.11745  23688365.576    23688375.984
       204.000         134.000
  20946007.206   -11826135.60249  -9191428.57647  20946006.511    20946015.334
       244.000         211.000
  22245466.368   -17982954.18049 -13027499.57846  22245465.705    22245476.617
       231.000         186.000
  22311380.637   -13188600.08449  -9935696.98946  22311379.274    22311392.162
       225.000         177.000
  23818427.965    17396023.49549  13562706.95445  23818429.994    23818445.712
       214.000         155.000
  21155068.398    -3062267.42749  -2215096.82847  21155067.711    21155077.151
       242.000         205.000
  21900214.208   -16345807.63249 -12150314.51547  21900213.558    21900224.357
       237.000         196.000
 00  4 18  1 30 30.0000000  0  7G26G23G 3G29G 6G17G21
  23707073.934     3667420.74949   2889572.39345  23707074.394    23707085.123
       201.000         135.000
  20950494.704   -11802553.51849  -9173052.91947  20950493.925    20950502.714
       244.000         211.000
  22234114.009   -18042610.88449 -13073985.25046  22234113.793    22234124.231
       231.000         186.000
  22293466.074   -13282740.47249 -10009052.89546  22293465.505    22293477.266
       225.000         177.000
  23839660.970    17507602.48449  13649651.26445  23839660.966    23839679.161
       211.000         154.000
  21161447.161    -3028746.81349  -2188976.89047  21161446.425    21161455.995
       242.000         205.000
  21892436.988   -16386676.75349 -12182160.50547  21892436.522    21892446.723
       237.000         196.000
 00  4 18  1 31  0.0000000  0  7G26G23G 3G29G 6G17G21
  23725834.942     3766010.20149   2966395.28145  23725835.526    23725845.023
       202.000         135.000
  20955018.014   -11778783.28849  -9154530.65447  20955017.493    20955025.973
       244.000         211.000
  22222847.252   -18101817.67849 -13120120.33746  22222846.424    22222857.664
       232.000         186.000
  22275599.795   -13376627.38649 -10082211.29146  22275599.134    22275610.762
       225.000         177.000
  23860911.719    17619274.52549  13736668.08845  23860911.215    23860928.506
       208.000         153.000
  21167880.703    -2994938.49549  -2162632.78047  21167880.211    21167889.613
       242.000         204.000
  21884694.562   -16427363.29049 -12213864.23047  21884693.962    21884704.380
       236.000         196.000
 00  4 18  1 31 30.0000000  0  7G26G23G 3G29G 6G17G21
  23744644.559     3864855.11349   3043417.22945  23744643.845    23744655.793
       202.000         134.000
  20959577.981   -11754820.58149  -9135858.41047  20959577.337    20959586.251
       244.000         211.000
  22211665.336   -18160579.01449 -13165908.32446  22211664.375    22211675.758
       231.000         186.000
  22257784.477   -13470246.50049 -10155161.02846  22257783.337    22257795.764
       226.000         177.000
  23882184.508    17731062.90849  13823775.53045  23882185.327    23882202.825
       214.000         151.000
  21174371.268    -2960830.51449  -2136055.16247  21174370.628    21174380.065
       242.000         204.000
  21876989.172   -16467854.95949 -12245416.10247  21876988.456    21876999.131
       237.000         196.000
 00  4 18  1 32  0.0000000  0  7G26G23G 3G29G 6G17G21
  23763500.458     3963943.24749   3120628.70745  23763500.161    23763511.120
       200.000         133.000
  20964176.749   -11730653.85249  -9117027.18247  20964176.093    20964185.003
       244.000         211.000
  22200570.294   -18218883.28349 -13211340.17046  22200569.386    22200580.664
       231.000         186.000
  22240024.872   -13563573.01149 -10227882.75346  22240023.992    22240035.753
       226.000         177.000
  23903483.658    17842989.40349  13910990.62545  23903484.502    23903501.693
       214.000         151.000
  21180922.347    -2926404.64149  -2109229.82747  21180921.813    21180931.223
       242.000         204.000
  21869320.906   -16508151.88949 -12276816.23447  21869320.095    21869330.499
       237.000         197.000
 00  4 18  1 32 30.0000000  0  7G26G23G 3G29G 6G17G21
  23782404.067     4063282.28849   3198035.69645  23782404.144    23782415.600
       200.000         132.000
  20968815.474   -11706277.44049  -9098032.57047  20968814.752    20968823.553
       244.000         211.000
  22189563.378   -18276724.41749 -13256411.12746  22189562.865    22189573.427
       231.000         186.000
  22222322.908   -13656596.51049 -10300368.37946  22222321.757    22222333.747
       226.000         178.000
  23924808.386    17955050.29949  13998310.43445  23924809.639    23924826.640
       214.000         150.000
  21187537.328    -2891642.65549  -2082142.59047  21187536.614    21187546.164
       242.000         204.000
  21861690.925   -16548247.44549 -12308059.44747  21861690.227    21861700.574
       237.000         197.000
 00  4 18  1 33  0.0000000  0  7G26G23G 3G29G 6G17G21
  23801356.558     4162877.69549   3275642.45945  23801355.554    23801367.492
       199.000         132.000
  20973498.341   -11681668.76149  -9078856.96647  20973497.660    20973506.461
       244.000         211.000
  22178646.351   -18334093.39049 -13301114.17046  22178646.073    22178656.742
       232.000         187.000
  22204679.528   -13749312.13749 -10372614.11046  22204678.281    22204690.422
       225.000         178.000
  23946157.141    18067237.26349  14085728.48345  23946157.410    23946176.724
       211.000         150.000
  21194215.966    -2856546.40349  -2054794.89247  21194215.360    21194224.434
       242.000         204.000
  21854103.939   -16588116.96849 -12339126.53147  21854103.019    21854113.549
       237.000         197.000
 00  4 18  1 33 30.0000000  0  7G26G23G 3G29G 6G17G21
  23820359.143     4262736.95749   3353454.80144  23820359.158    23820369.807
       199.000         131.000
  20978226.069   -11656824.39049  -9059497.70747  20978225.357    20978234.139
       244.000         211.000
  22167823.367   -18390968.49649 -13345432.37646  22167822.696    22167833.977
       233.000         187.000
  22187096.606   -13841709.77749 -10444612.05246  22187095.933    22187107.723
       225.000         178.000
  23967528.355    18179542.23049  14173238.46145  23967529.105    23967548.300
       211.000         150.000
  21200958.846    -2821112.42849  -2027184.02847  21200958.262    21200967.684
       241.000         204.000
  21846562.919   -16627745.07149 -12370005.49447  21846562.100    21846572.602
       238.000         197.000
 00  4 18  1 34  0.0000000  0  7G26G23G 3G29G 6G17G21
  23839415.961     4362880.94249   3431489.03544  23839414.717    23839425.941
       199.000         130.000
  20982998.132   -11631746.81249  -9039956.72547  20982997.483    20983006.294
       243.000         211.000
  22157096.079   -18447340.68249 -13389358.70246  22157095.342    22157106.678
       232.000         187.000
  22169573.027   -13933795.70049 -10516367.10646  22169572.225    22169583.939
       226.000         178.000
  23988917.111    18291939.41149  14260820.29545  23988917.918    23988935.264
       210.000         149.000
  21207766.102    -2785340.19549  -1999309.56647  21207765.709    21207775.095
       241.000         204.000
  21839068.198   -16667129.91349 -12400694.90247  21839067.378    21839077.632
       238.000         197.000
 00  4 18  1 34 30.0000000  0  7G26G23G 3G29G 6G17G21
  23858528.057     4463315.51949   3509749.68444  23858530.203    23858540.241
       197.000         130.000
  20987813.856   -11606439.98649  -9020237.11347  20987813.169    20987821.854
       243.000         211.000
  22146465.934   -18503202.14249 -13432887.06147  22146465.451    22146476.337
       232.000         188.000
  22152103.697   -14025596.91449 -10587900.33146  22152103.228    22152114.908
       227.000         179.000
  24010320.079    18404411.17249  14348460.24845  24010320.011    24010339.186
       212.000         148.000
  21214635.552    -2749241.10149  -1971180.42247  21214634.974    21214644.281
       241.000         203.000
  21831622.099   -16706259.25249 -12431185.21347  21831621.223    21831631.539
       237.000         197.000
 00  4 18  1 35  0.0000000  0  7G26G23G 3G29G 6G17G21
  23877692.262     4564024.33549   3588224.03844  23877692.757    23877705.647
       198.000         129.000
  20992670.542   -11580917.79749  -9000349.68747  20992669.807    20992678.745
       244.000         211.000
  22135934.669   -18558544.21449 -13476010.70347  22135933.862    22135945.223
       232.000         188.000
  22134687.468   -14117119.26149 -10659216.24846  22134686.605    22134698.874
       228.000         180.000
  24031736.981    18516956.37349  14436157.41045  24031738.654    24031756.594
       215.000         148.000
  21221564.873    -2712827.42449  -1942806.16047  21221563.987    21221573.696
       241.000         203.000
  21824224.310   -16745134.44849 -12461477.49347  21824223.604    21824233.870
       237.000         197.000
 00  4 18  1 35 30.0000000  0  7G26G23G 3G29G 6G17G21
  23896905.240     4664988.70049   3666897.50244  23896904.477    23896914.445
       198.000         128.000
  20997564.442   -11555200.26549  -8980310.04147  20997563.709    20997572.378
       244.000         211.000
  22125501.780   -18613368.88649 -13518731.17147  22125501.234    22125511.955
       233.000         188.000
  22117322.523   -14208371.84649 -10730321.97446  22117321.997    22117333.632
       228.000         180.000
  24053168.926    18629580.45149  14523916.04645  24053169.827    24053188.188
       214.000         148.000
  21228553.697    -2676100.95449  -1914188.15047  21228553.288    21228562.340
       240.000         203.000
  21816872.352   -16783768.94849 -12491582.21947  21816871.524    21816881.783
       237.000         197.000
 00  4 18  1 36  0.0000000  0  7G26G23G 3G29G 6G17G21
  23916166.718     4766208.53149   3745770.06244  23916168.031    23916179.493
       196.000         127.000
  21002495.580   -11529286.69649  -8960117.64047  21002494.785    21002503.809
       243.000         211.000
  22115165.069   -18667688.81049 -13561058.33547  22115164.900    22115175.320
       233.000         189.000
  22100005.491   -14299372.51949 -10801231.40046  22100004.695    22100016.342
       227.000         181.000
  24074615.548    18742281.61249  14611734.74145  24074617.249    24074632.726
       216.000         147.000
  21235599.897    -2639072.83749  -1885335.09047  21235599.161    21235608.793
       241.000         202.000
  21809564.539   -16822171.22749 -12521505.99847  21809563.723    21809574.197
       237.000         197.000
 00  4 18  1 36 30.0000000  0  7G26G23G 3G29G 6G17G21
  23935474.603     4867671.64249   3824832.15944  23935475.595    23935485.209
       195.000         126.000
  21007462.072   -11503187.75349  -8939780.79347  21007461.537    21007470.232
       243.000         211.000
  22104923.304   -18721509.45949 -13602996.44147  22104922.790    22104933.595
       233.000         189.000
  22082738.608   -14390109.70649 -10871935.51946  22082737.759    22082749.170
       229.000         181.000
  24096079.397    18855073.13749  14699623.85245  24096078.972    24096098.234
       216.000         147.000
  21242701.733    -2601752.60749  -1856254.40247  21242701.094    21242710.415
       241.000         202.000
  21802299.715   -16860347.68549 -12551253.81247  21802298.913    21802309.475
       237.000         198.000
 00  4 18  1 37  0.0000000  0  7G26G23G 3G29G 6G17G21
  23954827.249     4969370.74149   3904078.15844  23954825.280    23954838.811
       197.000         126.000
  21012463.419   -11476905.35049  -8919300.99247  21012462.675    21012471.523
       243.000         211.000
  22094774.925   -18774839.58449 -13644552.32747  22094774.366    22094785.555
       232.000         189.000
  22065523.802   -14480573.68849 -10942426.75746  22065523.586    22065534.840
       229.000         182.000
  24117559.910    18967952.43249  14787581.34545  24117559.731    24117579.845
       213.000         147.000
  21249857.871    -2564146.78749  -1826951.18147  21249857.080    21249866.736
       240.000         202.000
  21795072.815   -16898325.18249 -12580846.59847  21795072.086    21795082.502
       238.000         198.000
 00  4 18  1 37 30.0000000  0  7G26G23G 3G29G 6G17G21
  23974227.470     5071319.42849   3983518.63244  23974228.357    23974239.549
       196.000         127.000
  21017500.357   -11450435.87649  -8898675.41847  21017499.578    21017508.501
       243.000         211.000
  22084716.852   -18827694.68849 -13685738.06347  22084716.299    22084727.403
       232.000         189.000
  22048362.218   -14570757.93849 -11012700.02446  22048361.787    22048372.840
       229.000         183.000
  24139056.885    19080917.87049  14875605.97545  24139057.368    24139075.014
       215.000         146.000
  21257070.247    -2526245.61549  -1797417.81047  21257069.637    21257078.909
       240.000         201.000
  21787881.325   -16936116.34949 -12610294.19347  21787880.574    21787890.704
       237.000         198.000
 00  4 18  1 38  0.0000000  0  7G26G23G 3G29G 6G17G21
  23993676.165     5173522.59149   4063157.41144  23993673.855    23993687.510
       196.000         126.000
  21022572.066   -11423783.69949  -8877907.48547  21022571.317    21022580.291
       243.000         210.000
  22074748.581   -18880078.06249 -13726556.21447  22074747.510    22074759.196
       233.000         189.000
  22031258.143   -14660639.83449 -11082737.69446  22031257.698    22031268.734
       229.000         183.000
  24160567.940    19193957.67549  14963688.55045  24160568.826    24160585.831
       215.000         146.000
  21264337.992    -2488053.40749  -1767657.67347  21264337.386    21264346.710
       239.000         201.000
  21780722.734   -16973734.68549 -12639607.12147  21780721.920    21780732.139
       238.000         198.000
 00  4 18  1 38 30.0000000  0  7G26G23G 3G29G 6G17G21
  24013167.641     5275951.00649   4142971.69944  24013169.539    24013178.392
       198.000         125.000
  21027675.253   -11396966.32149  -8857010.82247  21027674.624    21027683.418
       243.000         210.000
  22064870.711   -18931986.29949 -13767004.12247  22064870.278    22064880.759
       233.000         190.000
  22014217.448   -14750188.43349 -11152515.64846  22014216.805    22014227.944
       228.000         183.000
  24182093.130    19307071.77549  15051829.00545  24182094.105    24182111.117
       214.000         145.000
  21271660.494    -2449573.42349  -1737673.29147  21271659.696    21271669.378
       240.000         201.000
  21773596.023   -17011185.64149 -12668789.62247  21773595.404    21773605.524
       238.000         198.000
 00  4 18  1 39  0.0000000  0  7G26G23G 3G29G 6G17G21
  24032700.625     5378597.80148   4222956.17444  24032698.199    24032711.396
       194.000         125.000
  21032811.849   -11369973.33049  -8835977.31947  21032811.238    21032819.893
       243.000         210.000
  22055082.757   -18983422.01749 -13807083.82347  22055081.785    22055093.264
       233.000         190.000
  21997240.033   -14839404.42749 -11222034.42946  21997239.618    21997250.764
       229.000         184.000
  24203630.525    19420250.11449  15140019.53245  24203630.685    24203651.084
       212.000         145.000
  21279041.055    -2410788.36249  -1707451.17147  21279040.377    21279050.037
       240.000         201.000
  21766501.680   -17048466.34949 -12697839.46147  21766500.695    21766510.985
       237.000         198.000
 00  4 18  1 39 30.0000000  0  7G26G23G 3G29G 6G17G21
  24052276.504     5481469.82149   4303116.13544  24052277.735    24052289.781
       196.000         124.000
  21037980.395   -11342812.34349  -8814812.91347  21037979.840    21037988.615
       243.000         210.000
  22045386.920   -19034373.78649 -13846786.42247  22045386.676    22045397.305
       233.000         190.000
  21980328.498   -14928274.66049 -11291283.78246  21980327.936    21980339.278
       229.000         185.000
  24225178.859    19533485.88749  15228254.81245  24225179.647    24225200.049
       214.000         146.000
  21286481.333    -2371689.48649  -1676984.52547  21286480.596    21286490.065
       239.000         201.000
  21759444.314   -17085552.74649 -12726737.89047  21759443.461    21759453.617
       238.000         199.000
 00  4 18  1 40  0.0000000  0  7G26G23G 3G29G 6G17G21
  24071892.359     5584551.98248   4383439.83244  24071891.177    24071906.360
       194.000         123.000
  21043178.015   -11315498.76949  -8793529.61147  21043177.641    21043186.097
       243.000         210.000
  22035785.712   -19084828.19549 -13886101.47347  22035785.283    22035795.708
       233.000         190.000
  21963480.991   -15016807.96649 -11360270.59646  21963480.109    21963491.585
       229.000         185.000
  24246736.973    19646773.04149  15316530.11445  24246737.723    24246757.219
       207.000         145.000
  21293981.095    -2332277.96349  -1646274.26647  21293980.294    21293989.686
       240.000         201.000
  21752425.601   -17122436.06349 -12755478.07047  21752424.930    21752435.182
       238.000         199.000
 00  4 18  1 40 30.0000000  0  7G26G23G 3G29G 6G17G21
  24091547.111     5687837.90148   4463922.30544  24091547.878    24091561.162
       193.000         123.000
  21048406.176   -11288024.44849  -8772121.04747  21048405.722    21048414.574
       243.000         210.000
  22026278.843   -19134786.96949 -13925030.30347  22026278.265    22026288.610
       233.000         191.000
  21946694.212   -15105022.36449 -11429008.90546  21946693.650    21946704.816
       230.000         185.000
  24268303.782    19760105.69249  15404840.86745  24268304.582    24268324.913
       216.000         147.000
  21301542.228    -2292544.09149  -1615312.81747  21301541.600    21301551.089
       239.000         200.000
  21745447.773   -17159104.41849 -12784050.75347  21745446.990    21745457.074
       238.000         199.000
 00  4 18  1 41  0.0000000  0  7G26G23G 3G29G 6G17G21
  24111245.787     5791354.53348   4544584.56044  24111243.763    24111255.971
       193.000         122.000
  21053667.942   -11260373.87249  -8750575.14647  21053667.319    21053676.051
       243.000         210.000
  22016868.123   -19184240.25149 -13963565.24547  22016867.240    22016878.299
       233.000         191.000
  21929964.459   -15192937.07249 -11497513.69746  21929963.942    21929974.441
       230.000         185.000
  24289878.420    19873479.56249  15493183.71845  24289878.847    24289898.149
       213.000         147.000
  21309167.600    -2252472.55349  -1584088.25247  21309166.731    21309176.262
       239.000         200.000
  21738510.087   -17195561.79949 -12812459.03747  21738509.313    21738519.262
       238.000         199.000
 00  4 18  1 41 30.0000000  0  7G26G23G 3G29G 6G17G21
  24130987.992     5895100.73448   4625425.71644  24130986.416    24131001.009
       194.000         121.000
  21058962.116   -11232552.71749  -8728896.33047  21058961.474    21058970.473
       243.000         210.000
  22007555.529   -19233177.85549 -14001698.35447  22007554.877    22007565.505
       233.000         191.000
  21913292.969   -15280545.64749 -11565779.94146  21913292.573    21913302.870
       231.000         186.000
  24311461.045    19986895.57649  15581559.41245  24311462.555    24311480.355
       212.000         146.000
  21316853.615    -2212082.20149  -1552615.27447  21316853.080    21316862.727
       239.000         200.000
  21731610.578   -17231818.84349 -12840711.21947  21731609.979    21731619.929
       239.000         199.000
 00  4 18  1 42  0.0000000  0  7G26G23G 3G29G 6G17G21
  24150771.843     5999065.02848   4706436.78944  24150771.579    24150781.185
       194.000         123.000
  21064292.620   -11204540.75449  -8707068.83347  21064292.084    21064300.932
       243.000         209.000
  21998338.769   -19281611.64149 -14039438.88247  21998338.147    21998348.777
       234.000         191.000
  21896678.992   -15367852.07349 -11633810.74246  21896678.345    21896689.386
       231.000         186.000
  24333052.329    20100356.53449  15669970.13645  24333052.049    24333073.548
       204.000         146.000
  21324600.812    -2171370.46449  -1520891.86347  21324600.047    21324609.697
       239.000         200.000
  21724746.268   -17267891.00249 -12868819.33547  21724745.602    21724755.724
       238.000         199.000
 00  4 18  1 42 30.0000000  0  7G26G23G 3G29G 6G17G21
  24170598.671     6103255.68048   4787624.26944  24170600.931    24170612.078
       194.000         123.000
  21069665.007   -11176308.69649  -8685069.83347  21069664.365    21069673.188
       243.000         209.000
  21989220.880   -19329526.23349 -14076774.83647  21989220.080    21989231.138
       234.000         191.000
  21880126.240   -15454836.75549 -11701590.83046  21880125.514    21880136.567
       230.000         187.000
  24354651.419    20213858.94049  15758413.13545  24354651.286    24354671.291
       207.000         145.000
  21332410.316    -2130331.23349  -1488913.26947  21332409.610    21332419.238
       239.000         199.000
  21717917.361   -17303776.74149 -12896782.18647  21717916.509    21717926.781
       238.000         199.000
 00  4 18  1 43  0.0000000  0  8G26G23G 3G29G 6G17G31G21
  24190470.554     6207682.91248   4868996.07644  24190468.477    24190484.379
       192.000         121.000
  21075080.385   -11147850.51249  -8662894.62847  21075079.876    21075088.463
       243.000         210.000
  21980206.262   -19376898.15449 -14113687.93947  21980205.590    21980216.511
       234.000         192.000
  21863638.564   -15541479.08549 -11769104.15546  21863637.948    21863648.608
       230.000         186.000
  24376258.664    20327404.15249  15846889.50445  24376258.767    24376277.523
       201.000         143.000
  21340282.972    -2088960.13849  -1456676.07547  21340282.160    21340291.619
       239.000         199.000
  24487947.360    -6236429.34449  -4530094.50145  24487946.417    24487961.646
       209.000         144.000
  21711126.187   -17339464.42649 -12924590.71247  21711125.521    21711135.499
       239.000         200.000
 00  4 18  1 43 30.0000000  0  8G26G23G 3G29G 6G17G31G21
  24210382.443     6312320.60048   4950531.89244  24210381.951    24210392.931
       192.000         121.000
  21080535.893   -11119181.60049  -8640555.21447  21080535.289    21080544.031
       242.000         209.000
  21971290.069   -19423752.75249 -14150197.92947  21971289.703    21971300.502
       234.000         192.000
  21847214.835   -15627785.61949 -11836355.81846  21847214.238    21847224.894
       231.000         187.000
  24397870.757    20440975.19549  15935385.99845  24397871.495    24397891.728
       207.000         143.000
  21348214.928    -2047277.53449  -1424196.14747  21348214.309    21348223.904
       239.000         199.000
  24470664.088    -6327252.99449  -4600866.04845  24470664.192    24470677.321
       206.000         143.000
  21704373.796   -17374948.38149 -12952240.48747  21704373.115    21704383.143
       239.000         200.000
 00  4 18  1 44  0.0000000  0  8G26G23G 3G29G 6G17G31G21
  24230334.585     6417169.69549   5032232.44644  24230335.418    24230345.534
       195.000         121.000
  21086033.492   -11090291.52949  -8618043.47447  21086033.063    21086041.758
       242.000         209.000
  21962473.858   -19470081.79449 -14186298.40147  21962473.406    21962483.946
       235.000         192.000
  21830856.452   -15713748.84549 -11903339.97946  21830856.183    21830866.439
       231.000         187.000
  24419489.532    20554581.10949  16023909.68045  24419490.339    24419509.735
       200.000         142.000
  21356210.359    -2005261.48049  -1391456.38647  21356209.804    21356219.383
       239.000         199.000
  24453436.514    -6417784.23549  -4671409.74545  24453435.209    24453450.802
       207.000         144.000
  21697664.737   -17410204.57149 -12979712.78547  21697664.120    21697674.418
       239.000         200.000
 00  4 18  1 44 30.0000000  0  8G26G23G 3G29G 6G17G31G21
  24250325.684     6522223.61849   5114092.59244  24250326.059    24250336.746
       195.000         120.000
  21091569.341   -11061200.56049  -8595375.19047  21091568.911    21091577.569
       243.000         209.000
  21953762.451   -19515860.43749 -14221969.98747  21953762.067    21953772.414
       235.000         192.000
  21814566.445   -15799352.72549 -11970044.11946  21814565.820    21814576.579
       231.000         187.000
  24441116.705    20668231.39749  16112467.91745  24441116.917    24441137.564
       205.000         142.000
  21364270.327    -1962906.24249  -1358452.32847  21364269.754    21364279.233
       239.000         199.000
  24436268.333    -6508002.91649  -4741709.82245  24436267.114    24436282.609
       211.000         144.000
  21691001.598   -17445219.25749 -13006996.89347  21691000.963    21691010.899
       239.000         200.000
 00  4 18  1 45  0.0000000  0  8G26G23G 3G29G 6G17G31G21
  24270355.401     6627480.26348   5196110.71144  24270355.283    24270369.688
       193.000         121.000
  21097140.730   -11031922.72349  -8572561.29847  21097140.134    21097148.806
       243.000         209.000
  21945152.840   -19561104.39549 -14257224.94447  21945152.927    21945162.843
       235.000         193.000
  21798343.728   -15884602.99649 -12036472.72546  21798342.941    21798353.916
       231.000         187.000
  24462755.679    20781943.68349  16201074.47845  24462757.316    24462775.008
       207.000         142.000
  21372395.322    -1920209.20949  -1325181.94347  21372394.579    21372404.061
       239.000         199.000
  24419157.669    -6597919.20049  -4811774.32345  24419156.280    24419171.796
       212.000         144.000
  21684384.619   -17479991.54949 -13034092.12847  21684383.913    21684393.981
       239.000         200.000
 00  4 18  1 45 30.0000000  0  8G26G23G 3G29G 6G17G31G21
  24290421.632     6732929.05748   5278278.53344  24290421.801    24290433.226
       193.000         122.000
  21102745.195   -11002471.13249  -8549612.00747  21102744.664    21102753.609
       243.000         209.000
  21936643.149   -19605822.61449 -14292070.23047  21936642.568    21936653.014
       234.000         193.000
  21782188.423   -15969499.02149 -12102625.29347  21782187.755    21782198.211
       232.000         188.000
  24484410.201    20895737.21349  16289744.30845  24484411.625    24484432.282
       206.000         143.000
  21380586.498    -1877164.22549  -1291640.43147  21380585.868    21380595.391
       239.000         199.000
  24402103.218    -6687540.13649  -4881608.62745  24402102.826    24402118.065
       208.000         144.000
  21677810.232   -17514540.03449 -13061012.96347  21677809.675    21677819.473
       239.000         200.000
 00  4 18  1 46  0.0000000  0  8G26G23G 3G29G 6G17G31G21
  24310520.856     6838550.76248   5360581.12444  24310519.767    24310530.712
       194.000         118.000
  21108379.590   -10972862.15749  -8526540.08647  21108379.023    21108387.815
       243.000         209.000
  21928236.199   -19650000.96549 -14326494.84047  21928235.578    21928246.211
       234.000         193.000
  21766099.064   -16054048.35449 -12168507.71347  21766098.374    21766108.688
       232.000         189.000
  24506078.779    21009604.16649  16378471.37645  24506080.264    24506100.850
       201.000         144.000
  21388843.045    -1833775.95249  -1257831.40847  21388842.303    21388851.528
       238.000         199.000
  24385105.683    -6776862.45249  -4951210.28145  24385103.934    24385119.800
       211.000         145.000
  21671273.114   -17548892.57449 -13087781.11547  21671272.220    21671282.326
       239.000         200.000
 00  4 18  1 46 30.0000000  0  7G26G23G 3G29G17G31G21
  24330650.785     6944334.23848   5443009.74744  24330649.092    24330665.064
       194.000         118.000
  21114038.817   -10943122.61249  -8503366.42147  21114038.325    21114046.989
       242.000         209.000
  21919929.482   -19693652.81649 -14360509.19647  21919929.139    21919939.411
       235.000         193.000
  21750071.323   -16138273.85149 -12234137.80147  21750070.599    21750081.126
       232.000         189.000
  21397159.595    -1790072.33449  -1223776.66247  21397158.785    21397168.641
       238.000         199.000
  24368163.841    -6865891.61349  -5020583.48445  24368163.082    24368177.212
       210.000         144.000
  21664767.760   -17583078.27249 -13114419.25547  21664766.964    21664777.244
       239.000         200.000
 00  4 18  1 47  0.0000000  0  7G26G23G 3G29G17G31G21
  24350813.007     7050287.20648   5525570.46644  24350812.233    24350825.788
       191.000         119.000
  21119724.915   -10913242.02149  -8480082.85347  21119724.249    21119733.101
       243.000         209.000
  21911719.500   -19736796.14949 -14394127.31047  21911718.993    21911729.521
       235.000         193.000
  21734103.700   -16222183.61349 -12299521.86547  21734103.054    21734113.662
       232.000         190.000
  21405533.621    -1746066.53349  -1189486.44547  21405533.218    21405542.778
       238.000         198.000
  24351278.168    -6954626.47149  -5089727.41145  24351277.032    24351291.906
       209.000         143.000
  21658293.864   -17617098.62749 -13140928.55547  21658293.126    21658302.931
       239.000         200.000
 00  4 18  1 47 30.0000000  0  7G26G23G 3G29G17G31G21
  24371012.296     7156434.88849   5608282.90944  24371011.830    24371024.788
       196.000         119.000
  21125442.025   -10883198.37049  -8456672.22647  21125441.651    21125450.209
       243.000         209.000
  21903613.312   -19779394.38949 -14427320.67947  21903612.694    21903622.939
       235.000         194.000
  21718201.562   -16305749.28849 -12364637.80047  21718201.192    21718211.801
       232.000         190.000
  21413965.598    -1701756.41349  -1154959.10847  21413964.791    21413974.537
       238.000         198.000
  24334454.280    -7043036.13549  -5158617.91945  24334452.499    24334468.218
       210.000         145.000
  21651857.562   -17650921.37149 -13167283.87447  21651856.791    21651866.703
       239.000         200.000
 00  4 18  1 48  0.0000000  0  7G26G23G 3G29G17G31G21
  24391248.732     7262777.95448   5691147.59644  24391250.519    24391258.709
       194.000         120.000
  21131188.841   -10852998.70349  -8433140.03047  21131188.463    21131197.041
       242.000         209.000
  21895609.078   -19821456.88949 -14460096.59947  21895608.716    21895618.675
       235.000         194.000
  21702364.662   -16388972.11949 -12429486.58947  21702363.666    21702374.915
       232.000         191.000
  21422451.923    -1657160.50349  -1120209.08047  21422451.226    21422460.728
       238.000         198.000
  24317690.924    -7131126.60949  -5227259.63645  24317689.364    24317705.148
       204.000         144.000
  21645460.766   -17684536.41649 -13193477.34547  21645459.820    21645470.088
       239.000         200.000
 00  4 18  1 48 30.0000000  0  7G26G23G 3G29G17G31G21
  24411523.421     7369322.43248   5774169.20744  24411525.123    24411534.542
       192.000         119.000
  21136965.179   -10822643.97049  -8409486.99747  21136964.624    21136973.242
       243.000         209.000
  21887702.164   -19863007.68349 -14492473.78047  21887701.480    21887711.495
       235.000         194.000
  21686595.623   -16471838.25049 -12494057.42647  21686595.362    21686605.721
       233.000         191.000
  21430992.535    -1612279.41449  -1085236.82547  21430991.923    21431001.356
       238.000         198.000
  24300986.285    -7218909.30249  -5295661.61145  24300986.757    24301000.392
       214.000         143.000
  21639103.915   -17717941.59449 -13219507.28347  21639103.141    21639113.164
       239.000         200.000
 00  4 18  1 49  0.0000000  0  8G26G23G 3G29G17G15G31G21
  24431834.943     7476059.64649   5857341.04944  24431835.252    24431848.157
       197.000         117.000
  21142769.887   -10792140.19549  -8385717.82447  21142769.415    21142778.113
       243.000         209.000
  21879889.880   -19904061.00449 -14524463.32747  21879889.218    21879900.190
       235.000         194.000
  21670893.857   -16554350.85649 -12558352.80247  21670893.373    21670903.749
       233.000         191.000
  21439588.792    -1567105.92449  -1050036.73147  21439587.962    21439597.716
       237.000         197.000
  24277340.801    -6101999.70449  -4736625.25645  24277339.428    24277357.008
       205.000         140.000
  24284338.455    -7306394.43549  -5363831.69245  24284338.802    24284352.299
       210.000         144.000
  21632786.225   -17751141.06149 -13245376.93047  21632785.644    21632795.450
       239.000         200.000
 00  4 18  1 49 30.0000000  0  8G26G23G 3G29G17G15G31G21
  24452180.190     7582974.08148   5940650.94344  24452181.327    24452191.374
       194.000         119.000
  21148599.735   -10761504.05949  -8361845.51647  21148599.090    21148608.033
       243.000         209.000
  21872173.640   -19944609.70049 -14556059.66147  21872173.100    21872184.125
       235.000         194.000
  21655258.499   -16636514.38949 -12622376.16747  21655257.637    21655268.197
       232.000         191.000
  21448242.777    -1521629.01349  -1014600.20647  21448242.221    21448252.012
       237.000         197.000
  24259723.025    -6194580.32249  -4808765.74745  24259722.304    24259739.954
       211.000         143.000
  24267747.714    -7393578.41549  -5431767.11145  24267745.739    24267760.314
       210.000         144.000
  21626505.232   -17784147.70849 -13271096.33047  21626504.453    21626514.279
       239.000         200.000
 00  4 18  1 50  0.0000000  0  8G26G23G 3G29G17G15G31G21
  24472558.993     7690065.34149   6024098.65044  24472561.158    24472569.338
       196.000         116.000
  21154458.679   -10730715.20949  -8337854.20647  21154457.963    21154466.756
       243.000         209.000
  21864556.479   -19984638.04449 -14587250.53547  21864555.733    21864566.728
       235.000         194.000
  21639690.846   -16718322.15649 -12686122.31447  21639689.984    21639700.365
       233.000         191.000
  21456962.791    -1475804.99549   -978893.19547  21456961.864    21456971.593
       237.000         197.000
  24242095.936    -6287211.14849  -4880945.38645  24242094.117    24242111.898
       207.000         141.000
  24251217.293    -7480444.91149  -5499455.11345  24251216.832    24251231.582
       209.000         143.000
  21620259.806   -17816967.32949 -13296669.99447  21620258.816    21620268.844
       239.000         200.000
 00  4 18  1 50 30.0000000  0  8G26G23G 3G29G17G15G31G21
  24492970.311     7797327.23348   6107679.33344  24492971.988    24492985.072
       193.000         116.000
  21160348.437   -10699764.31349  -8313736.62747  21160347.776    21160356.753
       243.000         209.000
  21857041.030   -20024131.63849 -14618024.72047  21857040.566    21857050.708
       235.000         194.000
  21624186.315   -16799798.30549 -12749610.05747  21624185.798    21624196.061
       233.000         192.000
  21465748.969    -1429633.51249   -942915.44047  21465748.212    21465757.897
       237.000         197.000
  24224459.675    -6379888.98749  -4953161.62845  24224457.777    24224474.385
       212.000         141.000
  24234748.462    -7566988.78049  -5566891.75145  24234747.344    24234761.909
       212.000         144.000
  21614048.681   -17849606.76349 -13322103.25547  21614047.926    21614057.760
       239.000         200.000
 00  4 18  1 51  0.0000000  0  8G26G23G 3G29G17G15G31G21
  24513413.631     7904757.33848   6191391.06944  24513416.275    24513422.405
       193.000         117.000
  21166270.278   -10668645.01749  -8289487.82247  21166269.936    21166278.652
       243.000         209.000
  21849631.355   -20063069.48049 -14648365.85247  21849631.015    21849641.050
       235.000         194.000
  21608743.309   -16880951.20749 -12812845.92447  21608742.649    21608753.023
       233.000         192.000
  21474601.292    -1383114.43649   -906666.83547  21474600.753    21474610.425
       237.000         196.000
  24206816.425    -6472603.25449  -5025406.24245  24206815.590    24206831.013
       211.000         141.000
  24218344.495    -7653192.60049  -5634063.40745  24218343.779    24218357.138
       212.000         146.000
  21607873.775   -17882055.68249 -13347388.06347  21607873.011    21607882.944
       239.000         200.000
 00  4 18  1 51 30.0000000  0  8G26G23G 3G29G17G15G31G21
  24533888.265     8012352.14548   6275231.17544  24533886.914    24533902.048
       190.000         117.000
  21172227.090   -10637341.90249  -8265095.77847  21172226.603    21172235.170
       243.000         209.000
  21842331.782   -20101428.73349 -14678256.14147  21842331.309    21842341.617
       235.000         194.000
  21593363.721   -16961770.88249 -12875822.13047  21593363.086    21593373.301
       234.000         192.000
  21483519.307    -1336249.96349   -870149.08847  21483518.620    21483528.191
       236.000         196.000
  24189167.845    -6565346.86549  -5097673.81645  24189167.318    24189183.041
       209.000         144.000
  24202006.269    -7739048.96149  -5700964.30345  24202004.581    24202018.568
       208.000         143.000
  21601734.875   -17914315.39349 -13372525.44047  21601734.221    21601743.843
       239.000         200.000
 00  4 18  1 52  0.0000000  0  8G26G23G 3G29G17G15G31G21
  24554396.929     8120125.80948   6359210.62244  24554396.825    24554409.858
       192.000         115.000
  21178222.616   -10605835.15449  -8240545.06147  21178222.212    21178230.746
       243.000         209.000
  21835144.340   -20139198.78349 -14707687.31047  21835143.545    21835153.966
       235.000         194.000
  21578049.642   -17042246.29849 -12938530.09347  21578049.177    21578059.071
       234.000         193.000
  21492502.481    -1289042.93249   -833364.40847  21492501.721    21492511.573
       236.000         196.000
  24171516.149    -6658105.93449  -5169953.35545  24171514.998    24171531.647
       208.000         142.000
  24185735.288    -7824552.17149  -5767589.99645  24185735.294    24185750.186
       211.000         145.000
  21595634.630   -17946372.24649 -13397504.74847  21595633.864    21595643.912
       239.000         201.000
 00  4 18  1 52 30.0000000  0  8G26G23G 3G29G17G15G31G21
  24574940.995     8228084.97448   6443334.63744  24574941.212    24574952.441
       193.000         117.000
  21184256.105   -10574128.91249  -8215838.89447  21184255.505    21184264.378
       243.000         209.000
  21828069.598   -20176376.60249 -14736657.00747  21828069.132    21828079.688
       235.000         194.000
  21562805.585   -17122353.73349 -13000951.31147  21562804.851    21562815.096
       234.000         193.000
  21501549.453    -1241500.93849   -796318.71847  21501548.768    21501558.395
       236.000         195.000
  24153863.192    -6750871.76149  -5242238.23045  24153861.240    24153878.832
       212.000         140.000
  24169535.108    -7909684.48949  -5833926.69445  24169533.010    24169548.929
       207.000         145.000
  21589576.545   -17978207.35949 -13422311.27147  21589575.748    21589585.500
       239.000         201.000
 00  4 18  1 53  0.0000000  0  8G26G23G 3G29G17G15G31G21
  24595518.998     8336223.38848   6527598.31344  24595521.215    24595529.294
       194.000         115.000
  21190324.091   -10542241.46049  -8190991.52347  21190323.334    21190332.098
       243.000         209.000
  21821104.451   -20212978.58049 -14765177.99347  21821103.994    21821113.977
       235.000         194.000
  21547635.451   -17202072.73349 -13063069.85747  21547634.933    21547645.139
       234.000         193.000
  21510660.126    -1193623.98249   -759012.03347  21510659.520    21510669.235
       235.000         195.000
  24136207.929    -6843650.15249  -5314532.86045  24136206.972    24136222.930
       211.000         143.000
  24153406.588    -7994439.32149  -5899969.20945  24153405.855    24153420.789
       209.000         145.000
  21583558.033   -18009834.58649 -13446955.80447  21583557.234    21583567.029
       239.000         201.000
 00  4 18  1 53 30.0000000  0  7G23G 3G29G17G15G31G21
  21196423.564   -10510188.31149  -8166015.03447  21196422.882    21196431.539
       243.000         209.000
  21814247.460   -20249012.22549 -14793256.12947  21814246.991    21814257.399
       236.000         194.000
  21532539.616   -17281401.16549 -13124884.06847  21532539.033    21532549.314
       234.000         194.000
  21519833.023    -1145420.18349   -721450.65647  21519832.270    21519841.909
       235.000         194.000
  24118548.158    -6936451.62549  -5386845.45245  24118546.977    24118564.519
       207.000         145.000
  24137348.220    -8078826.48149  -5965725.28645  24137346.003    24137360.479
       209.000         144.000
  21577575.218   -18041273.82949 -13471453.86147  21577574.546    21577584.252
       239.000         201.000
 00  4 18  1 54  0.0000000  0  7G23G 3G29G17G15G31G21
  21202549.665   -10477995.43249  -8140929.66647  21202548.961    21202557.841
       243.000         209.000
  21807493.592   -20284504.06549 -14820912.07347  21807492.847    21807503.674
       236.000         194.000
  21517519.801   -17360330.13449 -13186387.01247  21517518.922    21517529.140
       234.000         194.000
  21529067.471    -1096892.82349   -683637.15847  21529066.537    21529076.236
       235.000         194.000
  24100882.215    -7029285.15749  -5459182.99045  24100880.178    24100896.490
       204.000         140.000
  24121358.277    -8162853.25049  -6031200.45745  24121356.632    24121372.653
       210.000         145.000
  21571627.284   -18072530.43449 -13495809.60547  21571626.634    21571636.612
       239.000         202.000
 00  4 18  1 54 30.0000000  0  7G23G 3G29G17G15G31G21
  21208695.913   -10445696.52349  -8115761.68047  21208695.306    21208703.967
       243.000         209.000
  21800835.633   -20319491.45149 -14848174.93547  21800835.026    21800845.865
       235.000         194.000
  21502573.897   -17438870.89149 -13247587.45247  21502573.548    21502583.326
       234.000         194.000
  21538360.744    -1048056.57049   -645582.96547  21538360.313    21538369.891
       235.000         194.000
  24083206.061    -7122173.34149  -5531563.19245  24083205.704    24083222.041
       203.000         142.000
  24105433.761    -8246537.03949  -6096408.41845  24105433.755    24105447.097
       213.000         146.000
  21565708.701   -18103632.72449 -13520045.10347  21565707.831    21565717.582
       239.000         202.000
 00  4 18  1 55  0.0000000  0  7G23G 3G29G17G15G31G21
  21214861.290   -10413297.24049  -8090515.48047  21214860.478    21214869.326
       243.000         209.000
  21794270.975   -20353988.90549 -14875056.03847  21794270.770    21794280.590
       235.000         194.000
  21487700.154   -17517032.33749 -13308492.33847  21487699.765    21487709.376
       235.000         194.000
  21547710.144     -998925.07449   -607298.69847  21547709.311    21547719.588
       235.000         193.000
  24065516.832    -7215129.82649  -5603996.57245  24065516.240    24065531.586
       207.000         143.000
  24089570.121    -8329900.05849  -6161366.43545  24089568.948    24089584.482
       203.000         143.000
  21559815.065   -18134603.53149 -13544178.14647  21559814.391    21559824.332
       240.000         202.000
 00  4 18  1 55 30.0000000  0  7G23G 3G29G17G15G31G21
  21221046.548   -10380793.45949  -8065187.85547  21221045.916    21221054.846
       243.000         209.000
  21787799.678   -20387995.51549 -14901554.65747  21787799.450    21787809.221
       236.000         194.000
  21472898.533   -17594814.75649 -13369101.87147  21472897.932    21472907.864
       234.000         194.000
  21557116.876     -949492.47249   -568779.80847  21557116.619    21557125.901
       235.000         193.000
  24047814.303    -7308155.90649  -5676484.09445  24047813.615    24047828.787
       215.000         144.000
  24073763.596    -8412962.81649  -6226090.44045  24073762.151    24073776.876
       210.000         145.000
  21553947.404   -18165438.17249 -13568205.08347  21553946.403    21553956.606
       239.000         202.000
 00  4 18  1 56  0.0000000  0  7G23G 3G29G17G15G31G21
  21227252.657   -10348180.10549  -8039774.84947  21227252.099    21227260.929
       243.000         208.000
  21781420.712   -20421517.30549 -14927675.50347  21781420.466    21781430.325
       236.000         195.000
  21458168.897   -17672219.02949 -13429416.74847  21458168.259    21458178.331
       235.000         194.000
  21566583.189     -899746.66249   -530016.86247  21566582.296    21566592.160
       234.000         192.000
  24030099.917    -7401245.14549  -5749020.94645  24030097.889    24030114.432
       206.000         142.000
  24058015.028    -8495721.70449  -6290577.69445  24058013.604    24058028.511
       210.000         145.000
  21548109.154   -18196118.20649 -13592111.55147  21548108.455    21548118.157
       240.000         202.000
 00  4 18  1 56 30.0000000  0  7G23G 3G29G17G15G31G21
  21233484.186   -10315433.19449  -8014257.77447  21233483.555    21233492.450
       242.000         208.000
  21775141.230   -20454515.89149 -14953388.65047  21775140.834    21775150.931
       235.000         195.000
  21443510.137   -17749250.74849 -13489441.32947  21443509.637    21443519.593
       236.000         195.000
  21576109.137     -849687.49049   -491009.73947  21576108.531    21576118.147
       234.000         192.000
  24012375.656    -7494385.83049  -5821597.77445  24012373.590    24012389.678
       207.000         144.000
  24042325.058    -8578171.48949  -6354824.09645  24042323.816    24042339.185
       209.000         145.000
  21542302.169   -18226633.88849 -13615889.95347  21542301.445    21542311.445
       240.000         203.000
 00  4 18  1 57  0.0000000  0  7G23G 3G29G17G15G31G21
  21239744.861   -10282533.21449  -7988621.43147  21239744.271    21239753.261
       243.000         208.000
  21768968.956   -20486951.24349 -14978662.91547  21768968.437    21768978.559
       235.000         195.000
  21428924.286   -17825899.29549 -13549167.32947  21428923.715    21428933.620
       236.000         195.000
  21585698.170     -799296.94449   -451744.39447  21585697.213    21585707.053
       234.000         192.000
  23994645.238    -7587559.07449  -5894200.01945  23994644.463    23994659.908
       206.000         147.000
  24026694.991    -8660307.59749  -6418826.01745  24026693.326    24026708.646
       205.000         147.000
  21536531.982   -18256956.15949 -13639517.64647  21536531.430    21536540.694
       240.000         203.000
 00  4 18  1 57 30.0000000  0  7G23G 3G29G17G15G31G21
  21246037.521   -10249465.06549  -7962854.04547  21246036.825    21246045.514
       243.000         208.000
  21762908.189   -20518800.32149 -15003480.34447  21762907.683    21762917.997
       236.000         195.000
  21414412.585   -17902158.11449 -13608589.65347  21414411.811    21414421.736
       236.000         195.000
  21595353.596     -748557.24349   -412206.99247  21595352.898    21595362.545
       234.000         191.000
  23976912.814    -7680742.01549  -5966809.79245  23976911.410    23976926.736
       209.000         144.000
  24011130.236    -8742099.95349  -6482560.13345  24011129.451    24011143.971
       213.000         146.000
  21530804.854   -18287052.09949 -13662968.97547  21530804.224    21530813.752
       240.000         203.000
 00  4 18  1 58  0.0000000  0  7G23G 3G29G17G15G31G21
  21252366.188   -10216207.66249  -7936939.18447  21252365.533    21252374.161
       243.000         208.000
  21756962.634   -20550044.22349 -15027826.20747  21756962.109    21756972.362
       236.000         195.000
  21399975.420   -17978025.52049 -13667706.97747  21399975.066    21399984.671
       236.000         196.000
  21605074.956     -697471.18549   -372399.69047  21605074.208    21605083.628
       233.000         191.000
  23959182.404    -7773915.11549  -6039411.91645  23959181.084    23959196.925
       210.000         146.000
  23995639.450    -8823505.36949  -6545992.79745  23995640.134    23995651.198
       213.000         148.000
  21525123.512   -18316907.63249 -13686232.97047  21525122.738    21525132.245
       240.000         203.000
 00  4 18  1 58 30.0000000  0  7G23G 3G29G17G15G31G21
  21258733.427   -10182747.65449  -7910866.45547  21258732.826    21258741.503
       243.000         208.000
  21751134.637   -20580670.59349 -15051690.88347  21751134.413    21751144.321
       236.000         195.000
  21385613.478   -18053497.49349 -13726516.17847  21385612.938    21385622.579
       236.000         196.000
  21614863.318     -646032.90249   -332317.93947  21614862.612    21614872.420
       233.000         191.000
  23941456.032    -7867067.36649  -6111997.80545  23941453.966    23941471.675
       207.000         147.000
  23980227.061    -8904496.71049  -6609102.72245  23980224.356    23980240.468
       211.000         147.000
  21519486.441   -18346530.59449 -13709315.74347  21519485.800    21519495.394
       240.000         203.000
 00  4 18  1 59  0.0000000  0  7G23G 3G29G17G15G31G21
  21265136.240   -10149100.59549  -7884647.97447  21265135.403    21265144.315
       243.000         208.000
  21745418.019   -20610711.68549 -15075099.49747  21745417.341    21745427.900
       236.000         195.000
  21371326.149   -18128577.42249 -13785019.88447  21371325.669    21371335.344
       237.000         197.000
  21624719.602     -594237.96749   -291958.26547  21624719.009    21624728.505
       234.000         191.000
  23923733.484    -7960199.25549  -6184567.79045  23923732.305    23923747.736
       210.000         147.000
  23964897.826    -8985052.54049  -6671873.37545  23964896.867    23964909.821
       211.000         147.000
  21513892.782   -18375925.21549 -13732220.58347  21513892.212    21513901.781
       239.000         203.000
 00  4 18  1 59 30.0000000  0  7G23G 3G29G17G15G31G21
  21271571.082   -10115285.23149  -7858298.34747  21271570.538    21271579.401
       243.000         208.000
  21739807.678   -20640193.88549 -15098072.60947  21739807.355    21739817.548
       236.000         195.000
  21357109.952   -18203283.52249 -13843232.29847  21357109.511    21357119.064
       237.000         197.000
  21634641.396     -542098.88349   -251330.42647  21634640.460    21634650.556
       233.000         191.000
  23906012.196    -8053323.75549  -6257132.04645  23906010.044    23906026.406
       206.000         147.000
  23949652.701    -9065165.19749  -6734298.67645  23949651.191    23949665.033
       206.000         147.000
  21508336.004   -18405125.93549 -13754974.33247  21508335.379    21508344.902
       240.000         203.000
 00  4 18  2  0  0.0000000  0  7G23G 3G29G17G15G31G21
  21278032.550   -10081330.04349  -7831839.76547  21278032.025    21278040.922
       243.000         208.000
  21734300.483   -20669134.33649 -15120623.58047  21734300.227    21734310.166
       236.000         195.000
  21342962.449   -18277628.46949 -13901163.29447  21342962.185    21342971.597
       237.000         198.000
  21644626.188     -489628.23749   -210444.22347  21644625.258    21644635.286
       233.000         190.000
  23888288.379    -8146461.82849  -6329706.90145  23888288.022    23888302.611
       210.000         149.000
  23934486.698    -9144861.75249  -6796399.73645  23934485.261    23934497.799
       210.000         147.000
  21502809.623   -18434167.03349 -13777603.70347  21502808.855    21502818.396
       240.000         202.000
 00  4 18  2  0 30.0000000  0  7G23G 3G29G17G15G31G21
  21284514.053   -10047269.52649  -7805299.10947  21284513.568    21284522.122
       243.000         208.000
  21728893.208   -20697549.68549 -15142765.37747  21728893.020    21728902.933
       236.000         195.000
  21328883.597   -18351612.92549 -13958813.38847  21328882.822    21328892.392
       238.000         198.000
  21654672.219     -436836.07849   -169307.48847  21654671.663    21654681.378
       233.000         190.000
  23870557.962    -8239634.40449  -6402308.60345  23870555.748    23870572.039
       212.000         148.000
  23919392.308    -9224182.35649  -6858207.89045  23919391.130    23919404.583
       210.000         146.000
  21497310.416   -18463065.49349 -13800121.92747  21497309.612    21497319.101
       241.000         202.000
 00  4 18  2  1  0.0000000  0  7G23G 3G29G17G15G31G21
  21291012.857   -10013118.11049  -7778687.61747  21291012.319    21291021.097
       242.000         208.000
  21723585.735   -20725440.82549 -15164498.70247  21723585.315    21723595.167
       236.000         195.000
  21314876.075   -18425222.44749 -14016171.33347  21314875.799    21314885.260
       237.000         198.000
  21664776.276     -383739.11749   -127933.25347  21664775.568    21664785.281
       233.000         190.000
  23852818.854    -8332852.34649  -6474945.64645  23852818.467    23852833.679
       211.000         150.000
  23904365.789    -9303147.57149  -6919739.12445  23904365.952    23904379.158
       213.000         151.000
  21491839.020   -18491817.60649 -13822526.11947  21491838.190    21491847.878
       240.000         202.000
 00  4 18  2  1 30.0000000  0  7G23G 3G29G17G15G31G21
  21297530.898    -9978865.58349  -7751997.33847  21297530.347    21297539.212
       243.000         208.000
  21718380.214   -20752795.69649 -15185814.15947  21718379.868    21718389.845
       236.000         195.000
  21300942.664   -18498442.52449 -14073225.81047  21300941.805    21300951.753
       237.000         198.000
  21674937.464     -330341.73049    -86324.91447  21674936.404    21674946.677
       233.000         190.000
  23835070.918    -8426118.11349  -6547620.02645  23835069.495    23835085.601
       213.000         150.000
  23889403.957    -9381772.17349  -6981004.90545  23889402.561    23889416.066
       210.000         150.000
  21486396.159   -18520419.76549 -13844813.45647  21486395.488    21486405.027
       240.000         203.000
 00  4 18  2  2  0.0000000  0  7G23G 3G29G17G15G31G21
  21304072.066    -9944491.57149  -7725212.39547  21304071.368    21304079.963
       243.000         207.000
  21713279.562   -20779599.77849 -15206700.42547  21713279.050    21713289.583
       236.000         195.000
  21287089.845   -18571239.12949 -14129950.31147  21287089.415    21287098.882
       237.000         199.000
  21685156.092     -276642.65149    -44481.49647  21685155.399    21685165.261
       232.000         189.000
  23817316.116    -8519418.85149  -6620321.64445  23817314.256    23817329.784
       211.000         148.000
  23874508.602    -9460046.51049  -7041997.78545  23874508.422    23874520.721
       212.000         149.000
  21480987.025   -18548844.52649 -13866962.56347  21480986.512    21480995.928
       241.000         203.000
 00  4 18  2  2 30.0000000  0  7G23G 3G29G17G15G31G21
  21310640.936    -9909971.72249  -7698313.81647  21310640.331    21310648.984
       243.000         207.000
  21708286.574   -20805837.77249 -15227145.58147  21708286.246    21708295.936
       236.000         195.000
  21273321.410   -18643592.19149 -14186329.19547  21273320.816    21273329.956
       238.000         199.000
  21695435.041     -222626.54349     -2391.04047  21695434.503    21695444.185
       232.000         189.000
  23799557.769    -8612738.62249  -6693038.06545  23799555.900    23799571.604
       205.000         151.000
  23859684.504    -9537947.27049  -7102699.55345  23859682.486    23859697.449
       213.000         149.000
  21475614.775   -18577075.67249 -13888960.80047  21475614.172    21475623.501
       240.000         203.000
 00  4 18  2  3  0.0000000  0  7G23G 3G29G17G15G31G21
  21317241.406    -9875285.98449  -7671285.96547  21317240.921    21317249.754
       242.000         207.000
  21703404.063   -20831495.39649 -15247138.50847  21703403.586    21703413.931
       237.000         195.000
  21259638.304   -18715496.73849 -14242358.58847  21259637.839    21259647.371
       237.000         199.000
  21705776.785     -168280.25749     39956.68747  21705776.414    21705786.334
       232.000         189.000
  23781798.172    -8706064.73549  -6765759.47045  23781796.345    23781811.319
       208.000         149.000
  23844934.929    -9615456.21449  -7163096.00945  23844934.525    23844946.610
       213.000         150.000
  21470280.271   -18605108.84049 -13910804.77247  21470279.755    21470289.017
       241.000         203.000
 00  4 18  2  3 30.0000000  0  7G23G 3G29G17G15G31G21
  21323873.653    -9840433.34149  -7644128.06747  21323873.080    21323881.881
       243.000         207.000
  21698633.137   -20856566.80949 -15266674.64247  21698632.989    21698642.846
       237.000         195.000
  21246039.246   -18786959.80849 -14298043.97447  21246038.743    21246048.134
       237.000         199.000
  21716184.321     -113588.49749     82573.61047  21716183.739    21716193.652
       232.000         189.000
  23764039.049    -8799388.54449  -6838479.12245  23764037.299    23764052.860
       209.000         149.000
  23830262.080    -9692562.35849  -7223178.61845  23830259.714    23830274.384
       209.000         150.000
  21464982.508   -18632948.66549 -13932498.08147  21464982.002    21464991.267
       241.000         203.000
 00  4 18  2  4  0.0000000  0  7G23G 3G29G17G15G31G21
  21330534.274    -9805431.63049  -7616854.00747  21330533.629    21330542.275
       242.000         207.000
  21693974.312   -20881049.18949 -15285751.78747  21693973.465    21693983.920
       236.000         195.000
  21232521.514   -18857995.40849 -14353396.26547  21232520.892    21232530.270
       237.000         199.000
  21726657.270      -58552.76249    125458.57847  21726656.719    21726666.274
       232.000         188.000
  23746279.873    -8892712.04449  -6911198.44645  23746278.523    23746294.100
       211.000         150.000
  23815667.152    -9769257.12049  -7282940.61245  23815666.597    23815680.010
       213.000         150.000
  21459720.684   -18660599.30849 -13954043.97747  21459719.865    21459729.374
       241.000         203.000
 00  4 18  2  4 30.0000000  0  7G23G 3G29G17G15G31G21
  21337219.895    -9770298.28649  -7589477.37447  21337219.121    21337228.124
       243.000         207.000
  21689427.489   -20904942.34149 -15304369.79047  21689426.992    21689437.224
       237.000         195.000
  21219081.150   -18928624.52149 -14408431.81347  21219080.746    21219090.105
       237.000         199.000
  21737195.553       -3173.92149    168610.89947  21737195.053    21737204.823
       231.000         188.000
  23728519.717    -8986041.86049  -6983922.75245  23728516.840    23728533.298
       210.000         150.000
  23801149.408    -9845548.50049  -7342388.37345  23801149.267    23801162.387
       214.000         150.000
  21454492.621   -18688072.81949 -13975451.85147  21454491.934    21454501.377
       241.000         203.000
 00  4 18  2  5  0.0000000  0  7G23G 3G29G17G15G31G21
  21343928.179    -9735046.15049  -7562008.17647  21343927.606    21343936.379
       242.000         207.000
  21684991.860   -20928251.41849 -15322532.66947  21684991.533    21685001.521
       236.000         196.000
  21205718.590   -18998844.85349 -14463148.82547  21205717.977    21205727.280
       237.000         200.000
  21747796.239       52533.27949    212019.08347  21747795.385    21747805.698
       231.000         188.000
  23710757.674    -9079381.07249  -7056654.41745  23710757.794    23710771.692
       206.000         151.000
  23786708.876    -9921433.46249  -7401519.35945  23786708.235    23786722.609
       215.000         152.000
  21449298.480   -18715368.07949 -13996720.82647  21449297.790    21449307.327
       241.000         203.000
 00  4 18  2  5 30.0000000  0  7G23G 3G29G17G15G31G21
  21350657.037    -9699685.65749  -7534454.54547  21350656.508    21350665.308
       242.000         206.000
  21680665.777   -20950985.22649 -15340247.28947  21680665.438    21680675.389
       237.000         196.000
  21192432.384   -19068663.77649 -14517553.05747  21192431.985    21192441.123
       237.000         200.000
  21758459.142      108567.04149    255681.73346  21758458.283    21758468.337
       231.000         187.000
  23692992.888    -9172734.53649  -7129397.14445  23692992.393    23693007.309
       216.000         150.000
  23772346.458    -9996907.55049  -7460330.18845  23772344.608    23772358.314
       212.000         151.000
  21444137.662   -18742488.00749 -14017853.18247  21444136.893    21444146.643
       241.000         203.000
 00  4 18  2  6  0.0000000  0  7G23G 3G29G17G15G31G21
  21357408.008    -9664209.22249  -7506810.57147  21357407.295    21357416.120
       242.000         206.000
  21676448.677   -20973146.41049 -15357515.71347  21676447.807    21676458.092
       237.000         196.000
  21179221.706   -19138085.94049 -14571648.12747  21179221.330    21179230.405
       237.000         200.000
  21769184.417      164928.49149    299599.70746  21769183.298    21769193.739
       231.000         187.000
  23675225.677    -9266101.78649  -7202150.66345  23675223.184    23675239.738
       210.000         151.000
  23758060.744   -10071979.27849  -7518827.53045  23758060.607    23758074.166
       216.000         152.000
  21439010.511   -18769431.20949 -14038847.82747  21439009.752    21439019.363
       241.000         203.000
 00  4 18  2  6 30.0000000  0  7G23G 3G29G17G15G31G21
  21364182.244    -9628610.24349  -7479071.10947  21364181.465    21364190.548
       242.000         206.000
  21672341.392   -20994729.99949 -15374334.05247  21672341.070    21672350.674
       237.000         196.000
  21166088.328   -19207101.92749 -14625426.69547  21166087.902    21166097.093
       238.000         201.000
  21779972.787      221621.94149    343776.38246  21779972.019    21779982.289
       230.000         186.000
  23657456.333    -9359479.06149  -7274911.91745  23657456.853    23657470.283
       212.000         151.000
  23743850.574   -10146654.95549  -7577016.24845  23743849.395    23743861.930
       213.000         153.000
  21433915.299   -18796206.45149 -14059711.59947  21433914.720    21433924.159
       240.000         203.000
 00  4 18  2  7  0.0000000  0  7G23G 3G29G17G15G31G21
  21370980.288    -9592886.25449  -7451234.22747  21370979.709    21370988.303
       242.000         206.000
  21668342.795   -21015743.07849 -15390707.83747  21668342.379    21668352.437
       238.000         196.000
  21153031.699   -19275714.56249 -14678890.95847  21153031.191    21153040.418
       238.000         201.000
  21790825.918      278655.42649    388218.03346  21790825.046    21790835.647
       230.000         186.000
  23639686.431    -9452859.81949  -7347675.99745  23639685.037    23639699.863
       214.000         151.000
  23729716.523   -10220928.51849  -7634891.60645  23729715.740    23729729.330
       212.000         152.000
  21428852.390   -18822811.85649 -14080443.03047  21428851.705    21428860.945
       241.000         203.000
 00  4 18  2  7 30.0000000  0  7G23G 3G29G17G15G31G21
  21377800.807    -9557044.20849  -7423305.35747  21377800.107    21377809.182
       242.000         206.000
  21664451.807   -21036190.30849 -15406640.69847  21664451.372    21664461.172
       237.000         196.000
  21140050.612   -19343930.04249 -14732045.75747  21140050.088    21140059.455
       238.000         201.000
  21801744.365      336032.08849    432927.07546  21801743.637    21801753.683
       230.000         185.000
  23621915.764    -9546244.38149  -7420442.98845  23621915.078    23621930.609
       213.000         152.000
  23715657.086   -10294811.35849  -7692462.51045  23715656.343    23715668.828
       213.000         154.000
  21423820.171   -18849256.07149 -14101048.86247  21423819.448    21423828.913
       241.000         203.000
 00  4 18  2  8  0.0000000  0  7G23G 3G29G17G15G31G21
  21384641.797    -9521094.53349  -7395292.61747  21384641.311    21384649.873
       242.000         206.000
  21660667.771   -21056075.14649 -15422135.32347  21660667.182    21660677.299
       237.000         196.000
  21127147.907   -19411733.71749 -14784879.67047  21127147.530    21127156.691
       238.000         201.000
  21812725.210      393736.68449    477891.67346  21812724.375    21812734.361
       229.000         185.000
  23604144.949    -9639630.72649  -7493211.39845  23604142.272    23604157.401
       208.000         152.000
  23701672.007   -10368302.72749  -7749728.37845  23701670.995    23701683.054
       213.000         152.000
  21418819.356   -18875535.29449 -14121526.12947  21418818.491    21418827.743
       241.000         203.000
 00  4 18  2  8 30.0000000  0  7G23G 3G29G17G15G31G21
  21391502.025    -9485043.77849  -7367201.11247  21391501.402    21391510.235
       242.000         205.000
  21656990.227   -21075400.41449 -15437193.92447  21656989.958    21656999.495
       237.000         197.000
  21114325.871   -19479113.43049 -14837383.22547  21114325.347    21114334.625
       238.000         201.000
  21823766.299      451758.03849    523103.09346  21823765.731    21823775.447
       229.000         184.000
  23586373.732    -9733017.69549  -7565980.28145  23586373.843    23586386.265
       215.000         152.000
  23687763.765   -10441389.76249  -7806679.18045  23687763.443    23687775.410
       213.000         151.000
  21413851.718   -18901640.24749 -14141867.60447  21413850.959    21413860.468
       241.000         203.000
 00  4 18  2  9  0.0000000  0  7G23G 3G29G17G15G31G21
  21398382.891    -9448884.76649  -7339025.24447  21398382.268    21398391.348
       242.000         205.000
  21653418.478   -21094170.09649 -15451819.59747  21653418.021    21653427.862
       238.000         197.000
  21101585.588   -19546063.47949 -14889551.97547  21101584.977    21101594.334
       237.000         202.000
  21834868.014      510097.86549    568562.66946  21834867.286    21834877.939
       229.000         184.000
  23568603.332    -9826401.02849  -7638746.31545  23568603.016    23568618.215
       218.000         153.000
  23673934.397   -10514063.18749  -7863307.68845  23673934.466    23673948.834
       215.000         154.000
  21408919.305   -18927559.80949 -14162064.61547  21408918.564    21408928.214
       241.000         204.000
 00  4 18  2  9 30.0000000  0  7G23G 3G29G17G15G31G21
  21405286.053    -9412608.23549  -7310757.80847  21405285.199    21405294.056
       242.000         205.000
  21649955.007   -21112370.76649 -15466001.88247  21649954.488    21649964.407
       238.000         197.000
  21088929.965   -19612568.60449 -14941374.03447  21088929.088    21088938.415
       238.000         202.000
  21846030.424      568756.69249    614270.81046  21846029.728    21846039.813
       228.000         184.000
  23550833.809    -9919779.52249  -7711508.56645  23550832.008    23550846.069
       218.000         153.000
  23660184.416   -10586319.81849  -7919611.44245  23660184.425    23660196.701
       212.000         154.000
  21404023.316   -18953288.18049 -14182112.65347  21404022.354    21404032.146
       241.000         204.000
 00  4 18  2 10  0.0000000  0  7G23G 3G29G17G15G31G21
  21412214.600    -9376198.52149  -7282386.59347  21412213.943    21412222.563
       242.000         205.000
  21646603.778   -21129981.04549 -15479724.11947  21646603.348    21646613.036
       238.000         197.000
  21076358.526   -19678631.31449 -14992851.35447  21076358.041    21076366.915
       238.000         202.000
  21857255.348      627744.16649    660235.06446  21857254.528    21857264.820
       228.000         183.000
  23533066.989   -10013144.31449  -7784260.23845  23533065.078    23533081.060
       212.000         153.000
  23646517.565   -10658138.23849  -7975573.67245  23646517.577    23646531.275
       213.000         155.000
  21399166.806   -18978809.26349 -14201999.16947  21399166.285    21399175.545
       241.000         204.000
 00  4 18  2 10 30.0000000  0  7G23G 3G29G17G15G31G21
  21419171.719    -9339638.48049  -7253898.23847  21419170.986    21419180.007
       242.000         205.000
  21643368.811   -21146980.63449 -15492970.49947  21643368.528    21643378.026
       238.000         197.000
  21063869.720   -19744259.85149 -15043990.36147  21063868.987    21063877.977
       238.000         202.000
  21868546.496      687079.42449    706470.31146  21868545.821    21868556.457
       228.000         183.000
  23515303.988   -10106488.36349  -7856995.63845  23515302.675    23515317.547
       210.000         155.000
  23632935.689   -10729511.12249  -8031188.78245  23632935.479    23632946.798
       213.000         155.000
  21394349.092   -19004126.28849 -14221726.67847  21394348.621    21394357.642
       242.000         204.000
 00  4 18  2 11  0.0000000  0  7G23G 3G29G17G15G31G21
  21426155.988    -9302936.14849  -7225299.00547  21426155.371    21426164.029
       242.000         204.000
  21640249.944   -21163370.33649 -15505741.63947  21640249.367    21640259.184
       238.000         197.000
  21051464.064   -19809451.42849 -15094788.88047  21051463.695    21051472.711
       238.000         202.000
  21879904.783      746767.53649    752980.49646  21879904.028    21879914.263
       228.000         183.000
  23497545.365   -10199810.07849  -7929713.69945  23497545.098    23497557.454
       214.000         154.000
  23619438.066   -10800440.91949  -8086458.61145  23619437.893    23619450.113
       215.000         154.000
  21389567.861   -19029251.66549 -14241304.85347  21389566.961    21389576.509
       241.000         204.000
 00  4 18  2 11 30.0000000  0  7G23G 3G29G17G15G31G21
  21433164.477    -9266106.21249  -7196600.34347  21433163.829    21433172.364
       242.000         204.000
  21637247.420   -21179148.52249 -15518036.27447  21637246.856    21637256.617
       238.000         197.000
  21039139.638   -19874216.31749 -15145254.91347  21039139.257    21039148.351
       237.000         202.000
  21891329.240      806803.27749    799761.56146  21891329.328    21891338.845
       228.000         182.000
  23479790.181   -10293113.22549  -8002417.23645  23479789.770    23479803.430
       216.000         155.000
  23606024.710   -10870928.60349  -8141383.94145  23606024.699    23606036.962
       213.000         155.000
  21384822.910   -19054186.42349 -14260734.49547  21384822.236    21384831.613
       242.000         204.000
 00  4 18  2 12  0.0000000  0  7G23G 3G29G17G15G31G21
  21440196.768    -9229151.26949  -7167804.27947  21440196.091    21440204.682
       242.000         204.000
  21634359.497   -21194324.45349 -15529861.62147  21634358.805    21634369.231
       238.000         198.000
  21026896.411   -19938554.41549 -15195388.38747  21026895.883    21026904.750
       237.000         202.000
  21902819.128      867182.74249    846810.47146  21902818.334    21902828.457
       227.000         182.000
  23462038.444   -10386398.56849  -8075106.90145  23462037.559    23462052.192
       217.000         155.000
  23592695.372   -10940974.38249  -8195964.91045  23592694.667    23592707.398
       217.000         156.000
  21380113.386   -19078934.92749 -14280019.00147  21380112.646    21380122.106
       242.000         204.000
 00  4 18  2 12 30.0000000  0  7G23G 3G29G17G15G31G21
  21447253.415    -9192068.33149  -7138908.47547  21447252.756    21447261.379
       242.000         204.000
  21631580.992   -21208925.59649 -15541239.09147  21631580.658    21631590.168
       239.000         198.000
  21014737.518   -20002449.44549 -15245176.61347  21014737.140    21014745.871
       238.000         202.000
  21914373.763      927902.68149    894124.67846  21914373.055    21914383.226
       228.000         182.000
  23444289.756   -10479668.11749  -8147784.28645  23444289.426    23444301.492
       215.000         156.000
  23579448.833   -11010584.64549  -8250206.51745  23579446.689    23579461.113
       214.000         155.000
  21375435.919   -19103515.01649 -14299172.27547  21375435.374    21375444.715
       242.000         204.000
 00  4 18  2 13  0.0000000  0  7G23G 3G29G17G15G31G21
  21454334.696    -9154855.87349  -7109911.74447  21454334.064    21454342.692
       242.000         204.000
  21628906.675   -21222978.78749 -15552189.58547  21628905.970    21628916.134
       238.000         197.000
  21002663.813   -20065896.59749 -15294615.84247  21002663.209    21002671.993
       238.000         202.000
  21925991.901      988956.25149    941698.88046  21925991.272    21926001.381
       227.000         182.000
  23426543.896   -10572921.91349  -8220449.35045  23426542.822    23426557.720
       217.000         156.000
  23566285.491   -11079757.62949  -8304107.38745  23566284.361    23566295.454
       217.000         156.000
  21370791.282   -19127922.61249 -14318191.13647  21370790.450    21370799.851
       241.000         205.000
 00  4 18  2 13 30.0000000  0  8G23G 3G29G 9G17G15G31G21
  21461443.036    -9117501.27049  -7080804.25447  21461442.293    21461451.044
       242.000         204.000
  21626337.706   -21236478.28249 -15562708.63047  21626337.318    21626347.121
       238.000         197.000
  20990675.195   -20128896.73149 -15343706.74847  20990674.718    20990683.585
       238.000         202.000
                  -1281323.53549   -991682.09043
       204.000          74.000
  21937674.089     1050346.32949    989535.29046  21937673.734    21937683.423
       228.000         181.000
  23408801.676   -10666157.82649  -8293100.52845  23408799.695    23408813.814
       212.000         157.000
  23553207.291   -11148484.36949  -8357660.57145  23553206.185    23553217.925
       215.000         155.000
  21366179.402   -19152158.04449 -14337075.84747  21366178.922    21366188.132
       241.000         205.000
 00  4 18  2 14  0.0000000  0  7G23G 3G29G17G15G31G21
  21468579.547    -9079998.55149  -7051581.34747  21468578.822    21468587.755
       241.000         203.000
  21623873.883   -21249425.33549 -15572797.20547  21623873.354    21623883.007
       238.000         197.000
  20978773.948   -20191437.98849 -15392440.08947  20978773.347    20978782.216
       238.000         203.000
  21949419.981     1112071.12249   1037632.51046  21949419.153    21949429.290
       227.000         181.000
  23391062.771   -10759374.62149  -8365736.74045  23391062.025    23391077.147
       219.000         157.000
  23540214.170   -11216762.64149  -8410864.25045  23540213.929    23540227.951
       214.000         156.000
  21361597.355   -19176236.81149 -14355838.48147  21361596.894    21361606.116
       241.000         205.000
 00  4 18  2 14 30.0000000  0  7G23G 3G29G17G15G31G21
  21475739.886    -9042370.78149  -7022261.00647  21475739.125    21475747.756
       242.000         203.000
  21621515.248   -21261820.04849 -15582455.38547  21621515.246    21621524.902
       239.000         198.000
  20966959.098   -20253525.07749 -15440819.53347  20966958.796    20966967.208
       239.000         203.000
  21961229.159     1174128.66649   1085989.02246  21961228.368    21961238.534
       227.000         180.000
  23373327.859   -10852572.16649  -8438358.00745  23373325.194    23373340.472
       212.000         157.000
  23527306.569   -11284592.23949  -8463718.32545  23527306.485    23527318.612
       219.000         157.000
  21357043.770   -19200165.96049 -14374484.52747  21357043.167    21357052.643
       241.000         205.000
 00  4 18  2 15  0.0000000  0  8G23G 3G29G 9G17G15G31G21
  21482917.929    -9004649.84849  -6992868.07047  21482917.146    21482925.864
       242.000         203.000
  21619265.140   -21273644.81349 -15591669.46347  21619264.794    21619274.422
       239.000         198.000
  20955228.015   -20315172.04849 -15488856.03347  20955227.558    20955236.047
       239.000         203.000
                  -1183273.33949   -914052.08343
       204.000          74.000
  21973100.560     1236513.13749   1134600.28946  21973100.059    21973109.283
       226.000         180.000
  23355594.682   -10945759.39249  -8510971.21745  23355593.399    23355607.373
       216.000         158.000
  23514482.085   -11351985.80449  -8516232.70645  23514479.924    23514493.152
       209.000         158.000
  21352517.866   -19223949.56849 -14393017.16947  21352517.140    21352526.137
       241.000         205.000
 00  4 18  2 15 30.0000000  0  7G23G 3G29G17G15G31G21
  21490108.665    -8966862.03949  -6963423.01447  21490107.938    21490117.003
       241.000         203.000
  21617125.203   -21284890.34849 -15600432.19447  21617124.666    21617134.455
       239.000         198.000
  20943579.557   -20376384.66549 -15536554.07247  20943579.152    20943587.524
       239.000         203.000
  21985032.902     1299217.82949   1183461.06646  21985032.549    21985042.054
       226.000         180.000
  23337860.962   -11038950.26949  -8583587.25645  23337859.236    23337873.517
       214.000         157.000
  23501738.048   -11418954.26949  -8568415.73745  23501737.785    23501749.106
       219.000         157.000
  21348015.980   -19247606.93949 -14411451.44447  21348015.486    21348024.449
       241.000         205.000
 00  4 18  2 16  0.0000000  0  8G23G 3G29G 9G17G15G31G21
  21497309.639    -8929020.72949  -6933936.27247  21497308.893    21497317.757
       241.000         203.000
  21615092.873   -21295570.24249 -15608754.16047  21615092.343    21615102.265
       239.000         198.000
  20932011.466   -20437174.95449 -15583923.03047  20932011.150    20932019.759
       238.000         203.000
                  -1226595.08749   -947809.16743
       204.000          74.000
  21997024.493     1362234.00549   1232564.55946  21997023.527    21997033.370
       226.000         180.000
  23320125.635   -11132149.21749  -8656209.63245  23320125.133    23320137.536
       220.000         159.000
  23489074.080   -11485504.10049  -8620272.64645  23489074.012    23489086.945
       215.000         156.000
  21343537.540   -19271140.99149 -14429789.62447  21343536.737    21343546.089
       241.000         205.000
 00  4 18  2 16 30.0000000  0  8G23G 3G29G 9G17G15G31G21
  21504519.703    -8891131.39849  -6904412.11347  21504519.081    21504527.793
       241.000         202.000
  21613164.889   -21305701.73449 -15616648.81547  21613164.288    21613174.267
       239.000         198.000
  20920522.634   -20497548.85149 -15630967.52047  20920522.384    20920530.859
       238.000         204.000
                  -1247512.59149   -964108.45644                  23519023.861
       205.000         120.000
  22009075.711     1425563.46149   1281912.16546  22009074.735    22009084.484
       226.000         179.000
  23302388.005   -11225360.10049  -8728841.24445  23302385.784    23302401.082
       217.000         158.000
  23476488.724   -11551639.05149  -8671806.22245  23476488.725    23476501.716
       217.000         157.000
  21339083.066   -19294549.50649 -14448029.98647  21339082.391    21339091.700
       241.000         205.000
 00  4 18  2 17  0.0000000  0  8G23G 3G29G 9G17G15G31G21
  21511743.147    -8853172.11649  -6874833.44947  21511742.551    21511750.942
       241.000         202.000
  21611341.448   -21315283.75749 -15624115.31047  21611341.010    21611350.792
       238.000         198.000
  20909112.968   -20557506.44449 -15677687.62647  20909112.403    20909121.271
       239.000         204.000
  23515130.531    -1267924.59849   -980013.79644  23515129.814    23515140.812
       203.000         131.000
  22021185.218     1489199.17449   1331498.40646  22021184.551    22021195.060
       225.000         179.000
  23284648.639   -11318580.66449  -8801480.49745  23284645.715    23284660.770
       215.000         159.000
  23463984.260   -11617350.64149  -8723009.96245  23463982.103    23463995.542
       214.000         158.000
  21334652.894   -19317829.93649 -14466170.54047  21334652.178    21334661.422
       241.000         205.000
 00  4 18  2 17 30.0000000  0  8G23G 3G29G 9G17G15G31G21
  21518985.830    -8815111.51949  -6845175.83947  21518985.207    21518993.824
       241.000         202.000
  21609620.046   -21324329.82149 -15631164.17447  21609619.242    21609629.014
       238.000         198.000
  20897784.408   -20617037.86849 -15724075.64747  20897783.965    20897792.729
       239.000         204.000
  23511342.013    -1287832.58449   -995526.38145  23511341.607    23511352.142
       206.000         132.000
  22033352.383     1553138.13349   1381320.95746  22033351.538    22033361.863
       225.000         179.000
  23266909.616   -11411798.55249  -8874117.59945  23266907.895    23266920.619
       217.000         159.000
  23451564.218   -11682617.12449  -8773866.85245  23451563.351    23451576.718
       215.000         158.000
  21330248.905   -19340972.76649 -14484203.87447  21330248.047    21330257.325
       241.000         206.000
 00  4 18  2 18  0.0000000  0  8G23G 3G29G 9G17G15G31G21
  21526251.763    -8776928.98549  -6815423.21247  21526250.767    21526259.790
       240.000         202.000
  21608002.499   -21332829.79049 -15637787.51247  21608002.101    21608012.013
       238.000         197.000
  20886539.099   -20676132.05849 -15770122.96447  20886538.570    20886547.011
       239.000         204.000
  23507650.014    -1307233.43149  -1010643.80145  23507649.123    23507657.520
       204.000         133.000
  22045578.046     1617384.25549   1431382.84646  22045577.794    22045587.054
       225.000         178.000
  23249174.708   -11504995.30449  -8946738.28345  23249173.852    23249187.969
       218.000         158.000
  23439231.462   -11747425.89449  -8824367.09545  23439230.398    23439242.518
       214.000         159.000
  21325874.202   -19363961.72549 -14502117.30947  21325873.445    21325882.886
       241.000         206.000
 00  4 18  2 18 30.0000000  0  8G23G 3G29G 9G17G15G31G21
  21533542.994    -8738613.40449  -6785566.91547  21533542.409    21533551.057
       241.000         201.000
  21606492.226   -21340765.97649 -15643971.53947  21606491.537    21606501.465
       238.000         197.000
  20875381.255   -20734766.43749 -15815811.99547  20875381.014    20875389.400
       239.000         205.000
  23504054.452    -1326128.18449  -1025366.88745  23504053.322    23504062.882
       205.000         134.000
  22057862.846     1681941.43049   1481687.12146  22057862.240    22057871.892
       224.000         177.000
  23231445.843   -11598160.34949  -9019334.25845  23231443.286    23231457.768
       215.000         159.000
  23426988.610   -11811761.62549  -8874498.71645  23426987.744    23427000.878
       219.000         161.000
  21321531.879   -19386780.67149 -14519898.26347  21321530.951    21321540.281
       241.000         206.000
 00  4 18  2 19  0.0000000  0  8G23G 3G29G 9G17G15G31G21
  21540862.150    -8700150.85149  -6755596.08547  21540861.512    21540870.041
       240.000         201.000
  21605095.093   -21348107.53849 -15649692.22047  21605094.774    21605104.590
       238.000         197.000
  20864312.209   -20792934.21049 -15861137.43447  20864311.778    20864320.401
       239.000         205.000
  23500554.825    -1344518.24549  -1039696.68945  23500553.965    23500563.562
       205.000         134.000
  22070208.059     1746816.00049   1532238.71346  22070207.723    22070217.636
       224.000         177.000
  23213726.473   -11691275.29449  -9091891.20745  23213724.233    23213738.916
       215.000         160.000
  23414840.230   -11875602.01749  -8924244.37945  23414838.834    23414851.744
       215.000         162.000
  21317225.357   -19409411.33249 -14537532.50047  21317224.882    21317233.783
       242.000         206.000
 00  4 18  2 19 30.0000000  0  8G23G 3G29G 9G17G15G31G21
  21548209.014    -8661542.69249  -6725511.79947  21548208.286    21548217.014
       240.000         201.000
  21603814.943   -21354834.94749 -15654934.34247  21603814.540    21603824.281
       238.000         197.000
  20853333.574   -20850627.05349 -15906092.80047  20853333.198    20853341.929
       240.000         205.000
  23497151.455    -1362402.16549  -1053632.08645  23497150.601    23497161.639
       205.000         134.000
  22082617.125     1812026.05149   1583051.71946  22082616.793    22082626.169
       224.000         176.000
  23196018.666   -11784329.43049  -9164400.75445  23196018.401    23196029.308
       220.000         158.000
  23402785.518   -11938949.08849  -8973605.63645  23402784.809    23402796.648
       220.000         161.000
  21312956.183   -19431845.80949 -14555013.86247  21312955.718    21312964.585
       242.000         206.000
 00  4 18  2 20  0.0000000  0  8G23G 3G29G 9G17G15G31G21
  21555580.892    -8622803.21149  -6695325.18447  21555580.302    21555588.975
       240.000         201.000
  21602654.592   -21360932.68249 -15659685.81147  21602654.344    21602663.875
       238.000         197.000
  20842443.297   -20907855.67449 -15950686.43647  20842442.907    20842451.471
       239.000         206.000
  23493846.381    -1379770.36049  -1067165.63045  23493844.850    23493856.578
       204.000         135.000
  22095092.310     1877583.41049   1634135.36746  22095091.247    22095102.231
       224.000         175.000
  23178322.520   -11877322.92649  -9236863.06245  23178321.772    23178335.367
       216.000         160.000
  23390824.803   -12001802.98449  -9022582.59645  23390824.499    23390836.546
       217.000         161.000
  21308724.946   -19454080.97849 -14572339.92047  21308724.237    21308733.329
       242.000         206.000
 00  4 18  2 20 30.0000000  0  8G23G 3G29G 9G17G15G31G21
  21562974.564    -8583949.02649  -6665049.18847  21562973.994    21562982.599
       240.000         200.000
  21601612.899   -21366406.49949 -15663951.10547  21601611.935    21601622.271
       237.000         197.000
  20831639.313   -20964630.68249 -15994926.60847  20831638.896    20831647.349
       240.000         206.000
  23490639.810    -1396620.79749  -1080295.72645  23490639.289    23490650.631
       206.000         136.000
  22107633.111     1943485.71249   1685487.80146  22107632.644    22107642.684
       223.000         175.000
  23160636.902   -11970260.82749  -9309282.09045  23160635.486    23160647.904
       216.000         159.000
  23378957.024   -12064167.93049  -9071178.54845  23378956.135    23378969.482
       217.000         162.000
  21304530.053   -19476125.06649 -14589517.08147  21304529.241    21304538.548
       242.000         206.000
 00  4 18  2 21  0.0000000  0  8G23G 3G29G 9G17G15G31G21
  21570387.769    -8544992.34249  -6634693.32447  21570387.172    21570395.594
       240.000         200.000
  21600690.348   -21371254.13649 -15667728.46747  21600689.864    21600699.759
       237.000         197.000
  20820918.684   -21020967.56949 -16038825.38847  20820918.348    20820926.664
       240.000         206.000
  23487532.132    -1412951.13549  -1093020.53645  23487531.340    23487541.541
       204.000         136.000
  22120239.474     2009732.61349   1737108.75146  22120238.947    22120248.705
       223.000         174.000
  23142960.752   -12063148.90949  -9381662.23045  23142958.673    23142973.742
       218.000         161.000
  23367176.755   -12126073.01249  -9119416.17245  23367176.121    23367189.279
       219.000         162.000
  21300367.583   -19497998.85749 -14606561.54047  21300367.013    21300376.245
       242.000         206.000
 00  4 18  2 21 30.0000000  0  8G23G 3G29G 9G17G15G31G21
  21577818.284    -8505944.57549  -6604266.48547  21577817.288    21577826.045
       240.000         200.000
  21599882.615   -21375498.88349 -15671036.04647  21599882.043    21599892.117
       238.000         197.000
  20810282.536   -21076860.49749 -16082378.22547  20810281.982    20810290.420
       240.000         206.000
  23484522.410    -1428766.67649  -1105344.22345  23484521.814    23484531.573
       204.000         136.000
  22132911.692     2076325.80149   1788999.52746  22132911.474    22132921.166
       223.000         173.000
  23125292.000   -12155998.13949  -9454012.16145  23125290.554    23125304.690
       218.000         159.000
  23355481.107   -12187533.90149  -9167307.68045  23355479.868    23355493.707
       217.000         162.000
  21296235.341   -19519713.87849 -14623482.28447  21296234.494    21296243.902
       242.000         206.000
 00  4 18  2 22  0.0000000  0  8G23G 3G29G 9G17G15G31G21
  21585264.130    -8466816.26149  -6573776.89047  21585263.563    21585272.262
       240.000         200.000
  21599185.264   -21379163.59949 -15673891.65747  21599184.786    21599194.811
       238.000         197.000
  20799733.408   -21132296.16849 -16125574.76147  20799732.825    20799741.436
       240.000         207.000
  23481608.994    -1444076.08049  -1117273.51245  23481607.951    23481619.212
       202.000         137.000
  22145648.018     2143255.53049   1841152.54346  22145647.857    22145657.077
       221.000         173.000
  23107629.297   -12248815.88549  -9526337.54245  23107628.432    23107642.040
       218.000         161.000
  23343871.300   -12248543.52449  -9214847.53146  23343870.974    23343882.744
       220.000         165.000
  21292131.066   -19541281.76149 -14640288.37947  21292130.515    21292139.312
       242.000         206.000
 00  4 18  2 22 30.0000000  0  8G23G 3G29G 9G17G15G31G21
  21592724.897    -8427609.68349  -6543226.30047  21592724.048    21592733.003
       240.000         200.000
  21598596.449   -21382257.81549 -15676302.71847  21598596.233    21598605.506
       238.000         197.000
  20789276.182   -21187248.98449 -16168395.04947  20789275.764    20789284.088
       241.000         207.000
  23478789.089    -1458894.40849  -1128820.14945  23478788.673    23478799.272
       204.000         137.000
  22158446.668     2210512.71349   1893560.72146  22158445.937    22158456.210
       221.000         172.000
  23089971.942   -12341604.98449  -9598640.56345  23089970.206    23089983.252
       219.000         160.000
  23332344.897   -12309114.92349  -9262045.90146  23332343.205    23332355.554
       217.000         164.000
  21288052.757   -19562713.23449 -14656988.18147  21288052.168    21288061.219
       242.000         206.000
 00  4 18  2 23  0.0000000  0  8G23G 3G29G 9G17G15G31G21
  21600201.975    -8388317.44749  -6512608.96447  21600201.232    21600209.949
       240.000         200.000
  21598112.325   -21384801.71149 -15678284.95347  21598111.678    21598121.572
       237.000         197.000
  20778913.044   -21241707.16949 -16210829.90847  20778912.808    20778921.019
       240.000         207.000
  23476063.610    -1473216.65949  -1139980.22845  23476063.499    23476072.887
       203.000         137.000
  22171309.453     2278107.13149   1946231.68446  22171308.532    22171319.520
       221.000         172.000
  23072320.191   -12434365.05649  -9670920.97645  23072319.146    23072333.024
       219.000         162.000
  23320904.932   -12369232.13249  -9308890.39146  23320904.774    23320916.671
       221.000         165.000
  21284001.436   -19584002.64349 -14673577.28347  21284000.863    21284009.783
       241.000         206.000
 00  4 18  2 23 30.0000000  0  8G23G 3G29G 9G17G15G31G21
  21607693.727    -8348948.19149  -6481931.61747  21607693.105    21607701.771
       239.000         200.000
  21597730.055   -21386810.19849 -15679849.98847  21597729.653    21597739.333
       238.000         197.000
  20768643.932   -21295671.41849 -16252879.88347  20768643.627    20768651.863
       241.000         207.000
  23473434.944    -1487030.03149  -1150743.79545  23473433.420    23473444.010
       205.000         137.000
  22184235.837     2346035.84749   1999163.12346  22184234.954    22184244.953
       221.000         171.000
  23054674.077   -12527095.24049  -9743178.09745  23054673.392    23054685.768
       220.000         162.000
  23309557.329   -12428863.50349  -9355356.24946  23309555.650    23309569.070
       217.000         165.000
  21279978.978   -19605140.58049 -14690048.35647  21279978.218    21279987.425
       242.000         207.000
 00  4 18  2 24  0.0000000  0  8G23G 3G29G 9G17G15G31G21
  21615197.266    -8309516.82249  -6451205.87247  21615196.581    21615205.322
       240.000         199.000
  21597452.508   -21388268.87849 -15680986.60847  21597452.105    21597462.098
       238.000         197.000
  20758465.881   -21349157.35849 -16294557.15247  20758465.523    20758473.721
       241.000         208.000
  23470907.202    -1500312.81749  -1161093.90645  23470906.979    23470917.010
       206.000         138.000
  22197221.109     2414273.86349   2052335.57846  22197220.764    22197231.186
       220.000         170.000
  23037033.661   -12619795.70149  -9815412.05045  23037032.674    23037046.197
       220.000         162.000
  23298301.368   -12488013.68149  -9401447.18146  23298300.872    23298312.343
       220.000         165.000
  21275985.483   -19626126.57349 -14706401.03347  21275984.862    21275993.825
       242.000         207.000
 00  4 18  2 24 30.0000000  0  8G23G 3G29G 9G17G15G31G21
  21622713.463    -8270018.95549  -6420428.30947  21622712.917    21622721.430
       240.000         199.000
  21597279.578   -21389177.24449 -15681694.40847  21597279.125    21597288.941
       238.000         197.000
  20748373.509   -21402192.71349 -16335883.31447  20748373.100    20748381.353
       241.000         208.000
  23468483.303    -1513050.26349  -1171019.09145  23468482.648    23468492.628
       206.000         138.000
  22210265.007     2482820.01849   2105748.12246  22210264.044    22210274.926
       220.000         169.000
  23019399.517   -12712463.17749  -9887620.29146  23019399.242    23019411.275
       221.000         163.000
  23287136.223   -12546686.93849  -9447166.48846  23287134.562    23287147.493
       219.000         164.000
  21272024.340   -19646942.36749 -14722621.08447  21272023.585    21272032.603
       242.000         207.000
 00  4 18  2 25  0.0000000  0  8G23G 3G29G 9G17G15G31G21
  21630244.143    -8230444.97449  -6389591.43647  21630243.524    21630252.041
       239.000         199.000
  21597212.923   -21389527.47249 -15681967.29347  21597212.511    21597222.351
       237.000         197.000
  20738362.236   -21454801.95949 -16376877.44547  20738362.071    20738370.206
       241.000         208.000
  23466167.917    -1525217.16049  -1180499.70845  23466168.130    23466177.908
       205.000         138.000
  22223366.589     2551669.31249   2159396.89946  22223365.814    22223376.369
       219.000         168.000
  23001772.976   -12805090.53649  -9959797.26646  23001771.175    23001785.907
       219.000         163.000
  23276065.122   -12604865.20049  -9492500.06746  23276064.936    23276076.221
       220.000         166.000
  21268097.388   -19667578.62749 -14738701.23947  21268096.813    21268105.843
       242.000         207.000
 00  4 18  2 25 30.0000000  0  8G23G 3G29G 9G17G15G31G21
  21637790.901    -8190786.37149  -6358688.62347  21637790.289    21637798.931
       240.000         199.000
  21597258.757   -21389286.38349 -15681779.41947  21597258.259    21597268.303
       238.000         196.000
  20728431.988   -21506985.39049 -16417539.77647  20728431.535    20728439.792
       241.000         208.000
  23463958.599    -1536826.93049  -1189546.17645  23463957.041    23463967.461
       206.000         139.000
  22236523.035     2620806.89049   2213270.30846  22236522.026    22236532.377
       220.000         168.000
  22984155.617   -12897669.84349 -10031936.78146  22984154.111    22984167.903
       221.000         164.000
  23265085.155   -12662565.64249  -9537461.32646  23265082.908    23265096.107
       219.000         165.000
  21264203.623   -19688040.30649 -14754645.36847  21264203.049    21264211.852
       243.000         207.000
 00  4 18  2 26  0.0000000  0  8G23G 3G29G 9G17G15G31G21
  21645361.285    -8151003.75649  -6327689.17447  21645360.319    21645369.330
       240.000         199.000
  21597419.291   -21388442.83549 -15681122.09047  21597418.888    21597428.775
       238.000         196.000
  20718587.172   -21558719.92249 -16457852.30847  20718586.861    20718595.042
       241.000         208.000
  23461852.797    -1547892.61249  -1198168.69645  23461851.868    23461862.209
       205.000         139.000
  22249738.515     2690254.60549   2267385.38446  22249738.167    22249747.970
       217.000         167.000
  22966550.654   -12990184.11749 -10104025.66446  22966549.669    22966562.629
       218.000         164.000
  23254196.710   -12719784.12749  -9582047.01746  23254196.185    23254208.486
       222.000         167.000
  21260344.353   -19708320.53249 -14770448.09547  21260343.790    21260352.803
       243.000         207.000
 00  4 18  2 26 30.0000000  0  8G23G 3G29G 9G17G15G31G21
  21652961.396    -8111064.98849  -6296568.04547  21652960.687    21652969.396
       239.000         199.000
  21597693.960   -21386999.40049 -15679997.32047  21597693.588    21597703.155
       238.000         196.000
  20708832.106   -21609982.63149 -16497797.19247  20708831.704    20708839.843
       241.000         208.000
  23459847.901    -1558428.09049  -1206378.06345  23459846.766    23459858.289
       204.000         138.000
  22263018.563     2760041.68349   2321764.90446  22263017.953    22263027.683
       220.000         167.000
  22948960.934   -13082617.73649 -10176051.65146  22948960.515    22948972.118
       220.000         164.000
  23243405.106   -12776493.92349  -9626236.32146  23243402.667    23243415.146
       221.000         166.000
  21256521.067   -19728411.98649 -14786103.72947  21256520.237    21256529.481
       242.000         207.000
 00  4 18  2 27  0.0000000  0  8G23G 3G29G 9G17G15G31G21
  21660592.103    -8070965.47549  -6265321.65847  21660591.455    21660600.288
       240.000         199.000
  21598085.669   -21384941.25249 -15678393.55147  21598085.087    21598094.880
       238.000         196.000
  20699172.856   -21660742.05249 -16537349.90347  20699172.571    20699180.649
       242.000         209.000
  23457943.748    -1568433.85249  -1214174.68245  23457944.013    23457953.010
       207.000         138.000
  22276364.006     2830171.98949   2376411.86646  22276363.065    22276373.563
       220.000         166.000
  22931387.736   -13174964.91349 -10248010.28546  22931386.951    22931399.815
       219.000         164.000
  23232712.329   -12832683.35649  -9670020.15846  23232711.708    23232724.569
       220.000         166.000
  21252728.981   -19748339.09149 -14801631.29847  21252728.432    21252737.398
       242.000         207.000
 00  4 18  2 27 30.0000000  0  8G23G 3G29G 9G17G15G31G21
  21668251.510    -8030714.94149  -6233957.58747  21668250.612    21668259.075
       239.000         199.000
  21598591.199   -21382284.68649 -15676323.48847  21598590.567    21598600.569
       237.000         196.000
  20689611.868   -21710985.18549 -16576500.31047  20689611.350    20689619.587
       241.000         209.000
  23456137.571    -1577925.32349  -1221570.53145  23456138.034    23456147.815
       206.000         139.000
  22289777.617     2900661.12049   2431338.43146  22289777.218    22289787.086
       220.000         166.000
  22913830.263   -13267228.92749 -10319904.11446  22913829.426    22913841.910
       220.000         165.000
  23222117.883   -12888356.99849  -9713402.06446  23222117.193    23222128.861
       222.000         166.000
  21248965.659   -19768115.56149 -14817041.48947  21248965.018    21248973.844
       242.000         207.000
 00  4 18  2 28  0.0000000  0  8G23G 3G29G 9G17G15G31G21
  21675936.354    -7990330.45449  -6202489.14147  21675935.522    21675944.202
       239.000         199.000
  21599206.138   -21379052.85349 -15673805.16347  21599205.531    21599215.576
       237.000         196.000
  20680147.261   -21760721.61749 -16615255.88847  20680146.992    20680155.008
       242.000         209.000
  23454431.666    -1586889.80949  -1228555.75845  23454431.165    23454440.872
       206.000         138.000
  22303259.173     2971507.06949   2486543.04446  22303258.855    22303268.519
       218.000         166.000
  22896286.556   -13359420.85349 -10391741.77346  22896285.931    22896297.905
       219.000         164.000
  23211623.060   -12943507.29449  -9756376.18946  23211621.759    23211633.412
       220.000         165.000
  21245229.175   -19787750.81549 -14832341.64547  21245228.554    21245237.312
       242.000         207.000
 00  4 18  2 28 30.0000000  0  8G23G 3G29G 9G17G15G31G21
  21683640.138    -7949846.69249  -6170943.33147  21683639.649    21683647.917
       238.000         198.000
  21599929.989   -21375248.52649 -15670840.74047  21599929.500    21599939.275
       238.000         196.000
  20670775.959   -21809967.66849 -16653629.35347  20670775.570    20670783.684
       242.000         209.000
  23452828.202    -1595315.66449  -1235121.27545  23452827.156    23452836.750
       206.000         138.000
  22316803.803     3042684.42949   2542005.88746  22316802.729    22316813.209
       219.000         165.000
  22878753.972   -13451554.45349 -10463533.97946  22878752.719    22878764.909
       218.000         165.000
  23201226.308   -12998141.98049  -9798948.53546  23201225.796    23201236.743
       222.000         165.000
  21241516.531   -19807260.93349 -14847544.29047  21241515.715    21241524.433
       242.000         207.000
 00  4 18  2 29  0.0000000  0  8G23G 3G29G 9G17G15G31G21
  21691357.615    -7909291.14549  -6139341.58647  21691356.816    21691365.236
       238.000         198.000
  21600761.916   -21370876.84849 -15667434.23247  21600761.814    21600771.452
       237.000         196.000
  20661492.728   -21858751.11349 -16691642.34547  20661492.227    20661500.486
       242.000         209.000
  23451326.995    -1603204.10449  -1241268.00345  23451326.365    23451336.674
       205.000         137.000
  22330407.373     3114171.43349   2597710.02546  22330406.801    22330416.454
       221.000         165.000
  22861229.222   -13543646.26749 -10535293.60646  22861227.392    22861242.072
       220.000         165.000
  23190923.654   -13052282.28349  -9841135.66846  23190922.049    23190935.890
       219.000         165.000
  21237823.792   -19826665.90249 -14862665.00247  21237822.961    21237831.867
       242.000         207.000
 00  4 18  2 29 30.0000000  0  8G23G 3G29G 9G17G15G31G21
  21699084.997    -7868683.32049  -6107699.10547  21699084.416    21699093.097
       238.000         198.000
  21601700.790   -21365943.13649 -15663589.77747  21601700.614    21601710.212
       237.000         196.000
  20652293.776   -21907091.69149 -16729310.24647  20652293.335    20652301.241
       241.000         209.000
  23449925.950    -1610565.73749  -1247004.25645  23449923.756    23449934.432
       207.000         137.000
  22344067.039     3185953.42249   2653644.00346  22344066.964    22344076.966
       219.000         165.000
  22843711.518   -13635701.89949 -10607025.07146  22843709.349    22843723.109
       216.000         165.000
  23180712.769   -13105939.84349  -9882946.60446  23180712.077    23180723.210
       220.000         166.000
  21234153.756   -19845951.89349 -14877693.00347  21234153.052    21234161.947
       242.000         207.000
 00  4 18  2 30  0.0000000  0  8G23G 3G29G 9G17G15G31G21
  21706821.450    -7828027.98049  -6076019.60047  21706820.861    21706829.436
       238.000         198.000
  21602748.458   -21360437.57349 -15659299.72547  21602747.699    21602757.785
       237.000         196.000
  20643177.776   -21954996.11249 -16766638.28547  20643177.306    20643185.452
       241.000         209.000
  23448627.172    -1617390.23449  -1252321.94945  23448626.314    23448637.105
       205.000         136.000
  22357780.790     3258019.43949   2709799.30446  22357780.191    22357790.372
       218.000         164.000
  22826200.577   -13727721.02049 -10678728.06546  22826200.061    22826213.202
       220.000         166.000
  23170592.728   -13159120.31249  -9924385.82546  23170591.803    23170604.787
       220.000         166.000
  21230507.561   -19865112.47349 -14892623.28147  21230506.886    21230515.651
       242.000         207.000
 00  4 18  2 30 30.0000000  0  8G23G 3G29G 9G17G15G31G21
  21714565.909    -7787330.46849  -6044307.23347  21714565.399    21714573.615
       238.000         198.000
  21603903.238   -21354368.99549 -15654570.96047  21603903.189    21603912.523
       238.000         197.000
  20634144.704   -22002464.90149 -16803626.87147  20634144.379    20634152.248
       241.000         209.000
  23447430.211    -1623680.12149  -1257223.08045  23447430.322    23447440.073
       206.000         136.000
  22371550.353     3330379.10649   2766183.43346  22371549.748    22371559.969
       218.000         163.000
  22808698.035   -13819696.98249 -10750397.41546  22808696.408    22808709.260
       218.000         165.000
  23160562.234   -13211830.05749  -9965458.19546  23160561.257    23160574.677
       221.000         168.000
  21226888.070   -19884132.94349 -14907444.38447  21226887.432    21226896.277
       242.000         207.000
 00  4 18  2 31  0.0000000  0  8G23G 3G29G 9G17G15G31G21
  21722320.285    -7746580.71449  -6012554.15347  21722319.561    21722328.206
       238.000         198.000
  21605164.165   -21347743.01749 -15649407.85947  21605163.876    21605173.529
       237.000         197.000
  20625196.319   -22049488.59149 -16840268.62547  20625195.724    20625203.676
       241.000         209.000
  23446333.572    -1629443.12749  -1261713.63545  23446333.561    23446341.403
       205.000         137.000
  22385378.566     3403046.62249   2822807.43746  22385378.005    22385387.647
       217.000         163.000
  22791206.258   -13911615.89649 -10822022.31746  22791205.197    22791217.624
       220.000         166.000
  23150621.963   -13264066.44649 -10006161.75646  23150620.229    23150632.979
       220.000         168.000
  21223298.174   -19902997.89349 -14922144.30047  21223297.447    21223306.318
       242.000         208.000
 00  4 18  2 31 30.0000000  0  8G23G 3G29G 9G17G15G31G21
  21730086.619    -7705768.43449  -5980752.35347  21730085.835    21730094.612
       238.000         198.000
  21606529.316   -21340569.12449 -15643817.81447  21606528.981    21606538.507
       238.000         197.000
  20616335.852   -22096050.25649 -16876550.36447  20616335.418    20616343.570
       242.000         209.000
  23445339.295    -1634667.95749  -1265784.85245  23445339.629    23445348.810
       206.000         137.000
  22399269.477     3476043.70849   2879688.24745  22399268.769    22399278.654
       217.000         162.000
  22773728.085   -14003463.21949 -10893591.42246  22773728.016    22773739.606
       222.000         166.000
  23140773.019   -13315821.49749 -10046490.24346  23140772.317    23140784.918
       220.000         167.000
  21219742.559   -19921682.54849 -14936703.72747  21219741.639    21219750.739
       242.000         208.000
 00  4 18  2 32  0.0000000  0  8G23G 3G29G 9G17G15G31G21
  21737870.256    -7664865.09649  -5948879.59647  21737869.706    21737878.233
       238.000         198.000
  21607996.715   -21332857.83949 -15637809.02247  21607996.076    21608006.138
       238.000         197.000
  20607564.710   -22142142.55549 -16912466.36147  20607564.600    20607572.271
       241.000         209.000
  23444449.258    -1639344.71749  -1269428.99645  23444447.777    23444459.632
       207.000         136.000
  22413227.552     3549393.91349   2936844.22945  22413226.716    22413236.868
       217.000         162.000
  22756265.337   -14095230.11349 -10965097.86446  22756264.056    22756277.304
       222.000         167.000
  23131018.729   -13367080.77149 -10086432.40746  23131017.760    23131030.149
       221.000         168.000
  21216221.727   -19940184.41949 -14951120.72747  21216221.146    21216230.012
       242.000         208.000
 00  4 18  2 32 30.0000000  0  8G23G 3G29G 9G17G15G31G21
  21745674.454    -7623853.55049  -5916922.52247  21745673.573    21745682.475
       238.000         197.000
  21609568.248   -21324599.29349 -15631373.79347  21609567.528    21609577.412
       238.000         197.000
  20598886.772   -22187745.11549 -16948000.74547  20598886.508    20598894.476
       242.000         209.000
  23443661.449    -1643484.44949  -1272654.68245  23443660.552    23443670.237
       206.000         137.000
  22427252.528     3623095.52149   2994274.01845  22427252.056    22427262.124
       217.000         161.000
  22738819.984   -14186905.25149 -11036532.82446  22738819.163    22738831.495
       223.000         167.000
  23121361.793   -13417828.20849 -10125975.74246  23121361.025    23121371.133
       223.000         167.000
  21212736.808   -19958497.73749 -14965390.80347  21212736.058    21212745.086
       242.000         208.000
 00  4 18  2 33  0.0000000  0  8G23G 3G29G 9G17G15G31G21
  21753502.264    -7582718.20349  -5884868.98347  21753501.724    21753510.161
       237.000         197.000
  21611248.951   -21315766.71249 -15624491.26547  21611248.644    21611258.469
       237.000         197.000
  20590306.473   -22232834.54749 -16983135.28847  20590305.878    20590314.220
       242.000         210.000
  23442977.469    -1647078.51149  -1275455.17145  23442977.834    23442987.112
       205.000         136.000
  22441343.393     3697143.23949   3051973.51645  22441342.812    22441352.956
       216.000         161.000
  22721393.224   -14278482.63749 -11107891.59346  22721391.508    22721404.478
       220.000         168.000
  23111804.769   -13468051.18549 -10165110.41746  23111803.671    23111815.298
       221.000         168.000
  21209286.913   -19976626.80349 -14979517.30747  21209286.077    21209295.071
       242.000         208.000
 00  4 18  2 33 30.0000000  0  8G23G 3G29G 9G17G15G31G21
  21761354.194    -7541455.76249  -5852716.41947  21761353.349    21761361.699
       238.000         197.000
  21613042.520   -21306341.39349 -15617146.86347  21613042.122    21613052.482
       237.000         197.000
  20581824.765   -22277406.02749 -17017866.23347  20581824.389    20581832.427
       241.000         210.000
  23442399.359    -1650116.07749  -1277822.02145  23442399.235    23442409.062
       206.000         135.000
  22455499.995     3771536.60349   3109942.33945  22455499.671    22455510.377
       217.000         160.000
  22703984.920   -14369963.51449 -11179175.20646  22703983.160    22703996.064
       219.000         168.000
  23102348.620   -13517742.22449 -10203830.56646  23102347.498    23102359.769
       221.000         168.000
  21205870.023   -19994582.56449 -14993508.76647  21205869.462    21205878.388
       242.000         208.000
 00  4 18  2 34  0.0000000  0  8G23G 3G29G 9G17G15G31G21
  21769226.876    -7500084.47649  -5820479.03647  21769226.258    21769234.715
       238.000         197.000
  21614951.801   -21296308.23649 -15609328.82247  21614951.500    21614961.415
       237.000         197.000
  20573441.515   -22321459.93949 -17052193.88047  20573440.963    20573449.169
       241.000         210.000
  23441924.411    -1652611.65049  -1279766.54845  23441922.835    23441933.202
       206.000         136.000
  22469718.230     3846253.65149   3168163.37545  22469716.669    22469727.212
       216.000         160.000
  22686593.881   -14461352.97749 -11250387.56746  22686592.949    22686604.902
       222.000         168.000
  23092993.958   -13566900.31149 -10242135.45346  23092992.564    23093005.544
       221.000         167.000
  21202482.176   -20012385.60849 -15007381.21947  21202481.328    21202490.623
       242.000         208.000
 00  4 18  2 34 30.0000000  0  8G23G 3G29G 9G17G15G31G21
  21777115.454    -7458629.69849  -5788176.59347  21777114.907    21777123.444
       238.000         197.000
  21616977.508   -21285662.97649 -15601033.81147  21616976.868    21616987.008
       238.000         197.000
  20565156.773   -22364996.19249 -17086118.15747  20565156.319    20565164.219
       241.000         210.000
  23441553.071    -1654562.65649  -1281286.72245  23441551.482    23441562.253
       206.000         136.000
  22483993.196     3921269.34949   3226617.13045  22483992.996    22484003.239
       216.000         160.000
  22669219.790   -14552653.45349 -11321530.57446  22669218.147    22669229.873
       222.000         168.000
  23083740.629   -13615525.93449 -10280025.41146  23083740.279    23083752.022
       220.000         168.000
  21199121.632   -20030045.06849 -15021141.79147  21199120.804    21199130.040
       242.000         208.000
 00  4 18  2 35  0.0000000  0  8G23G 3G29G 9G17G15G31G21
  21785016.157    -7417111.11649  -5755824.43847  21785015.518    21785023.998
       238.000         197.000
  21619115.503   -21274427.65749 -15592279.01947  21619115.168    21619124.785
       238.000         197.000
  20556964.908   -22408044.35849 -17119662.10547  20556964.400    20556972.261
       241.000         210.000
  23441288.458    -1655952.66149  -1282369.75845  23441287.245    23441298.990
       206.000         136.000
  22498324.561     3996580.94249   3285301.45245  22498323.585    22498334.415
       215.000         159.000
  22651860.882   -14643874.57849 -11392611.79246  22651857.915    22651872.251
       217.000         169.000
  23074588.139   -13663623.08949 -10317503.60346  23074587.256    23074598.735
       219.000         169.000
  21195784.636   -20047580.80649 -15034805.95047  21195783.814    21195792.889
       242.000         208.000
 00  4 18  2 35 30.0000000  0  8G23G 3G29G 9G17G15G31G21
  21792926.294    -7375543.19049  -5723433.83147  21792925.691    21792933.999
       237.000         197.000
  21621360.882   -21262628.24949 -15583084.67047  21621360.584    21621370.636
       238.000         197.000
  20548860.448   -22450633.27149 -17152848.18947  20548859.990    20548868.072
       242.000         210.000
  23441129.249    -1656789.08749  -1283021.43145  23441128.085    23441137.350
       205.000         135.000
  22512710.011     4072177.05849   3344207.49145  22512709.036    22512719.650
       215.000         158.000
  22634515.021   -14735026.46549 -11463639.06046  22634513.542    22634527.218
       220.000         169.000
  23065533.314   -13711205.81449 -10354580.91446  23065532.504    23065544.496
       221.000         169.000
  21192469.099   -20065004.00349 -15048382.41847  21192468.289    21192477.279
       243.000         208.000
 00  4 18  2 36  0.0000000  0  8G23G 3G29G 9G17G15G31G21
  21800845.750    -7333926.15749  -5691004.95947  21800845.129    21800853.592
       237.000         197.000
  21623709.444   -21250286.47749 -15573467.70547  21623709.008    21623719.001
       238.000         197.000
  20540842.185   -22492769.26849 -17185681.36147  20540841.831    20540849.592
       241.000         210.000
  23441075.728    -1657069.73249  -1283240.04845  23441074.542    23441083.782
       206.000         136.000
  22527147.674     4148047.34249   3403327.18945  22527147.220    22527157.424
       215.000         158.000
  22617182.036   -14826110.95749 -11534613.80546  22617180.951    22617192.962
       222.000         169.000
  23056575.275   -13758280.30349 -10391262.21146  23056573.926    23056585.767
       220.000         169.000
  21189178.107   -20082297.86749 -15061858.11347  21189177.318    21189186.145
       242.000         208.000
 00  4 18  2 36 30.0000000  0  8G23G 3G29G 9G17G15G31G21
  21808781.030    -7292225.77749  -5658511.13847  21808780.455    21808788.693
       238.000         196.000
  21626158.968   -21237414.06749 -15563437.24947  21626158.522    21626168.729
       237.000         197.000
  20532911.386   -22534445.59249 -17218156.34547  20532911.061    20532918.864
       242.000         210.000
  23441132.644    -1656770.30449  -1283006.63945  23441132.432    23441142.836
       206.000         137.000
  22541641.900     4224214.82549   3462678.46945  22541641.286    22541651.507
       214.000         158.000
  22599863.750   -14917118.40049 -11605528.51246  22599862.781    22599874.266
       222.000         169.000
  23047713.244   -13804849.68649 -10427549.91646  23047712.810    23047724.503
       222.000         169.000
  21185913.748   -20099452.05849 -15075224.96947  21185913.028    21185921.840
       242.000         208.000
 00  4 18  2 37  0.0000000  0  8G23G 3G29G 9G17G15G31G21
  21816733.987    -7250432.75749  -5625945.13347  21816733.230    21816741.720
       237.000         196.000
  21628710.551   -21224005.78349 -15552989.23047  21628710.295    21628719.956
       238.000         197.000
  20525068.437   -22575660.16149 -17250271.51747  20525068.131    20525075.888
       242.000         210.000
  23441298.898    -1655896.42849  -1282325.62845  23441298.067    23441308.321
       205.000         136.000
  22556197.601     4300705.54049   3522281.61845  22556196.540    22556207.558
       215.000         158.000
  22582561.370   -15008042.38649 -11676378.20746  22582561.128    22582571.072
       224.000         169.000
  23038946.330   -13850920.59949 -10463449.20446  23038945.440    23038957.189
       221.000         169.000
  21182678.809   -20116451.79849 -15088471.47347  21182678.087    21182686.843
       242.000         208.000
 00  4 18  2 37 30.0000000  0  8G23G 3G29G 9G17G15G31G21
  21824708.475    -7208526.67049  -5593291.02547  21824707.859    21824715.993
       237.000         196.000
  21631366.884   -21210046.57149 -15542111.91847  21631366.547    21631376.503
       238.000         197.000
  20517317.749   -22616390.12049 -17282009.07747  20517317.117    20517325.084
       242.000         210.000
  23441571.584    -1654463.12849  -1281208.69445  23441570.998    23441580.939
       205.000         137.000
  22570817.235     4377531.90949   3582146.29745  22570817.478    22570826.936
       215.000         158.000
  22565277.279   -15098870.03249 -11747152.81146  22565276.114    22565287.584
       221.000         170.000
  23030275.386   -13896485.95649 -10498954.56946  23030275.082    23030284.905
       222.000         169.000
  21179477.911   -20133272.19449 -15101578.22947  21179477.263    21179486.114
       242.000         208.000
 00  4 18  2 38  0.0000000  0  8G23G 3G29G 9G17G15G31G21
  21832707.058    -7166493.70549  -5560538.04647  21832706.682    21832714.921
       236.000         196.000
  21634129.210   -21195530.39949 -15530800.60847  21634128.504    21634138.470
       238.000         197.000
  20509663.025   -22656615.51149 -17313353.46347  20509662.606    20509670.409
       242.000         211.000
  23441950.766    -1652469.97149  -1279655.49645  23441951.675    23441959.809
       206.000         137.000
  22585504.956     4454716.30749   3642289.95245  22585505.210    22585514.661
       216.000         158.000
  22548015.250   -15189582.18949 -11817837.43046  22548011.996    22548025.131
       220.000         170.000
  23021705.628   -13941520.33449 -10534046.17746  23021704.765    23021716.252
       221.000         169.000
  21176313.110   -20149903.13749 -15114537.35747  21176312.444    21176321.227
       242.000         208.000
 00  4 18  2 38 30.0000000  0  8G23G 3G29G 9G17G15G31G21
  21840729.168    -7124337.01449  -5527688.65947  21840728.708    21840736.711
       236.000         196.000
  21637000.579   -21180441.03549 -15519042.65847  21637000.097    21637010.043
       238.000         197.000
  20502105.233   -22696331.63749 -17344301.01947  20502104.898    20502112.561
       242.000         211.000
  23442435.152    -1649924.23349  -1277671.73145  23442434.670    23442445.547
       204.000         138.000
  22600261.181     4532260.20549   3702713.74945  22600260.695    22600270.086
       215.000         158.000
  22530776.033   -15280174.03749 -11888428.30046  22530774.979    22530785.254
       224.000         171.000
  23013238.215   -13986016.19449 -10568718.17046  23013237.157    23013248.527
       223.000         169.000
  21173180.557   -20166364.64749 -15127364.46147  21173179.793    21173188.666
       242.000         208.000
 00  4 18  2 39  0.0000000  0  8G23G 3G29G 9G17G15G31G21
  21848769.893    -7082082.53949  -5494763.07547  21848768.872    21848777.825
       236.000         196.000
  21639983.656   -21164765.12949 -15506827.66647  21639983.301    21639993.190
       238.000         197.000
  20494643.194   -22735544.63549 -17374856.53147  20494642.854    20494650.628
       242.000         211.000
  23443020.364    -1646848.66749  -1275275.11645  23443020.225    23443029.602
       206.000         139.000
  22615080.137     4610134.27449   3763394.81245  22615078.837    22615089.613
       216.000         157.000
  22513558.049   -15370654.33349 -11958932.26246  22513557.628    22513568.280
       225.000         171.000
  23004875.981   -14029959.70049 -10602959.76946  23004875.076    23004886.005
       220.000         169.000
  21170078.119   -20182667.91649 -15140068.25647  21170077.450    21170086.463
       242.000         208.000
 00  4 18  2 39 30.0000000  0  8G23G 3G29G 9G17G15G31G21
  21856829.549    -7039728.31049  -5461759.76447  21856828.942    21856837.126
       236.000         195.000
  21643077.495   -21148507.08349 -15494159.05147  21643077.339    21643086.689
       238.000         197.000
  20487276.289   -22774257.72949 -17405022.50547  20487276.024    20487283.739
       242.000         211.000
  23443706.777    -1643241.18849  -1272464.02845  23443706.869    23443714.644
       208.000         139.000
  22629957.463     4688314.88249   3824314.73445  22629956.367    22629967.261
       216.000         157.000
  22496361.035   -15461024.77949 -12029350.62846  22496360.574    22496370.344
       224.000         172.000
  22996619.533   -14073346.78449 -10636767.77446  22996619.302    22996630.536
       223.000         170.000
  21167001.605   -20198834.73449 -15152665.72747  21167000.950    21167009.807
       242.000         208.000
 00  4 18  2 40  0.0000000  0  8G23G 3G29G 9G17G15G31G21
  21864904.032    -6997296.58649  -5428696.05947  21864903.043    21864911.602
       236.000         195.000
  21646281.779   -21131668.32549 -15481037.93547  21646281.341    21646291.076
       237.000         197.000
  20480003.244   -22812477.53049 -17434804.09347  20480002.819    20480010.388
       242.000         211.000
  23444495.261    -1639097.97649  -1269235.47445  23444494.274    23444504.871
       208.000         138.000
  22644891.477     4766793.77449   3885467.10945  22644891.488    22644901.251
       215.000         157.000
  22479183.762   -15551291.33649 -12099688.02446  22479182.136    22479193.883
       223.000         172.000
  22988465.511   -14116196.60449 -10670157.14646  22988464.197    22988475.754
       223.000         171.000
  21163947.765   -20214882.62249 -15165170.52947  21163947.084    21163955.761
       242.000         208.000
 00  4 18  2 40 30.0000000  0  8G23G 3G29G 9G17G15G31G21
  21872990.990    -6954799.08949  -5395581.10447  21872990.214    21872998.744
       236.000         195.000
  21649596.956   -21114246.87849 -15467462.77947  21649596.716    21649606.461
       237.000         197.000
  20472821.294   -22850218.42849 -17464212.51447  20472820.991    20472828.697
       242.000         211.000
  23445386.084    -1634416.60849  -1265587.60045  23445384.808    23445394.387
       206.000         138.000
  22659880.219     4845560.24849   3946843.55645  22659879.792    22659890.659
       212.000         156.000
  22462023.597   -15641467.93649 -12169955.31346  22462022.765    22462033.247
       225.000         173.000
  22980409.933   -14158528.32449 -10703142.80746  22980408.654    22980421.083
       223.000         171.000
  21160914.743   -20230820.98349 -15177589.98647  21160913.934    21160922.902
       242.000         208.000
 00  4 18  2 41  0.0000000  0  8G23G 3G29G 9G17G15G31G21
  21881087.230    -6912252.61449  -5362427.98247  21881086.379    21881095.171
       236.000         195.000
  21653018.739   -21096265.26349 -15453451.12547  21653018.727    21653028.217
       237.000         197.000
  20465728.613   -22887490.55249 -17493255.66047  20465728.291    20465736.070
       241.000         211.000
  23446377.866    -1629204.36849  -1261526.05145  23446377.990    23446387.514
       206.000         138.000
  22674924.518     4924618.65949   4008447.48445  22674923.317    22674934.485
       214.000         155.000
  22444879.716   -15731558.72349 -12240155.75446  22444879.943    22444889.878
       227.000         173.000
  22972453.454   -14200339.22049 -10735722.61746  22972452.102    22972463.360
       224.000         171.000
  21157903.018   -20246647.58449 -15189922.35747  21157902.279    21157911.099
       242.000         208.000
 00  4 18  2 41 30.0000000  0  8G23G 3G29G 9G17G15G31G21
  21889191.887    -6869662.34549  -5329240.73347  21889190.968    21889199.619
       236.000         195.000
  21656543.146   -21077744.49249 -15439019.34947  21656542.907    21656552.836
       237.000         197.000
  20458724.075   -22924299.33549 -17521937.75947  20458723.700    20458731.325
       243.000         211.000
  23447473.898    -1623444.29449  -1257037.60745  23447473.732    23447483.375
       207.000         138.000
  22690025.207     5003973.13349   4070282.11645  22690025.063    22690034.889
       215.000         154.000
  22427752.806   -15821560.86049 -12310287.11246  22427751.781    22427763.618
       224.000         174.000
  22964593.651   -14241642.35349 -10767906.78046  22964592.713    22964603.806
       223.000         171.000
  21154914.200   -20262353.77849 -15202160.89247  21154913.348    21154922.062
       242.000         208.000
 00  4 18  2 42  0.0000000  0  8G23G 3G29G 9G17G15G31G21
  21897303.027    -6827037.87249  -5296026.83247  21897302.453    21897311.122
       236.000         195.000
  21660168.129   -21058695.09749 -15424175.66147  21660167.428    21660177.394
       237.000         196.000
  20451808.637   -22960639.94749 -17550255.05147  20451808.508    20451816.193
       243.000         211.000
  23448675.336    -1617130.42849  -1252117.64445  23448674.940    23448684.204
       205.000         137.000
  22705182.828     5083626.42749   4132349.59945  22705181.580    22705192.986
       215.000         154.000
  22410642.380   -15911476.06449 -12380350.73846  22410640.347    22410652.840
       224.000         174.000
  22956831.514   -14282431.97949 -10799690.79746  22956831.326    22956842.149
       224.000         172.000
  21151949.839   -20277931.47749 -15214299.30947  21151949.030    21151958.026
       242.000         208.000
 00  4 18  2 42 30.0000000  0  8G23G 3G29G 9G17G15G31G21
  21905422.325    -6784370.55949  -5262779.54847  21905421.612    21905430.232
       236.000         196.000
  21663891.464   -21039128.44749 -15408928.92047  21663891.090    21663900.667
       236.000         196.000
  20444983.141   -22996507.90849 -17578204.04447  20444982.683    20444990.429
       243.000         211.000
  23449984.318    -1610251.39649  -1246757.31045  23449983.474    23449994.140
       207.000         137.000
  22720394.402     5163563.89149   4194638.51245  22720393.949    22720405.010
       214.000         153.000
  22393549.262   -16001300.06849 -12450343.27246  22393548.549    22393558.755
       226.000         174.000
  22949173.128   -14322677.56549 -10831050.90346  22949171.479    22949183.314
       223.000         172.000
  21149012.537   -20293366.72649 -15226326.72747  21149011.874    21149020.624
       242.000         208.000
 00  4 18  2 43  0.0000000  0  8G23G 3G29G 9G17G15G31G21
  21913550.027    -6741658.97649  -5229497.77647  21913549.136    21913557.893
       236.000         196.000
  21667713.709   -21019042.44649 -15393277.48947  21667713.414    21667723.085
       237.000         196.000
  20438250.871   -23031885.79749 -17605771.16347  20438250.394    20438258.023
       243.000         211.000
  23451403.088    -1602795.55949  -1240947.51045  23451402.242    23451411.334
       205.000         137.000
  22735658.251     5243776.08449   4257141.48645  22735658.121    22735668.401
       215.000         152.000
  22376476.158   -16091019.26449 -12520254.15546  22376474.859    22376486.005
       227.000         175.000
  22941620.970   -14362362.83049 -10861974.36646  22941621.056    22941631.575
       225.000         172.000
  21146105.096   -20308645.22249 -15238232.00147  21146104.367    21146113.001
       242.000         208.000
 00  4 18  2 43 30.0000000  0  8G23G 3G29G 9G17G15G31G21
  21921691.522    -6698875.11549  -5196159.67947  21921690.899    21921699.650
       236.000         196.000
  21671637.883   -20998420.80749 -15377208.67547  21671637.428    21671647.309
       237.000         196.000
  20431614.626   -23066759.07649 -17632945.07947  20431614.458    20431622.015
       243.000         212.000
  23452936.059    -1594739.45849  -1234669.95645  23452935.950    23452944.751
       205.000         138.000
  22750974.887     5324265.28249   4319860.30145  22750974.428    22750984.524
       216.000         151.000
  22359425.269   -16180621.79649 -12590074.12446  22359423.353    22359433.090
       224.000         175.000
  22934175.095   -14401491.42549 -10892464.08546  22934173.612    22934185.332
       223.000         172.000
  21143229.729   -20323755.12749 -15250005.90147  21143228.967    21143237.927
       242.000         208.000
 00  4 18  2 44  0.0000000  0  8G23G 3G29G 9G17G15G31G21
  21929851.149    -6655996.10849  -5162747.44247  21929850.710    21929859.201
       236.000         196.000
  21675665.096   -20977257.73449 -15360717.96547  21675664.959    21675674.458
       236.000         196.000
  20425076.958   -23101114.68949 -17659715.62347  20425076.734    20425084.128
       243.000         212.000
  23454582.274    -1586087.97449  -1227928.47145  23454581.091    23454590.971
       206.000         137.000
  22766348.308     5405053.03149   4382811.78745  22766347.066    22766358.673
       213.000         150.000
  22342398.171   -16270099.00449 -12659796.41646  22342396.731    22342407.655
       227.000         176.000
  22926836.920   -14440052.58649 -10922511.62046  22926835.562    22926847.401
       222.000         172.000
  21140386.639   -20338695.43349 -15261647.64547  21140385.945    21140394.740
       242.000         208.000
 00  4 18  2 44 30.0000000  0  8G23G 3G29G 9G17G15G31G21
  21938032.188    -6613004.26349  -5129247.27747  21938031.627    21938040.113
       236.000         196.000
  21679797.888   -20955539.57049 -15343794.71347  21679797.449    21679807.521
       236.000         196.000
  20418637.011   -23134956.56749 -17686085.84947  20418636.892    20418644.447
       243.000         212.000
  23456340.807    -1576846.58049  -1220727.33545  23456339.914    23456349.607
       207.000         137.000
  22781779.634     5486145.10149   4446000.37645  22781779.302    22781789.406
       213.000         150.000
  22325396.943   -16359440.29649 -12729412.83646  22325396.250    22325406.263
       228.000         176.000
  22919607.948   -14478040.53049 -10952112.50846  22919607.236    22919618.253
       224.000         172.000
  21137576.246   -20353464.00749 -15273155.57047  21137575.541    21137584.193
       242.000         208.000
 00  4 18  2 45  0.0000000  0  8G23G 3G29G 9G17G15G31G21
  21946236.049    -6569892.56449  -5095653.71847  21946235.297    21946243.655
       236.000         195.000
  21684038.886   -20933253.17849 -15326428.69047  21684038.552    21684048.434
       237.000         195.000
  20412293.800   -23168290.17449 -17712060.02647  20412293.523    20412301.223
       243.000         212.000
  23458210.068    -1567023.21949  -1213072.70445  23458209.569    23458219.667
       203.000         137.000
  22797271.361     5567554.41749   4509436.17345  22797271.527    22797281.550
       213.000         151.000
  22308422.223   -16448642.49649 -12798920.82846  22308420.202    22308432.393
       227.000         177.000
  22912483.308   -14515480.27349 -10981286.21546  22912482.428    22912494.118
       224.000         173.000
  21134795.851   -20368074.86949 -15284540.60447  21134795.026    21134803.781
       242.000         208.000
 00  4 18  2 45 30.0000000  0  8G23G 3G29G 9G17G15G31G21
  21954464.280    -6526652.80649  -5061960.36847  21954463.671    21954471.970
       236.000         195.000
  21688388.915   -20910393.76549 -15308616.15547  21688388.631    21688398.541
       236.000         195.000
  20406044.331   -23201131.16549 -17737650.34647  20406044.050    20406051.542
       244.000         212.000
  23460185.766    -1556640.23549  -1204982.00445  23460183.703    23460193.204
       204.000         136.000
  22812825.012     5649288.92749   4573125.36745  22812824.940    22812834.011
       212.000         150.000
  22291473.492   -16537707.91149 -12868322.26246  22291472.605    22291483.646
       229.000         177.000
  22905460.335   -14552385.75249 -11010043.62546  22905459.580    22905469.906
       224.000         172.000
  21132042.831   -20382541.74849 -15295813.43947  21132042.032    21132050.861
       242.000         208.000
 00  4 18  2 46  0.0000000  0  8G23G 3G29G 9G17G15G31G21
  21962713.085    -6483305.03249  -5028182.85047  21962712.161    21962720.674
       236.000         195.000
  21692846.940   -20886966.85649 -15290361.41447  21692846.515    21692856.205
       237.000         195.000
  20399886.640   -23233490.03949 -17762864.99047  20399886.373    20399893.787
       244.000         212.000
  23462264.998    -1545713.58049  -1196467.66345  23462264.382    23462273.654
       204.000         135.000
  22828439.964     5731345.84149   4637065.79945  22828439.090    22828449.218
       214.000         150.000
  22274550.761   -16626636.88049 -12937617.36946  22274549.141    22274560.217
       226.000         178.000
  22898538.081   -14588762.27349 -11038388.84646  22898537.492    22898549.430
       224.000         173.000
  21129314.006   -20396881.79449 -15306987.44547  21129313.321    21129321.936
       242.000         208.000
 00  4 18  2 46 30.0000000  0  8G23G 3G29G 9G17G15G31G21
  21970974.949    -6439888.57749  -4994351.81647  21970974.261    21970982.727
       236.000         195.000
  21697412.548   -20862974.29649 -15271665.91147  21697412.084    21697422.131
       236.000         195.000
  20393818.323   -23265379.02649 -17787713.48547  20393817.914    20393825.508
       244.000         212.000
  23464446.012    -1534251.64949  -1187536.22845  23464445.462    23464455.398
       203.000         135.000
  22844112.730     5813706.40649   4701242.81045  22844111.790    22844122.177
       214.000         149.000
  22257652.660   -16715436.33249 -13006811.54546  22257650.919    22257662.742
       227.000         178.000
  22891714.280   -14624621.25549 -11066330.80946  22891713.197    22891724.248
       224.000         173.000
  21126606.002   -20411112.07849 -15318075.92047  21126605.206    21126614.202
       242.000         208.000
 00  4 18  2 47  0.0000000  0  8G23G 3G29G 9G17G15G31G21
  21979243.903    -6396434.71849  -4960491.64347  21979243.017    21979252.009
       236.000         195.000
  21702082.120   -20838435.54349 -15252544.79547  21702081.741    21702091.296
       236.000         195.000
  20387839.148   -23296799.42549 -17812196.85047  20387838.853    20387846.331
       244.000         212.000
  23466728.153    -1522258.37549  -1178190.77445  23466728.202    23466736.411
       206.000         134.000
  22859842.759     5896368.50749   4765654.79145  22859842.171    22859852.433
       214.000         149.000
  22240777.163   -16804116.85049 -13075913.04546  22240776.621    22240787.203
       230.000         179.000
  22884985.772   -14659979.38049 -11093882.47946  22884985.584    22884995.445
       224.000         173.000
  21123917.490   -20425240.23049 -15329084.80747  21123916.847    21123925.417
       242.000         208.000
 00  4 18  2 47 30.0000000  0  8G23G 3G29G 9G17G15G31G21
  21987516.497    -6352961.94749  -4926616.72447  21987515.670    21987524.219
       236.000         195.000
  21706850.513   -20813377.44549 -15233019.00147  21706849.911    21706859.767
       236.000         195.000
  20381949.740   -23327748.19449 -17836312.70947  20381949.520    20381956.846
       244.000         212.000
  23469111.051    -1509736.24349  -1168433.21145  23469111.732    23469121.056
       203.000         133.000
  22875629.809     5979329.76949   4830299.88145  22875628.912    22875639.081
       212.000         149.000
  22223923.493   -16892682.85349 -13144925.31846  22223922.559    22223933.647
       229.000         179.000
  22878354.754   -14694826.05249 -11121035.63546  22878353.995    22878364.693
       224.000         173.000
  21121248.957   -20439263.29449 -15340011.81247  21121248.094    21121256.784
       242.000         209.000
 00  4 18  2 48  0.0000000  0  8G23G 3G29G 9G17G15G31G21
  21995790.661    -6309480.87849  -4892735.34847  21995789.912    21995798.509
       236.000         195.000
  21711714.823   -20787814.96249 -15213100.17747  21711714.373    21711724.438
       236.000         195.000
  20376153.369   -23358208.22949 -17860047.73747  20376153.033    20376160.462
       244.000         212.000
  23471597.006    -1496672.42749  -1158253.57445  23471596.982    23471605.261
       206.000         133.000
  22891472.279     6062582.56449   4895172.14345  22891471.894    22891481.977
       213.000         148.000
  22207091.094   -16981136.94449 -13213850.38546  22207089.842    22207100.693
       228.000         180.000
  22871824.231   -14729143.93149 -11147776.74346  22871823.286    22871833.156
       223.000         172.000
  21118602.226   -20453171.76349 -15350849.52847  21118601.526    21118610.201
       242.000         209.000
 00  4 18  2 48 30.0000000  0  8G23G 3G29G 9G17G15G31G21
  22004069.805    -6265973.56949  -4858833.51847  22004069.100    22004077.361
       236.000         195.000
  21716676.900   -20761739.17449 -15192781.38147  21716676.358    21716686.162
       236.000         195.000
  20370452.803   -23388164.61649 -17883390.31248  20370452.389    20370460.032
       244.000         213.000
  23474187.774    -1483057.32449  -1147644.34245  23474186.649    23474196.863
       205.000         132.000
  22907367.581     6146112.85849   4960260.63145  22907366.950    22907376.988
       212.000         147.000
  22190280.613   -17069475.89649 -13282685.74546  22190279.489    22190290.054
       230.000         180.000
  22865398.762   -14762908.94149 -11174087.03446  22865397.804    22865409.014
       222.000         172.000
  21115982.275   -20466939.48349 -15361577.56747  21115981.370    21115989.965
       243.000         209.000
 00  4 18  2 49  0.0000000  0  8G23G 3G29G 9G17G15G31G21
  22012361.557    -6222399.95149  -4824880.02747  22012360.910    22012369.244
       236.000         195.000
  21721738.786   -20735138.94449 -15172053.93047  21721738.533    21721748.195
       236.000         195.000
  20364849.530   -23417609.71049 -17906334.47648  20364849.268    20364856.827
       244.000         213.000
  23476887.433    -1468869.80849  -1136589.07945  23476887.149    23476895.708
       206.000         133.000
  22923316.338     6229923.72149   5025567.76145  22923315.579    22923326.947
       211.000         146.000
  22173495.466   -17157681.69049 -13351417.34346  22173493.750    22173505.657
       230.000         180.000
  22859082.790   -14796099.41749 -11199949.64946  22859081.717    22859093.108
       223.000         172.000
  21113394.046   -20480540.51149 -15372175.71847  21113393.412    21113402.064
       242.000         209.000
 00  4 18  2 49 30.0000000  0  8G23G 3G29G 9G17G15G31G21
  22020672.660    -6178724.83349  -4790847.44647  22020671.756    22020680.262
       236.000         195.000
  21726902.365   -20708004.01049 -15150909.82347  21726902.159    21726911.959
       236.000         195.000
  20359346.571   -23446527.69849 -17928867.91248  20359346.338    20359353.569
       244.000         213.000
  23479697.868    -1454100.41549  -1125080.40945  23479696.894    23479707.357
       206.000         133.000
  22939319.686     6314021.56749   5091098.47445  22939319.639    22939329.237
       211.000         145.000
  22156738.892   -17245737.26949 -13420031.90146  22156737.420    22156748.761
       229.000         181.000
  22852878.366   -14828703.40549 -11225355.25946  22852878.262    22852887.982
       224.000         172.000
  21110839.579   -20493964.01149 -15382635.53947  21110838.970    21110847.410
       243.000         209.000
 00  4 18  2 50  0.0000000  0  8G23G 3G29G 9G17G15G31G21
  22029007.733    -6134923.51949  -4756716.52047  22029006.916    22029015.633
       236.000         195.000
  21732171.595   -20680313.98549 -15129333.17847  21732171.281    21732181.193
       236.000         194.000
  20353944.576   -23474915.16549 -17950987.95248  20353944.228    20353951.554
       244.000         213.000
  23482621.034    -1438739.23949  -1113110.60145  23482620.590    23482630.027
       203.000         133.000
  22955378.997     6398413.85449   5156858.65445  22955378.082    22955389.439
       209.000         145.000
  22140013.723   -17333627.86549 -13488517.90746  22140012.358    22140023.189
       229.000         181.000
  22846786.297   -14860717.48549 -11250301.19846  22846784.950    22846796.491
       223.000         172.000
  21108321.011   -20507199.06749 -15392948.52147  21108320.384    21108328.842
       243.000         209.000
